Darstellungsparameter: Aktuell verwendete Einstellungen:
Skalierung der Graphiken ... ?
xyx+y,   Skalierungsfaktor:      Skalierung: Modus: x, Faktor: 1
Darstellungszeitraum ... ?
Vom - - bis: - -   Zeitraum: 03.08.2019 - 02.08.2020
Min/Max/Avg-Anzeige ... ?
Zeige MMA aktuell
Zeige MMA Monat
Zeige MMA alles
Zeige --A aktuell
Zeige --A Monat
Zeige --A alles
Keine MMA-Anzeige
MMA:
Minimum Maximum Average (ber die Originaldaten)
MMA-Basis: 23.02.2003 - 03.08.2020
Quicknavigation für Darstellung... ?
Tage:      1T, 2T, 3T, 5T -1T -2T -3T -5T +1T +2T +3T +5T
Wochen: 1W, 2W, 3W -1W -2W -3W +1W +2W +3W
Monate: 1M, 3M, 6M -1M -3M -6M +1M +3M +6M
Jahre:    1J, 3J, 5J, 10J -1J -3J -5J -10J +1J +3J +5J +10J
Nutze für die Darstellung ... ?
Originaldaten oder ...
Mittelwerte Minima Maxima auf...
Stundenbasis Tagesbasis Wochenbasis
Monatsbasis Jahresbasis      Datenbasis: Mittelwerte auf Stundenbasis
Darstellen als:
Statistik (Auto) Statistik J:M      Darstellung:
Zur Graphik,    zurück zur Übersicht aller Sensoren.
 
Tabellarische Datenbersicht: ?
 
Sensor: Nr:Datum:Temp:Abs-Feuchte:Windchill:Wind:
Aussen-T/F 1 03-08-2019 00:00:00 17.75833 C 12.77 g/m*3 17.76 C 5.91667 km/h
2 03-08-2019 01:00:00 18.28333 C 12.89 g/m*3 18.28 C 10.89167 km/h
3 03-08-2019 02:00:00 18.24167 C 13.15 g/m*3 18.24 C 11.29167 km/h
4 03-08-2019 03:00:00 18.2 C 13.32 g/m*3 18.2 C 8.05833 km/h
5 03-08-2019 04:00:00 18.15 C 13.47 g/m*3 18.15 C 7.225 km/h
6 03-08-2019 05:00:00 18.14167 C 13.48 g/m*3 18.14 C 6.31667 km/h
7 03-08-2019 06:00:00 17.89167 C 13.32 g/m*3 17.89 C 5.75833 km/h
8 03-08-2019 07:00:00 17.84167 C 13.03 g/m*3 17.84 C 6.84167 km/h
9 03-08-2019 08:00:00 17.95 C 12.94 g/m*3 17.95 C 8.60833 km/h
10 03-08-2019 09:00:00 18.6 C 12.61 g/m*3 18.6 C 11.96667 km/h
11 03-08-2019 10:00:00 19.61667 C 12.76 g/m*3 19.62 C 11.3 km/h
12 03-08-2019 11:00:00 20.35833 C 12.91 g/m*3 20.36 C 11.16667 km/h
13 03-08-2019 12:00:00 21.55833 C 12.66 g/m*3 21.56 C 10.76667 km/h
14 03-08-2019 13:00:00 22.05 C 12.91 g/m*3 22.05 C 11.00833 km/h
15 03-08-2019 14:00:00 22.20833 C 12.93 g/m*3 22.21 C 10.49167 km/h
16 03-08-2019 15:00:00 23.80833 C 12.48 g/m*3 23.81 C 12.35833 km/h
17 03-08-2019 16:00:00 25.16667 C 12.35 g/m*3 25.17 C 12.36667 km/h
18 03-08-2019 17:00:00 25.49167 C 12.07 g/m*3 25.49 C 12.63333 km/h
19 03-08-2019 18:00:00 25.46667 C 12.05 g/m*3 25.47 C 11.825 km/h
20 03-08-2019 19:00:00 24.30833 C 12.07 g/m*3 24.31 C 11.15833 km/h
21 03-08-2019 20:00:00 22.61667 C 12.03 g/m*3 22.62 C 7.39167 km/h
22 03-08-2019 21:00:00 20.55833 C 11.74 g/m*3 20.56 C 3.875 km/h
23 03-08-2019 22:00:00 18.10833 C 11.47 g/m*3 18.11 C 0.13333 km/h
24 03-08-2019 23:00:00 17.05 C 11.51 g/m*3 17.05 C 0 km/h
25 04-08-2019 00:00:00 16.225 C 11.3 g/m*3 16.23 C 0 km/h
Sensor: Nr:Datum:Temp:Abs-Feuchte:Windchill:Wind:
Aussen-T/F 26 04-08-2019 01:00:00 15.125 C 11.05 g/m*3 15.13 C 0 km/h
27 04-08-2019 02:00:00 14 C 10.71 g/m*3 14 C 0 km/h
28 04-08-2019 03:00:00 13.3 C 10.5 g/m*3 13.3 C 0 km/h
29 04-08-2019 04:00:00 12.88333 C 10.37 g/m*3 12.88 C 0 km/h
30 04-08-2019 05:00:00 12.49167 C 10.22 g/m*3 12.49 C 0 km/h
31 04-08-2019 06:00:00 12.34167 C 10.22 g/m*3 12.34 C 0 km/h
32 04-08-2019 07:00:00 12.725 C 10.53 g/m*3 12.73 C 0 km/h
33 04-08-2019 08:00:00 13.73333 C 11.27 g/m*3 13.73 C 0 km/h
34 04-08-2019 09:00:00 15.34167 C 12.19 g/m*3 15.34 C 0.66667 km/h
35 04-08-2019 10:00:00 18.10833 C 12.88 g/m*3 18.11 C 3.33333 km/h
36 04-08-2019 11:00:00 21.31667 C 12.59 g/m*3 21.32 C 5.34167 km/h
37 04-08-2019 12:00:00 23.3 C 12.44 g/m*3 23.3 C 7.23333 km/h
38 04-08-2019 13:00:00 24.75 C 12.18 g/m*3 24.75 C 6.01667 km/h
39 04-08-2019 14:00:00 25.86667 C 11.74 g/m*3 25.87 C 6.7 km/h
40 04-08-2019 15:00:00 28.225 C 11.2 g/m*3 28.23 C 8.45833 km/h
41 04-08-2019 16:00:00 30.03333 C 10.48 g/m*3 30.03 C 9.4 km/h
42 04-08-2019 17:00:00 30.95833 C 10.24 g/m*3 30.96 C 8.45833 km/h
43 04-08-2019 18:00:00 30.79167 C 10.68 g/m*3 30.79 C 7.25 km/h
44 04-08-2019 19:00:00 28.75833 C 11.81 g/m*3 28.76 C 2.00833 km/h
45 04-08-2019 20:00:00 25.78333 C 12.49 g/m*3 25.78 C 0 km/h
46 04-08-2019 21:00:00 22.51667 C 12.06 g/m*3 22.52 C 0.26667 km/h
47 04-08-2019 22:00:00 21.95833 C 12.33 g/m*3 21.96 C 1.06667 km/h
48 04-08-2019 23:00:00 22.39167 C 12.16 g/m*3 22.39 C 2.53333 km/h
49 05-08-2019 00:00:00 22.875 C 11.8 g/m*3 22.88 C 1.46667 km/h
50 05-08-2019 01:00:00 21.65833 C 11.88 g/m*3 21.66 C 0 km/h
Sensor: Nr:Datum:Temp:Abs-Feuchte:Windchill:Wind:
Aussen-T/F 51 05-08-2019 02:00:00 20.28333 C 11.74 g/m*3 20.28 C 0 km/h
52 05-08-2019 03:00:00 19.6 C 11.76 g/m*3 19.6 C 0.26667 km/h
53 05-08-2019 04:00:00 19.31667 C 12.58 g/m*3 19.32 C 0 km/h
54 05-08-2019 05:00:00 19.325 C 12.96 g/m*3 19.33 C 1.74167 km/h
55 05-08-2019 06:00:00 18.28333 C 13.64 g/m*3 18.28 C 1.06667 km/h
56 05-08-2019 07:00:00 17.53333 C 13.79 g/m*3 17.53 C 1.46667 km/h
57 05-08-2019 08:00:00 17.64167 C 14.21 g/m*3 17.64 C 0.53333 km/h
58 05-08-2019 09:00:00 18.75 C 15.24 g/m*3 18.75 C 0.66667 km/h
59 05-08-2019 10:00:00 20.08333 C 16.08 g/m*3 20.08 C 1.06667 km/h
60 05-08-2019 11:00:00 21.99167 C 16.31 g/m*3 21.99 C 1.86667 km/h
61 05-08-2019 12:00:00 24.25 C 15.17 g/m*3 24.25 C 12.89167 km/h
62 05-08-2019 13:00:00 26 C 14.55 g/m*3 26 C 12.5 km/h
63 05-08-2019 14:00:00 27.11667 C 14.16 g/m*3 27.12 C 11.56667 km/h
64 05-08-2019 15:00:00 28.375 C 12.91 g/m*3 28.38 C 10.9 km/h
65 05-08-2019 16:00:00 28.875 C 11.79 g/m*3 28.88 C 12.23333 km/h
66 05-08-2019 17:00:00 28.225 C 11.59 g/m*3 28.23 C 11.43333 km/h
67 05-08-2019 18:00:00 27.7 C 11.28 g/m*3 27.7 C 9.15833 km/h
68 05-08-2019 19:00:00 26.7 C 11.75 g/m*3 26.7 C 5.89167 km/h
69 05-08-2019 20:00:00 25.1 C 12.4 g/m*3 25.1 C 1.6 km/h
70 05-08-2019 21:00:00 22.075 C 11.92 g/m*3 22.08 C 0 km/h
71 05-08-2019 22:00:00 20.53333 C 12.36 g/m*3 20.53 C 0 km/h
72 05-08-2019 23:00:00 19.28333 C 12.26 g/m*3 19.28 C 0 km/h
73 06-08-2019 00:00:00 18.00833 C 12.02 g/m*3 18.01 C 0 km/h
74 06-08-2019 01:00:00 17.10833 C 11.86 g/m*3 17.11 C 0 km/h
75 06-08-2019 02:00:00 17.00833 C 12 g/m*3 17.01 C 0 km/h
Sensor: Nr:Datum:Temp:Abs-Feuchte:Windchill:Wind:
Aussen-T/F 76 06-08-2019 03:00:00 17.45833 C 12.36 g/m*3 17.46 C 0.8 km/h
77 06-08-2019 04:00:00 17.20833 C 12.28 g/m*3 17.21 C 0.26667 km/h
78 06-08-2019 05:00:00 16.60833 C 12.11 g/m*3 16.61 C 0.13333 km/h
79 06-08-2019 06:00:00 16.66667 C 12.28 g/m*3 16.67 C 0.13333 km/h
80 06-08-2019 07:00:00 17.83333 C 12.66 g/m*3 17.83 C 2.40833 km/h
81 06-08-2019 08:00:00 18.675 C 12.96 g/m*3 18.68 C 3.475 km/h
82 06-08-2019 09:00:00 20.1 C 13.3 g/m*3 20.1 C 6.29167 km/h
83 06-08-2019 10:00:00 19.91667 C 14.4 g/m*3 19.92 C 2.14167 km/h
84 06-08-2019 11:00:00 19.65 C 15.1 g/m*3 19.65 C 0.8 km/h
85 06-08-2019 12:00:00 21.31667 C 15.35 g/m*3 21.32 C 4.40833 km/h
86 06-08-2019 13:00:00 22.325 C 15.31 g/m*3 22.33 C 7.66667 km/h
87 06-08-2019 14:00:00 23.61667 C 14.87 g/m*3 23.62 C 13.43333 km/h
88 06-08-2019 15:00:00 24.725 C 14.68 g/m*3 24.73 C 11.825 km/h
89 06-08-2019 16:00:00 25.39167 C 14.57 g/m*3 25.39 C 10.63333 km/h
90 06-08-2019 17:00:00 26.4 C 14.31 g/m*3 26.4 C 10.09167 km/h
91 06-08-2019 18:00:00 25.20833 C 14.4 g/m*3 25.21 C 4.84167 km/h
92 06-08-2019 19:00:00 22.54167 C 15.37 g/m*3 22.54 C 6.16667 km/h
93 06-08-2019 20:00:00 19.05 C 14.78 g/m*3 19.05 C 0.13333 km/h
94 06-08-2019 21:00:00 18.00833 C 14.32 g/m*3 18.01 C 0.53333 km/h
95 06-08-2019 22:00:00 17.51667 C 14.03 g/m*3 17.52 C 0.13333 km/h
96 06-08-2019 23:00:00 17.08333 C 13.8 g/m*3 17.08 C 1.075 km/h
97 07-08-2019 00:00:00 16.68333 C 13.49 g/m*3 16.68 C 0.13333 km/h
98 07-08-2019 01:00:00 16.3 C 13.25 g/m*3 16.3 C 0 km/h
99 07-08-2019 02:00:00 16.45833 C 13.45 g/m*3 16.46 C 1.2 km/h
100 07-08-2019 03:00:00 16.58333 C 13.58 g/m*3 16.58 C 0 km/h
Sensor: Nr:Datum:Temp:Abs-Feuchte:Windchill:Wind:
Aussen-T/F 101 07-08-2019 04:00:00 16.63333 C 13.73 g/m*3 16.63 C 0 km/h
102 07-08-2019 05:00:00 16.66667 C 13.76 g/m*3 16.67 C 0 km/h
103 07-08-2019 06:00:00 16.875 C 13.93 g/m*3 16.88 C 0.13333 km/h
104 07-08-2019 07:00:00 17.25 C 14.25 g/m*3 17.25 C 0.26667 km/h
105 07-08-2019 08:00:00 17.75833 C 14.69 g/m*3 17.76 C 0.66667 km/h
106 07-08-2019 09:00:00 18.25 C 15.12 g/m*3 18.25 C 4.15 km/h
107 07-08-2019 10:00:00 18.96667 C 15.68 g/m*3 18.97 C 1.6 km/h
108 07-08-2019 11:00:00 19.725 C 15.83 g/m*3 19.73 C 2.275 km/h
109 07-08-2019 12:00:00 20.83333 C 15.33 g/m*3 20.83 C 3.88333 km/h
110 07-08-2019 13:00:00 21.85833 C 14.69 g/m*3 21.86 C 5.76667 km/h
111 07-08-2019 14:00:00 22.525 C 15.07 g/m*3 22.53 C 7.375 km/h
112 07-08-2019 15:00:00 22.59167 C 14.64 g/m*3 22.59 C 10.48333 km/h
113 07-08-2019 16:00:00 22.08333 C 14.2 g/m*3 22.08 C 9.7 km/h
114 07-08-2019 17:00:00 22.53333 C 14.26 g/m*3 22.53 C 8.35 km/h
115 07-08-2019 18:00:00 23.35833 C 14.35 g/m*3 23.36 C 8.75 km/h
116 07-08-2019 19:00:00 22.38333 C 14.63 g/m*3 22.38 C 4.03333 km/h
117 07-08-2019 20:00:00 20.05833 C 14.48 g/m*3 20.06 C 2.55 km/h
118 07-08-2019 21:00:00 18.05 C 13.36 g/m*3 18.05 C 0.8 km/h
119 07-08-2019 22:00:00 16.74167 C 12.79 g/m*3 16.74 C 0.53333 km/h
120 07-08-2019 23:00:00 16.64167 C 12.63 g/m*3 16.64 C 1.06667 km/h
121 08-08-2019 00:00:00 15.76667 C 12.28 g/m*3 15.77 C 1.88333 km/h
122 08-08-2019 01:00:00 16.35 C 12.8 g/m*3 16.35 C 1.6 km/h
123 08-08-2019 02:00:00 16.45 C 12.88 g/m*3 16.45 C 0.66667 km/h
124 08-08-2019 03:00:00 16.44167 C 12.86 g/m*3 16.44 C 2.00833 km/h
125 08-08-2019 04:00:00 16.06667 C 12.68 g/m*3 16.07 C 0.13333 km/h
Sensor: Nr:Datum:Temp:Abs-Feuchte:Windchill:Wind:
Aussen-T/F 126 08-08-2019 05:00:00 15.31667 C 12.19 g/m*3 15.32 C 0.53333 km/h
127 08-08-2019 06:00:00 15.7 C 12.58 g/m*3 15.7 C 4.40833 km/h
128 08-08-2019 07:00:00 15.95 C 12.71 g/m*3 15.95 C 1.73333 km/h
129 08-08-2019 08:00:00 17.05833 C 13.24 g/m*3 17.06 C 8.75833 km/h
130 08-08-2019 09:00:00 18.55833 C 13.35 g/m*3 18.56 C 8.20833 km/h
131 08-08-2019 10:00:00 20.05833 C 12.66 g/m*3 20.06 C 11.29167 km/h
132 08-08-2019 11:00:00 21.74167 C 12.57 g/m*3 21.74 C 11.825 km/h
133 08-08-2019 12:00:00 22.99167 C 12.57 g/m*3 22.99 C 15.56667 km/h
134 08-08-2019 13:00:00 24.025 C 12.51 g/m*3 24.03 C 11.95833 km/h
135 08-08-2019 14:00:00 24.20833 C 12.62 g/m*3 24.21 C 10.1 km/h
136 08-08-2019 15:00:00 24.51667 C 12.81 g/m*3 24.52 C 7.51667 km/h
137 08-08-2019 16:00:00 26.58333 C 12.93 g/m*3 26.58 C 12.1 km/h
138 08-08-2019 17:00:00 27.18333 C 12.52 g/m*3 27.18 C 11.15833 km/h
139 08-08-2019 18:00:00 27.46667 C 12.5 g/m*3 27.47 C 8.875 km/h
140 08-08-2019 19:00:00 25.43333 C 14.64 g/m*3 25.43 C 0.94167 km/h
141 08-08-2019 20:00:00 23.575 C 14.35 g/m*3 23.58 C 0 km/h
142 08-08-2019 21:00:00 20.625 C 13.7 g/m*3 20.63 C 0 km/h
143 08-08-2019 22:00:00 19.15833 C 13.68 g/m*3 19.16 C 0 km/h
144 08-08-2019 23:00:00 18.16667 C 13.57 g/m*3 18.17 C 0 km/h
145 09-08-2019 00:00:00 17.15833 C 13.06 g/m*3 17.16 C 0 km/h
146 09-08-2019 01:00:00 16.25833 C 12.63 g/m*3 16.26 C 0 km/h
147 09-08-2019 02:00:00 15.875 C 12.44 g/m*3 15.88 C 0 km/h
148 09-08-2019 03:00:00 15.21667 C 12.05 g/m*3 15.22 C 0 km/h
149 09-08-2019 04:00:00 14.725 C 11.81 g/m*3 14.73 C 0 km/h
150 09-08-2019 05:00:00 14.44167 C 11.66 g/m*3 14.44 C 0 km/h
Sensor: Nr:Datum:Temp:Abs-Feuchte:Windchill:Wind:
Aussen-T/F 151 09-08-2019 06:00:00 14.56667 C 11.86 g/m*3 14.57 C 0 km/h
152 09-08-2019 07:00:00 15.40833 C 12.53 g/m*3 15.41 C 0 km/h
153 09-08-2019 08:00:00 16.44167 C 13.04 g/m*3 16.44 C 0.53333 km/h
154 09-08-2019 09:00:00 18.26667 C 13.71 g/m*3 18.27 C 0 km/h
155 09-08-2019 10:00:00 20.60833 C 14.46 g/m*3 20.61 C 0 km/h
156 09-08-2019 11:00:00 23.8 C 15.4 g/m*3 23.8 C 0.26667 km/h
157 09-08-2019 12:00:00 25.26667 C 15.38 g/m*3 25.27 C 0.26667 km/h
158 09-08-2019 13:00:00 25.275 C 15.53 g/m*3 25.28 C 0.13333 km/h
159 09-08-2019 14:00:00 24.75 C 17.55 g/m*3 24.75 C 0 km/h
160 09-08-2019 15:00:00 24.43333 C 18.3 g/m*3 24.43 C 0.26667 km/h
161 09-08-2019 16:00:00 27.25 C 18.24 g/m*3 27.25 C 4.55833 km/h
162 09-08-2019 17:00:00 25.45 C 19.24 g/m*3 25.45 C 0.8 km/h
163 09-08-2019 18:00:00 22.78333 C 18.05 g/m*3 22.78 C 1.33333 km/h
164 09-08-2019 19:00:00 21.5 C 17.55 g/m*3 21.5 C 8.59167 km/h
165 09-08-2019 20:00:00 19.63333 C 15.91 g/m*3 19.63 C 0.93333 km/h
166 09-08-2019 21:00:00 19.31667 C 15.86 g/m*3 19.32 C 0.93333 km/h
167 09-08-2019 22:00:00 19.30833 C 15.93 g/m*3 19.31 C 0.26667 km/h
168 09-08-2019 23:00:00 18.86667 C 15.52 g/m*3 18.87 C 0.13333 km/h
169 10-08-2019 00:00:00 18.775 C 15.53 g/m*3 18.77 C 0.26667 km/h
170 10-08-2019 01:00:00 18.73333 C 15.55 g/m*3 18.73 C 0 km/h
171 10-08-2019 02:00:00 18.50833 C 15.35 g/m*3 18.51 C 0 km/h
172 10-08-2019 03:00:00 18.29167 C 15.16 g/m*3 18.29 C 0.4 km/h
173 10-08-2019 04:00:00 18.11667 C 15 g/m*3 18.12 C 0 km/h
174 10-08-2019 05:00:00 17.53333 C 14.49 g/m*3 17.53 C 0 km/h
175 10-08-2019 06:00:00 17.45 C 14.42 g/m*3 17.45 C 0 km/h
Sensor: Nr:Datum:Temp:Abs-Feuchte:Windchill:Wind:
Aussen-T/F 176 10-08-2019 07:00:00 17.33333 C 14.32 g/m*3 17.33 C 4.96667 km/h
177 10-08-2019 08:00:00 17.41667 C 14.11 g/m*3 17.42 C 11.01667 km/h
178 10-08-2019 09:00:00 19.125 C 14.12 g/m*3 19.13 C 14.76667 km/h
179 10-08-2019 10:00:00 20.36667 C 14.04 g/m*3 20.37 C 14.36667 km/h
180 10-08-2019 11:00:00 21.43333 C 13.96 g/m*3 21.43 C 13.7 km/h
181 10-08-2019 12:00:00 22.38333 C 13.69 g/m*3 22.38 C 16.23333 km/h
182 10-08-2019 13:00:00 23.26667 C 13.23 g/m*3 23.27 C 16.76667 km/h
183 10-08-2019 14:00:00 23.83333 C 13.09 g/m*3 23.83 C 17.43333 km/h
184 10-08-2019 15:00:00 24.99167 C 12.75 g/m*3 24.99 C 17.43333 km/h
185 10-08-2019 16:00:00 25.24167 C 12.48 g/m*3 25.24 C 15.29167 km/h
186 10-08-2019 17:00:00 26.29167 C 12.19 g/m*3 26.29 C 15.3 km/h
187 10-08-2019 18:00:00 25.99167 C 11.94 g/m*3 25.99 C 13.43333 km/h
188 10-08-2019 19:00:00 25.00833 C 11.44 g/m*3 25.01 C 10.89167 km/h
189 10-08-2019 20:00:00 22.63333 C 12.33 g/m*3 22.63 C 2.275 km/h
190 10-08-2019 21:00:00 19.41667 C 12.14 g/m*3 19.42 C 0.26667 km/h
191 10-08-2019 22:00:00 17.71667 C 11.89 g/m*3 17.72 C 0 km/h
192 10-08-2019 23:00:00 16.45833 C 11.49 g/m*3 16.46 C 0.13333 km/h
193 11-08-2019 00:00:00 15.75833 C 11.39 g/m*3 15.76 C 0 km/h
194 11-08-2019 01:00:00 15.375 C 11.46 g/m*3 15.38 C 0 km/h
195 11-08-2019 02:00:00 15.7 C 11.57 g/m*3 15.7 C 0 km/h
196 11-08-2019 03:00:00 15.20833 C 11.23 g/m*3 15.21 C 0 km/h
197 11-08-2019 04:00:00 14.43333 C 10.94 g/m*3 14.43 C 0 km/h
198 11-08-2019 05:00:00 13.58333 C 10.6 g/m*3 13.58 C 0 km/h
199 11-08-2019 06:00:00 13.40833 C 10.78 g/m*3 13.41 C 0.26667 km/h
200 11-08-2019 07:00:00 14.04167 C 11.16 g/m*3 14.04 C 0 km/h
Sensor: Nr:Datum:Temp:Abs-Feuchte:Windchill:Wind:
Aussen-T/F 201 11-08-2019 08:00:00 14.9 C 11.64 g/m*3 14.9 C 0 km/h
202 11-08-2019 09:00:00 16.21667 C 12.02 g/m*3 16.22 C 0.53333 km/h
203 11-08-2019 10:00:00 19.375 C 11.62 g/m*3 19.38 C 9.00833 km/h
204 11-08-2019 11:00:00 21.26667 C 11.02 g/m*3 21.27 C 11.825 km/h
205 11-08-2019 12:00:00 22.09167 C 10.89 g/m*3 22.09 C 10.75833 km/h
206 11-08-2019 13:00:00 22.775 C 10.37 g/m*3 22.78 C 14.5 km/h
207 11-08-2019 14:00:00 22.89167 C 10.74 g/m*3 22.89 C 9.14167 km/h
208 11-08-2019 15:00:00 21.50833 C 11.57 g/m*3 21.51 C 3.2 km/h
209 11-08-2019 16:00:00 20.05 C 12.13 g/m*3 20.05 C 3.34167 km/h
210 11-08-2019 17:00:00 17.18333 C 12.7 g/m*3 17.18 C 2.26667 km/h
211 11-08-2019 18:00:00 16.475 C 12.68 g/m*3 16.48 C 1.73333 km/h
212 11-08-2019 19:00:00 16.075 C 12.27 g/m*3 16.08 C 1.06667 km/h
213 11-08-2019 20:00:00 15.775 C 12.23 g/m*3 15.78 C 0.26667 km/h
214 11-08-2019 21:00:00 15.23333 C 11.93 g/m*3 15.23 C 0.8 km/h
215 11-08-2019 22:00:00 14.3 C 11.28 g/m*3 14.3 C 0.66667 km/h
216 11-08-2019 23:00:00 14.24167 C 11.43 g/m*3 14.24 C 1.46667 km/h
217 12-08-2019 00:00:00 14.85833 C 11.77 g/m*3 14.86 C 2.4 km/h
218 12-08-2019 01:00:00 14.325 C 11.33 g/m*3 14.33 C 1.33333 km/h
219 12-08-2019 02:00:00 13.66667 C 11.04 g/m*3 13.67 C 0.26667 km/h
220 12-08-2019 03:00:00 13.125 C 10.74 g/m*3 13.13 C 0 km/h
221 12-08-2019 04:00:00 12.89167 C 10.7 g/m*3 12.89 C 0 km/h
222 12-08-2019 05:00:00 12.675 C 10.56 g/m*3 12.68 C 0 km/h
223 12-08-2019 06:00:00 12.69167 C 10.63 g/m*3 12.69 C 0 km/h
224 12-08-2019 07:00:00 13.05833 C 10.93 g/m*3 13.06 C 0 km/h
225 12-08-2019 08:00:00 13.5 C 11.23 g/m*3 13.5 C 0 km/h
Sensor: Nr:Datum:Temp:Abs-Feuchte:Windchill:Wind:
Aussen-T/F 226 12-08-2019 09:00:00 15.05 C 11.91 g/m*3 15.05 C 3.075 km/h
227 12-08-2019 10:00:00 17.65 C 12.41 g/m*3 17.65 C 6.58333 km/h
228 12-08-2019 11:00:00 20.08333 C 12.61 g/m*3 20.08 C 7.525 km/h
229 12-08-2019 12:00:00 21.275 C 12.22 g/m*3 21.28 C 8.60833 km/h
230 12-08-2019 13:00:00 21.775 C 11.64 g/m*3 21.78 C 10.89167 km/h
231 12-08-2019 14:00:00 22.55 C 12.07 g/m*3 22.55 C 11.3 km/h
232 12-08-2019 15:00:00 23.475 C 11.74 g/m*3 23.48 C 12.625 km/h
233 12-08-2019 16:00:00 22.54167 C 11.71 g/m*3 22.54 C 14.5 km/h
234 12-08-2019 17:00:00 17.89167 C 11.79 g/m*3 17.89 C 5.89167 km/h
235 12-08-2019 18:00:00 15.925 C 12.21 g/m*3 15.93 C 0.4 km/h
236 12-08-2019 19:00:00 15.925 C 12.48 g/m*3 15.93 C 0.53333 km/h
237 12-08-2019 20:00:00 15.54167 C 12.21 g/m*3 15.54 C 0.26667 km/h
238 12-08-2019 21:00:00 15.19167 C 12.14 g/m*3 15.19 C 0.26667 km/h
239 12-08-2019 22:00:00 14.975 C 12.04 g/m*3 14.98 C 0.66667 km/h
240 12-08-2019 23:00:00 14.01667 C 11.19 g/m*3 14.02 C 0.53333 km/h
241 13-08-2019 00:00:00 13.55833 C 11.06 g/m*3 13.56 C 0.26667 km/h
242 13-08-2019 01:00:00 13.025 C 10.71 g/m*3 13.03 C 0.26667 km/h
243 13-08-2019 02:00:00 12.83333 C 10.69 g/m*3 12.83 C 0.53333 km/h
244 13-08-2019 03:00:00 12.9 C 10.77 g/m*3 12.9 C 0 km/h
245 13-08-2019 04:00:00 13.275 C 11.05 g/m*3 13.28 C 2.14167 km/h
246 13-08-2019 05:00:00 13.18333 C 10.9 g/m*3 13.18 C 1.475 km/h
247 13-08-2019 06:00:00 12.75 C 10.63 g/m*3 12.75 C 0.53333 km/h
248 13-08-2019 07:00:00 12.9 C 10.74 g/m*3 12.9 C 2.13333 km/h
249 13-08-2019 08:00:00 13.39167 C 10.78 g/m*3 13.39 C 6.85 km/h
250 13-08-2019 09:00:00 14.85 C 11.03 g/m*3 14.85 C 6.96667 km/h
Sensor: Nr:Datum:Temp:Abs-Feuchte:Windchill:Wind:
Aussen-T/F 251 13-08-2019 10:00:00 16.225 C 10.31 g/m*3 16.23 C 10.08333 km/h
252 13-08-2019 11:00:00 17.175 C 9.83 g/m*3 17.18 C 10.625 km/h
253 13-08-2019 12:00:00 18.13333 C 9.82 g/m*3 18.13 C 11.15833 km/h
254 13-08-2019 13:00:00 19.025 C 9.08 g/m*3 19.02 C 10.76667 km/h
255 13-08-2019 14:00:00 19.875 C 9.06 g/m*3 19.88 C 11.01667 km/h
256 13-08-2019 15:00:00 21.275 C 9.37 g/m*3 21.28 C 13.56667 km/h
257 13-08-2019 16:00:00 21.38333 C 9.54 g/m*3 21.38 C 11.15833 km/h
258 13-08-2019 17:00:00 21.25833 C 9.39 g/m*3 21.26 C 9.41667 km/h
259 13-08-2019 18:00:00 21.175 C 9.59 g/m*3 21.18 C 8.73333 km/h
260 13-08-2019 19:00:00 18.53333 C 10.26 g/m*3 18.53 C 9.39167 km/h
261 13-08-2019 20:00:00 14.91667 C 11.06 g/m*3 14.92 C 0.93333 km/h
262 13-08-2019 21:00:00 13.99167 C 11.01 g/m*3 13.99 C 0 km/h
263 13-08-2019 22:00:00 13.63333 C 10.92 g/m*3 13.63 C 0 km/h
264 13-08-2019 23:00:00 13.36667 C 10.79 g/m*3 13.37 C 0 km/h
265 14-08-2019 00:00:00 13.05 C 10.59 g/m*3 13.05 C 0 km/h
266 14-08-2019 01:00:00 12.61667 C 10.32 g/m*3 12.62 C 0 km/h
267 14-08-2019 02:00:00 12.10833 C 10 g/m*3 12.11 C 0 km/h
268 14-08-2019 03:00:00 11.93333 C 9.98 g/m*3 11.93 C 0 km/h
269 14-08-2019 04:00:00 11.43333 C 9.68 g/m*3 11.43 C 0 km/h
270 14-08-2019 05:00:00 11.00833 C 9.51 g/m*3 11.01 C 0 km/h
271 14-08-2019 06:00:00 10.61667 C 9.3 g/m*3 10.62 C 0 km/h
272 14-08-2019 07:00:00 10.61667 C 9.38 g/m*3 10.62 C 0 km/h
273 14-08-2019 08:00:00 11.4 C 9.89 g/m*3 11.4 C 2.01667 km/h
274 14-08-2019 09:00:00 13.28333 C 10.79 g/m*3 13.28 C 5.625 km/h
275 14-08-2019 10:00:00 14.26667 C 11.26 g/m*3 14.27 C 0.13333 km/h
Sensor: Nr:Datum:Temp:Abs-Feuchte:Windchill:Wind:
Aussen-T/F 276 14-08-2019 11:00:00 15.66667 C 11.12 g/m*3 15.67 C 2 km/h
277 14-08-2019 12:00:00 18.1 C 9.7 g/m*3 18.1 C 8.70833 km/h
278 14-08-2019 13:00:00 19.59167 C 9.28 g/m*3 19.59 C 9.00833 km/h
279 14-08-2019 14:00:00 21.08333 C 9.23 g/m*3 21.08 C 11.00833 km/h
280 14-08-2019 15:00:00 22.60833 C 9.9 g/m*3 22.61 C 10.475 km/h
281 14-08-2019 16:00:00 23.74167 C 9.92 g/m*3 23.74 C 11.69167 km/h
282 14-08-2019 17:00:00 24.44167 C 9.98 g/m*3 24.44 C 13.43333 km/h
283 14-08-2019 18:00:00 24 C 10.17 g/m*3 24 C 11.96667 km/h
284 14-08-2019 19:00:00 22.31667 C 11.17 g/m*3 22.32 C 5.1 km/h
285 14-08-2019 20:00:00 19.675 C 11.46 g/m*3 19.68 C 0 km/h
286 14-08-2019 21:00:00 18.1 C 11.45 g/m*3 18.1 C 0 km/h
287 14-08-2019 22:00:00 17.63333 C 11.45 g/m*3 17.63 C 0 km/h
288 14-08-2019 23:00:00 17.4 C 11.34 g/m*3 17.4 C 0 km/h
289 15-08-2019 00:00:00 17.35833 C 11.32 g/m*3 17.36 C 0.26667 km/h
290 15-08-2019 01:00:00 17.38333 C 11.47 g/m*3 17.38 C 0.13333 km/h
291 15-08-2019 02:00:00 16.2 C 12.19 g/m*3 16.2 C 0.66667 km/h
292 15-08-2019 03:00:00 15.275 C 12.05 g/m*3 15.28 C 0 km/h
293 15-08-2019 04:00:00 14.90833 C 11.94 g/m*3 14.91 C 0.13333 km/h
294 15-08-2019 05:00:00 14.84167 C 11.96 g/m*3 14.84 C 0 km/h
295 15-08-2019 06:00:00 14.96667 C 12.14 g/m*3 14.97 C 0.4 km/h
296 15-08-2019 07:00:00 15.6 C 12.28 g/m*3 15.6 C 3.35833 km/h
297 15-08-2019 08:00:00 17.59167 C 12.58 g/m*3 17.59 C 11.025 km/h
298 15-08-2019 09:00:00 18.48333 C 12.88 g/m*3 18.48 C 11.025 km/h
299 15-08-2019 10:00:00 19.14167 C 13.31 g/m*3 19.14 C 12.76667 km/h
300 15-08-2019 11:00:00 19.28333 C 13.52 g/m*3 19.28 C 12.49167 km/h
Sensor: Nr:Datum:Temp:Abs-Feuchte:Windchill:Wind:
Aussen-T/F 301 15-08-2019 12:00:00 19.90833 C 13.69 g/m*3 19.91 C 12.89167 km/h
302 15-08-2019 13:00:00 18.94167 C 14.4 g/m*3 18.94 C 8.73333 km/h
303 15-08-2019 14:00:00 19.73333 C 14.63 g/m*3 19.73 C 10.20833 km/h
304 15-08-2019 15:00:00 20.79167 C 14.72 g/m*3 20.79 C 12.88333 km/h
305 15-08-2019 16:00:00 19.325 C 14.88 g/m*3 19.33 C 11.95833 km/h
306 15-08-2019 17:00:00 17.3 C 13.69 g/m*3 17.3 C 4.41667 km/h
307 15-08-2019 18:00:00 16.975 C 13.61 g/m*3 16.98 C 2.66667 km/h
308 15-08-2019 19:00:00 17.25 C 13.89 g/m*3 17.25 C 1.2 km/h
309 15-08-2019 20:00:00 17.09167 C 13.76 g/m*3 17.09 C 1.33333 km/h
310 15-08-2019 21:00:00 16.40833 C 13.23 g/m*3 16.41 C 2.54167 km/h
311 15-08-2019 22:00:00 15.93333 C 12.83 g/m*3 15.93 C 1.46667 km/h
312 15-08-2019 23:00:00 15.54167 C 12.59 g/m*3 15.54 C 1.06667 km/h
313 16-08-2019 00:00:00 15.29167 C 12.41 g/m*3 15.29 C 0.53333 km/h
314 16-08-2019 01:00:00 14.63333 C 11.94 g/m*3 14.63 C 0.13333 km/h
315 16-08-2019 02:00:00 14.575 C 11.99 g/m*3 14.58 C 0.8 km/h
316 16-08-2019 03:00:00 14.64167 C 12.04 g/m*3 14.64 C 0.4 km/h
317 16-08-2019 04:00:00 14.08333 C 11.64 g/m*3 14.08 C 0 km/h
318 16-08-2019 05:00:00 13.575 C 11.31 g/m*3 13.58 C 0.66667 km/h
319 16-08-2019 06:00:00 13.69167 C 11.48 g/m*3 13.69 C 2.26667 km/h
320 16-08-2019 07:00:00 14.18333 C 11.78 g/m*3 14.18 C 2.54167 km/h
321 16-08-2019 08:00:00 14.45833 C 11.8 g/m*3 14.46 C 5.1 km/h
322 16-08-2019 09:00:00 15.54167 C 11.89 g/m*3 15.54 C 9.29167 km/h
323 16-08-2019 10:00:00 16.26667 C 11.87 g/m*3 16.27 C 12.36667 km/h
324 16-08-2019 11:00:00 17.1 C 12 g/m*3 17.1 C 11.56667 km/h
325 16-08-2019 12:00:00 18.43333 C 12.04 g/m*3 18.43 C 12.9 km/h
Sensor: Nr:Datum:Temp:Abs-Feuchte:Windchill:Wind:
Aussen-T/F 326 16-08-2019 13:00:00 19.65 C 11.98 g/m*3 19.65 C 16.5 km/h
327 16-08-2019 14:00:00 20.4 C 11.97 g/m*3 20.4 C 12.76667 km/h
328 16-08-2019 15:00:00 21.90833 C 11.78 g/m*3 21.91 C 10.9 km/h
329 16-08-2019 16:00:00 23.63333 C 11.61 g/m*3 23.63 C 11.03333 km/h
330 16-08-2019 17:00:00 24.475 C 11.58 g/m*3 24.48 C 11.41667 km/h
331 16-08-2019 18:00:00 24.43333 C 11.61 g/m*3 24.43 C 9.94167 km/h
332 16-08-2019 19:00:00 23.41667 C 12.24 g/m*3 23.42 C 6.325 km/h
333 16-08-2019 20:00:00 20.075 C 12.43 g/m*3 20.08 C 0.13333 km/h
334 16-08-2019 21:00:00 17.75833 C 12.16 g/m*3 17.76 C 0 km/h
335 16-08-2019 22:00:00 16.88333 C 12.19 g/m*3 16.88 C 0 km/h
336 16-08-2019 23:00:00 16.23333 C 11.96 g/m*3 16.23 C 0 km/h
337 17-08-2019 00:00:00 15.69167 C 11.75 g/m*3 15.69 C 0 km/h
338 17-08-2019 01:00:00 15.86667 C 11.93 g/m*3 15.87 C 0 km/h
339 17-08-2019 02:00:00 15.76667 C 11.91 g/m*3 15.77 C 0 km/h
340 17-08-2019 03:00:00 15.76667 C 12.24 g/m*3 15.77 C 0 km/h
341 17-08-2019 04:00:00 15.69167 C 12.47 g/m*3 15.69 C 0 km/h
342 17-08-2019 05:00:00 15.63333 C 12.53 g/m*3 15.63 C 0 km/h
343 17-08-2019 06:00:00 15.65833 C 12.55 g/m*3 15.66 C 0 km/h
344 17-08-2019 07:00:00 16.13333 C 12.91 g/m*3 16.13 C 0.26667 km/h
345 17-08-2019 08:00:00 16.95833 C 13.1 g/m*3 16.96 C 3.075 km/h
346 17-08-2019 09:00:00 18.66667 C 12.81 g/m*3 18.67 C 7.76667 km/h
347 17-08-2019 10:00:00 19.01667 C 13.23 g/m*3 19.02 C 2.13333 km/h
348 17-08-2019 11:00:00 18.59167 C 13.81 g/m*3 18.59 C 1.60833 km/h
349 17-08-2019 12:00:00 19.275 C 14.11 g/m*3 19.27 C 2.14167 km/h
350 17-08-2019 13:00:00 20.68333 C 13.73 g/m*3 20.68 C 12.625 km/h
Sensor: Nr:Datum:Temp:Abs-Feuchte:Windchill:Wind:
Aussen-T/F 351 17-08-2019 14:00:00 21 C 13.72 g/m*3 21 C 10.35 km/h
352 17-08-2019 15:00:00 21.31667 C 13.96 g/m*3 21.32 C 8.34167 km/h
353 17-08-2019 16:00:00 21 C 13.91 g/m*3 21 C 8.85833 km/h
354 17-08-2019 17:00:00 20.44167 C 13.82 g/m*3 20.44 C 4.55833 km/h
355 17-08-2019 18:00:00 19.975 C 14.34 g/m*3 19.98 C 0.93333 km/h
356 17-08-2019 19:00:00 19.125 C 14.49 g/m*3 19.13 C 0.4 km/h
357 17-08-2019 20:00:00 18.325 C 14.26 g/m*3 18.33 C 0.13333 km/h
358 17-08-2019 21:00:00 17.84167 C 14.1 g/m*3 17.84 C 0.26667 km/h
359 17-08-2019 22:00:00 17.74167 C 14.22 g/m*3 17.74 C 0.4 km/h
360 17-08-2019 23:00:00 17.525 C 14.13 g/m*3 17.52 C 0.13333 km/h
361 18-08-2019 00:00:00 17.4 C 14.08 g/m*3 17.4 C 0 km/h
362 18-08-2019 01:00:00 17.38333 C 14.15 g/m*3 17.38 C 0 km/h
363 18-08-2019 02:00:00 17.225 C 14.08 g/m*3 17.23 C 0 km/h
364 18-08-2019 03:00:00 17.2 C 14.06 g/m*3 17.2 C 0 km/h
365 18-08-2019 04:00:00 17.18333 C 14.04 g/m*3 17.18 C 0 km/h
366 18-08-2019 05:00:00 17.3 C 14.25 g/m*3 17.3 C 0 km/h
367 18-08-2019 06:00:00 17.26667 C 14.26 g/m*3 17.27 C 0 km/h
368 18-08-2019 07:00:00 17.34167 C 14.33 g/m*3 17.34 C 0 km/h
369 18-08-2019 08:00:00 17.93333 C 14.84 g/m*3 17.93 C 0 km/h
370 18-08-2019 09:00:00 18.85833 C 15.72 g/m*3 18.86 C 0 km/h
371 18-08-2019 10:00:00 19.93333 C 16.77 g/m*3 19.93 C 1.33333 km/h
372 18-08-2019 11:00:00 22.19167 C 18.07 g/m*3 22.19 C 9.00833 km/h
373 18-08-2019 12:00:00 24.075 C 16.99 g/m*3 24.08 C 17.03333 km/h
374 18-08-2019 13:00:00 24.4 C 16.88 g/m*3 24.4 C 15.98333 km/h
375 18-08-2019 14:00:00 24.725 C 16.96 g/m*3 24.73 C 17.84167 km/h
Sensor: Nr:Datum:Temp:Abs-Feuchte:Windchill:Wind:
Aussen-T/F 376 18-08-2019 15:00:00 24.7 C 17.16 g/m*3 24.7 C 15.03333 km/h
377 18-08-2019 16:00:00 24.99167 C 16.74 g/m*3 24.99 C 14.9 km/h
378 18-08-2019 17:00:00 24.35 C 16.14 g/m*3 24.35 C 15.83333 km/h
379 18-08-2019 18:00:00 20.49167 C 16.3 g/m*3 20.49 C 1.33333 km/h
380 18-08-2019 19:00:00 20.00833 C 16.22 g/m*3 20.01 C 1.2 km/h
381 18-08-2019 20:00:00 19.45833 C 15.85 g/m*3 19.46 C 1.86667 km/h
382 18-08-2019 21:00:00 18.8 C 15.19 g/m*3 18.8 C 0.93333 km/h
383 18-08-2019 22:00:00 17.65 C 14.22 g/m*3 17.65 C 0.8 km/h
384 18-08-2019 23:00:00 16.59167 C 13.41 g/m*3 16.59 C 1.06667 km/h
385 19-08-2019 00:00:00 16.14167 C 13.19 g/m*3 16.14 C 0.53333 km/h
386 19-08-2019 01:00:00 16.10833 C 13.17 g/m*3 16.11 C 0.93333 km/h
387 19-08-2019 02:00:00 15.81667 C 12.94 g/m*3 15.82 C 0.26667 km/h
388 19-08-2019 03:00:00 15.38333 C 12.61 g/m*3 15.38 C 0 km/h
389 19-08-2019 04:00:00 14.78333 C 12.17 g/m*3 14.78 C 0 km/h
390 19-08-2019 05:00:00 15.125 C 12.53 g/m*3 15.13 C 0.13333 km/h
391 19-08-2019 06:00:00 14.61667 C 12.13 g/m*3 14.62 C 0 km/h
392 19-08-2019 07:00:00 15.025 C 12.48 g/m*3 15.03 C 2 km/h
393 19-08-2019 08:00:00 15.65833 C 12.95 g/m*3 15.66 C 0.93333 km/h
394 19-08-2019 09:00:00 15.89167 C 13.07 g/m*3 15.89 C 6.03333 km/h
395 19-08-2019 10:00:00 16.63333 C 12.41 g/m*3 16.63 C 7.79167 km/h
396 19-08-2019 11:00:00 18.55833 C 11.87 g/m*3 18.56 C 10.36667 km/h
397 19-08-2019 12:00:00 20.275 C 11.33 g/m*3 20.27 C 11.95833 km/h
398 19-08-2019 13:00:00 21.525 C 11.02 g/m*3 21.53 C 11.69167 km/h
399 19-08-2019 14:00:00 22.79167 C 10.93 g/m*3 22.79 C 13.7 km/h
400 19-08-2019 15:00:00 23.46667 C 10.69 g/m*3 23.47 C 13.55833 km/h
Sensor: Nr:Datum:Temp:Abs-Feuchte:Windchill:Wind:
Aussen-T/F 401 19-08-2019 16:00:00 23.78333 C 10.89 g/m*3 23.78 C 11.425 km/h
402 19-08-2019 17:00:00 24.025 C 10.55 g/m*3 24.03 C 11.68333 km/h
403 19-08-2019 18:00:00 23.51667 C 10.69 g/m*3 23.52 C 7.65 km/h
404 19-08-2019 19:00:00 22.95833 C 11.55 g/m*3 22.96 C 4.7 km/h
405 19-08-2019 20:00:00 19.71667 C 11.84 g/m*3 19.72 C 0.8 km/h
406 19-08-2019 21:00:00 17.30833 C 11.03 g/m*3 17.31 C 0 km/h
407 19-08-2019 22:00:00 16.51667 C 11.29 g/m*3 16.52 C 0 km/h
408 19-08-2019 23:00:00 15.21667 C 10.86 g/m*3 15.22 C 0.13333 km/h
409 20-08-2019 00:00:00 13.975 C 10.43 g/m*3 13.98 C 0 km/h
410 20-08-2019 01:00:00 13.21667 C 10.16 g/m*3 13.22 C 0.53333 km/h
411 20-08-2019 02:00:00 12.825 C 10.09 g/m*3 12.83 C 2.13333 km/h
412 20-08-2019 03:00:00 12.21667 C 9.79 g/m*3 12.22 C 0 km/h
413 20-08-2019 04:00:00 11.34167 C 9.46 g/m*3 11.34 C 0.4 km/h
414 20-08-2019 05:00:00 10.9 C 9.32 g/m*3 10.9 C 0.13333 km/h
415 20-08-2019 06:00:00 10.425 C 9.12 g/m*3 10.43 C 0.26667 km/h
416 20-08-2019 07:00:00 10.78333 C 9.41 g/m*3 10.78 C 0 km/h
417 20-08-2019 08:00:00 11.425 C 9.83 g/m*3 11.43 C 0.93333 km/h
418 20-08-2019 09:00:00 12.61667 C 10.53 g/m*3 12.62 C 1.06667 km/h
419 20-08-2019 10:00:00 15.26667 C 11.21 g/m*3 15.27 C 0.66667 km/h
420 20-08-2019 11:00:00 17.375 C 10.89 g/m*3 17.38 C 2.13333 km/h
421 20-08-2019 12:00:00 18.625 C 10.65 g/m*3 18.63 C 1.46667 km/h
422 20-08-2019 13:00:00 19.525 C 10.45 g/m*3 19.52 C 3.875 km/h
423 20-08-2019 14:00:00 20.43333 C 10.16 g/m*3 20.43 C 4.54167 km/h
424 20-08-2019 15:00:00 21.10833 C 10.37 g/m*3 21.11 C 5.08333 km/h
425 20-08-2019 16:00:00 21.41667 C 11.04 g/m*3 21.42 C 2.13333 km/h
Sensor: Nr:Datum:Temp:Abs-Feuchte:Windchill:Wind:
Aussen-T/F 426 20-08-2019 17:00:00 20.68333 C 11.59 g/m*3 20.68 C 2.40833 km/h
427 20-08-2019 18:00:00 20.375 C 13.06 g/m*3 20.38 C 0.26667 km/h
428 20-08-2019 19:00:00 18.88333 C 12.11 g/m*3 18.88 C 0.13333 km/h
429 20-08-2019 20:00:00 17.58333 C 11.35 g/m*3 17.58 C 0.8 km/h
430 20-08-2019 21:00:00 16.76667 C 11.4 g/m*3 16.77 C 0.26667 km/h
431 20-08-2019 22:00:00 15.925 C 11.36 g/m*3 15.93 C 0.4 km/h
432 20-08-2019 23:00:00 15.175 C 11.02 g/m*3 15.18 C 0.26667 km/h
433 21-08-2019 00:00:00 14.11667 C 10.59 g/m*3 14.12 C 0 km/h
434 21-08-2019 01:00:00 13.55833 C 10.42 g/m*3 13.56 C 0 km/h
435 21-08-2019 02:00:00 12.65833 C 10.08 g/m*3 12.66 C 0.13333 km/h
436 21-08-2019 03:00:00 11.99167 C 9.85 g/m*3 11.99 C 0.13333 km/h
437 21-08-2019 04:00:00 11.30833 C 9.54 g/m*3 11.31 C 0.13333 km/h
438 21-08-2019 05:00:00 10.73333 C 9.25 g/m*3 10.73 C 0 km/h
439 21-08-2019 06:00:00 10.325 C 9.1 g/m*3 10.33 C 0 km/h
440 21-08-2019 07:00:00 10.35833 C 9.16 g/m*3 10.36 C 0.26667 km/h
441 21-08-2019 08:00:00 10.85833 C 9.52 g/m*3 10.86 C 0.13333 km/h
442 21-08-2019 09:00:00 11.86667 C 10.15 g/m*3 11.87 C 0.66667 km/h
443 21-08-2019 10:00:00 13.33333 C 11.14 g/m*3 13.33 C 0 km/h
444 21-08-2019 11:00:00 15.80833 C 12.13 g/m*3 15.81 C 0.93333 km/h
445 21-08-2019 12:00:00 18.54167 C 11.58 g/m*3 18.54 C 1.46667 km/h
446 21-08-2019 13:00:00 20.375 C 10.25 g/m*3 20.38 C 5.38333 km/h
447 21-08-2019 14:00:00 21.79167 C 10.04 g/m*3 21.79 C 6.575 km/h
448 21-08-2019 15:00:00 22.95833 C 10.3 g/m*3 22.96 C 2.13333 km/h
449 21-08-2019 16:00:00 24.475 C 9.39 g/m*3 24.48 C 7.23333 km/h
450 21-08-2019 17:00:00 24.65 C 9.4 g/m*3 24.65 C 4.28333 km/h
Sensor: Nr:Datum:Temp:Abs-Feuchte:Windchill:Wind:
Aussen-T/F 451 21-08-2019 18:00:00 24.64167 C 10 g/m*3 24.64 C 4.94167 km/h
452 21-08-2019 19:00:00 23.46667 C 11.61 g/m*3 23.47 C 1.6 km/h
453 21-08-2019 20:00:00 19.875 C 11.09 g/m*3 19.88 C 0 km/h
454 21-08-2019 21:00:00 17.49167 C 9.97 g/m*3 17.49 C 0.4 km/h
455 21-08-2019 22:00:00 16.29167 C 9.59 g/m*3 16.29 C 0 km/h
456 21-08-2019 23:00:00 15.05833 C 9.99 g/m*3 15.06 C 0 km/h
457 22-08-2019 00:00:00 13.475 C 9.75 g/m*3 13.48 C 0 km/h
458 22-08-2019 01:00:00 12.41667 C 9.41 g/m*3 12.42 C 0 km/h
459 22-08-2019 02:00:00 11.66667 C 9.25 g/m*3 11.67 C 0 km/h
460 22-08-2019 03:00:00 11.125 C 9.12 g/m*3 11.13 C 0 km/h
461 22-08-2019 04:00:00 10.55833 C 8.92 g/m*3 10.56 C 0 km/h
462 22-08-2019 05:00:00 9.99167 C 8.7 g/m*3 9.99 C 0 km/h
463 22-08-2019 06:00:00 9.71667 C 8.65 g/m*3 9.72 C 0 km/h
464 22-08-2019 07:00:00 9.7 C 8.73 g/m*3 9.7 C 0 km/h
465 22-08-2019 08:00:00 10.30833 C 9.13 g/m*3 10.31 C 0 km/h
466 22-08-2019 09:00:00 11.525 C 9.93 g/m*3 11.53 C 0 km/h
467 22-08-2019 10:00:00 13.51667 C 11.07 g/m*3 13.52 C 0 km/h
468 22-08-2019 11:00:00 16.925 C 11.87 g/m*3 16.93 C 0 km/h
469 22-08-2019 12:00:00 20.11667 C 11.46 g/m*3 20.12 C 3.46667 km/h
470 22-08-2019 13:00:00 22.71667 C 10.89 g/m*3 22.72 C 5.09167 km/h
471 22-08-2019 14:00:00 24.08333 C 10.49 g/m*3 24.08 C 6.71667 km/h
472 22-08-2019 15:00:00 25.89167 C 9.9 g/m*3 25.89 C 6.84167 km/h
473 22-08-2019 16:00:00 27.33333 C 9.76 g/m*3 27.33 C 6.16667 km/h
474 22-08-2019 17:00:00 28.01667 C 9.41 g/m*3 28.02 C 6.16667 km/h
475 22-08-2019 18:00:00 28.38333 C 9.67 g/m*3 28.38 C 3.46667 km/h
Sensor: Nr:Datum:Temp:Abs-Feuchte:Windchill:Wind:
Aussen-T/F 476 22-08-2019 19:00:00 26.06667 C 11.97 g/m*3 26.07 C 0.26667 km/h
477 22-08-2019 20:00:00 21.49167 C 11.04 g/m*3 21.49 C 0.26667 km/h
478 22-08-2019 21:00:00 18.25 C 10.74 g/m*3 18.25 C 0 km/h
479 22-08-2019 22:00:00 16.40833 C 10.6 g/m*3 16.41 C 0 km/h
480 22-08-2019 23:00:00 14.90833 C 10.12 g/m*3 14.91 C 0 km/h
481 23-08-2019 00:00:00 13.94167 C 9.97 g/m*3 13.94 C 0 km/h
482 23-08-2019 01:00:00 13.26667 C 9.81 g/m*3 13.27 C 0 km/h
483 23-08-2019 02:00:00 12.775 C 9.72 g/m*3 12.78 C 0 km/h
484 23-08-2019 03:00:00 11.975 C 9.49 g/m*3 11.98 C 0 km/h
485 23-08-2019 04:00:00 11.56667 C 9.45 g/m*3 11.57 C 0 km/h
486 23-08-2019 05:00:00 11.06667 C 9.24 g/m*3 11.07 C 0 km/h
487 23-08-2019 06:00:00 10.66667 C 9.14 g/m*3 10.67 C 0 km/h
488 23-08-2019 07:00:00 10.7 C 9.25 g/m*3 10.7 C 0 km/h
489 23-08-2019 08:00:00 11.3 C 9.68 g/m*3 11.3 C 0 km/h
490 23-08-2019 09:00:00 12.35 C 10.35 g/m*3 12.35 C 0 km/h
491 23-08-2019 10:00:00 14.34167 C 11.59 g/m*3 14.34 C 0 km/h
492 23-08-2019 11:00:00 17.6 C 12.75 g/m*3 17.6 C 0 km/h
493 23-08-2019 12:00:00 21.16667 C 12.76 g/m*3 21.17 C 1.46667 km/h
494 23-08-2019 13:00:00 24.1 C 11.12 g/m*3 24.1 C 3.86667 km/h
495 23-08-2019 14:00:00 26.13333 C 10.36 g/m*3 26.13 C 7.925 km/h
496 23-08-2019 15:00:00 27.85833 C 10.32 g/m*3 27.86 C 6.84167 km/h
497 23-08-2019 16:00:00 29.15 C 10.11 g/m*3 29.15 C 9.28333 km/h
498 23-08-2019 17:00:00 29.375 C 9.97 g/m*3 29.38 C 12.5 km/h
499 23-08-2019 18:00:00 28.94167 C 9.47 g/m*3 28.94 C 12.36667 km/h
500 23-08-2019 19:00:00 27.20833 C 12.06 g/m*3 27.21 C 1.875 km/h
Sensor: Nr:Datum:Temp:Abs-Feuchte:Windchill:Wind:
Aussen-T/F 501 23-08-2019 20:00:00 23.01667 C 11.42 g/m*3 23.02 C 0.66667 km/h
502 23-08-2019 21:00:00 20.16667 C 11.34 g/m*3 20.17 C 0 km/h
503 23-08-2019 22:00:00 17.85 C 11.09 g/m*3 17.85 C 0 km/h
504 23-08-2019 23:00:00 16.23333 C 10.61 g/m*3 16.23 C 0 km/h
505 24-08-2019 00:00:00 14.96667 C 10.33 g/m*3 14.97 C 0 km/h
506 24-08-2019 01:00:00 14.05833 C 10.23 g/m*3 14.06 C 0 km/h
507 24-08-2019 02:00:00 13.425 C 10.07 g/m*3 13.43 C 0 km/h
508 24-08-2019 03:00:00 12.7 C 9.88 g/m*3 12.7 C 0 km/h
509 24-08-2019 04:00:00 12.06667 C 9.67 g/m*3 12.07 C 0 km/h
510 24-08-2019 05:00:00 11.66667 C 9.58 g/m*3 11.67 C 0 km/h
511 24-08-2019 06:00:00 11.425 C 9.54 g/m*3 11.43 C 0 km/h
512 24-08-2019 07:00:00 11.575 C 9.75 g/m*3 11.58 C 0 km/h
513 24-08-2019 08:00:00 12.06667 C 10.08 g/m*3 12.07 C 0 km/h
514 24-08-2019 09:00:00 13.23333 C 10.82 g/m*3 13.23 C 0 km/h
515 24-08-2019 10:00:00 15.5 C 12.09 g/m*3 15.5 C 0.4 km/h
516 24-08-2019 11:00:00 18.88333 C 12.89 g/m*3 18.88 C 0.66667 km/h
517 24-08-2019 12:00:00 22.24167 C 13.01 g/m*3 22.24 C 2.66667 km/h
518 24-08-2019 13:00:00 25.4 C 12.28 g/m*3 25.4 C 7.78333 km/h
519 24-08-2019 14:00:00 27.05 C 11.27 g/m*3 27.05 C 8.58333 km/h
520 24-08-2019 15:00:00 28.69167 C 10.64 g/m*3 28.69 C 8.875 km/h
521 24-08-2019 16:00:00 29.81667 C 10.33 g/m*3 29.82 C 11.69167 km/h
522 24-08-2019 17:00:00 30.29167 C 10.09 g/m*3 30.29 C 11.15833 km/h
523 24-08-2019 18:00:00 30.66667 C 10.95 g/m*3 30.67 C 9.55 km/h
524 24-08-2019 19:00:00 28.56667 C 13.72 g/m*3 28.57 C 1.6 km/h
525 24-08-2019 20:00:00 24.29167 C 13.11 g/m*3 24.29 C 0.66667 km/h
Sensor: Nr:Datum:Temp:Abs-Feuchte:Windchill:Wind:
Aussen-T/F 526 24-08-2019 21:00:00 22.01667 C 12.87 g/m*3 22.02 C 0.4 km/h
527 24-08-2019 22:00:00 19.78333 C 12.64 g/m*3 19.78 C 0.13333 km/h
528 24-08-2019 23:00:00 18.175 C 12.16 g/m*3 18.18 C 0 km/h
529 25-08-2019 00:00:00 17.35833 C 12.09 g/m*3 17.36 C 0 km/h
530 25-08-2019 01:00:00 16.96667 C 11.95 g/m*3 16.97 C 0.26667 km/h
531 25-08-2019 02:00:00 16.15833 C 11.73 g/m*3 16.16 C 0 km/h
532 25-08-2019 03:00:00 15.53333 C 11.66 g/m*3 15.53 C 0.26667 km/h
533 25-08-2019 04:00:00 15.19167 C 11.47 g/m*3 15.19 C 0.13333 km/h
534 25-08-2019 05:00:00 14.65833 C 11.28 g/m*3 14.66 C 0 km/h
535 25-08-2019 06:00:00 14.41667 C 11.24 g/m*3 14.42 C 0 km/h
536 25-08-2019 07:00:00 14.80833 C 11.59 g/m*3 14.81 C 0.26667 km/h
537 25-08-2019 08:00:00 15.84167 C 12.21 g/m*3 15.84 C 0 km/h
538 25-08-2019 09:00:00 17.2 C 12.94 g/m*3 17.2 C 0 km/h
539 25-08-2019 10:00:00 18.78333 C 13.62 g/m*3 18.78 C 0 km/h
540 25-08-2019 11:00:00 21.64167 C 14.72 g/m*3 21.64 C 1.46667 km/h
541 25-08-2019 12:00:00 24.54167 C 15.7 g/m*3 24.54 C 3.33333 km/h
542 25-08-2019 13:00:00 26.76667 C 15.98 g/m*3 26.77 C 3.33333 km/h
543 25-08-2019 14:00:00 28.375 C 15.82 g/m*3 28.38 C 4.28333 km/h
544 25-08-2019 15:00:00 30.28333 C 15.83 g/m*3 30.28 C 5.5 km/h
545 25-08-2019 16:00:00 31.18333 C 16.05 g/m*3 31.18 C 6.05833 km/h
546 25-08-2019 17:00:00 32.3 C 16.12 g/m*3 32.3 C 3.875 km/h
547 25-08-2019 18:00:00 30.05 C 16.09 g/m*3 30.05 C 4.425 km/h
548 25-08-2019 19:00:00 27.125 C 16.41 g/m*3 27.13 C 0.13333 km/h
549 25-08-2019 20:00:00 24.31667 C 15.82 g/m*3 24.32 C 0.13333 km/h
550 25-08-2019 21:00:00 22.98333 C 15.85 g/m*3 22.98 C 0 km/h
Sensor: Nr:Datum:Temp:Abs-Feuchte:Windchill:Wind:
Aussen-T/F 551 25-08-2019 22:00:00 21.19167 C 15.27 g/m*3 21.19 C 0 km/h
552 25-08-2019 23:00:00 20.10833 C 14.86 g/m*3 20.11 C 0 km/h
553 26-08-2019 00:00:00 19.475 C 14.76 g/m*3 19.48 C 0 km/h
554 26-08-2019 01:00:00 19.14167 C 14.65 g/m*3 19.14 C 0 km/h
555 26-08-2019 02:00:00 18.53333 C 14.39 g/m*3 18.53 C 0.13333 km/h
556 26-08-2019 03:00:00 18.025 C 14.1 g/m*3 18.02 C 0 km/h
557 26-08-2019 04:00:00 17.41667 C 13.8 g/m*3 17.42 C 0 km/h
558 26-08-2019 05:00:00 17.14167 C 13.74 g/m*3 17.14 C 0.13333 km/h
559 26-08-2019 06:00:00 16.76667 C 13.46 g/m*3 16.77 C 0 km/h
560 26-08-2019 07:00:00 16.71667 C 13.55 g/m*3 16.72 C 0 km/h
561 26-08-2019 08:00:00 17.475 C 14.29 g/m*3 17.48 C 0 km/h
562 26-08-2019 09:00:00 18.55 C 15.21 g/m*3 18.55 C 0 km/h
563 26-08-2019 10:00:00 20.15833 C 16.12 g/m*3 20.16 C 0.13333 km/h
564 26-08-2019 11:00:00 22.95 C 17.15 g/m*3 22.95 C 0.93333 km/h
565 26-08-2019 12:00:00 25.70833 C 17.45 g/m*3 25.71 C 1.86667 km/h
566 26-08-2019 13:00:00 28.3 C 16.68 g/m*3 28.3 C 5.075 km/h
567 26-08-2019 14:00:00 30.01667 C 15.99 g/m*3 30.02 C 5.08333 km/h
568 26-08-2019 15:00:00 30.85833 C 16.04 g/m*3 30.86 C 4.95 km/h
569 26-08-2019 16:00:00 28.55 C 16.58 g/m*3 28.55 C 2 km/h
570 26-08-2019 17:00:00 27.475 C 17.77 g/m*3 27.48 C 0 km/h
571 26-08-2019 18:00:00 27.10833 C 18.14 g/m*3 27.11 C 0 km/h
572 26-08-2019 19:00:00 28.06667 C 18.01 g/m*3 28.07 C 0 km/h
573 26-08-2019 20:00:00 24.69167 C 16.65 g/m*3 24.69 C 0 km/h
574 26-08-2019 21:00:00 22.45 C 16.03 g/m*3 22.45 C 0 km/h
575 26-08-2019 22:00:00 21.09167 C 15.61 g/m*3 21.09 C 0 km/h
Sensor: Nr:Datum:Temp:Abs-Feuchte:Windchill:Wind:
Aussen-T/F 576 26-08-2019 23:00:00 20.175 C 15.34 g/m*3 20.18 C 0.13333 km/h
577 27-08-2019 00:00:00 19.40833 C 15.01 g/m*3 19.41 C 0 km/h
578 27-08-2019 01:00:00 19.01667 C 15.01 g/m*3 19.02 C 0 km/h
579 27-08-2019 02:00:00 18.39167 C 14.59 g/m*3 18.39 C 0 km/h
580 27-08-2019 03:00:00 17.91667 C 14.38 g/m*3 17.92 C 0.13333 km/h
581 27-08-2019 04:00:00 17.55833 C 14.1 g/m*3 17.56 C 0 km/h
582 27-08-2019 05:00:00 17.15833 C 13.88 g/m*3 17.16 C 0 km/h
583 27-08-2019 06:00:00 16.79167 C 13.62 g/m*3 16.79 C 0 km/h
584 27-08-2019 07:00:00 16.85 C 13.77 g/m*3 16.85 C 0 km/h
585 27-08-2019 08:00:00 17.325 C 14.24 g/m*3 17.33 C 0 km/h
586 27-08-2019 09:00:00 18.4 C 15.26 g/m*3 18.4 C 0 km/h
587 27-08-2019 10:00:00 19.78333 C 16.4 g/m*3 19.78 C 0 km/h
588 27-08-2019 11:00:00 22.275 C 17.8 g/m*3 22.28 C 0 km/h
589 27-08-2019 12:00:00 25.41667 C 17.97 g/m*3 25.42 C 0 km/h
590 27-08-2019 13:00:00 28.99167 C 16.36 g/m*3 28.99 C 1.06667 km/h
591 27-08-2019 14:00:00 30.54167 C 15.38 g/m*3 30.54 C 2 km/h
592 27-08-2019 15:00:00 31.89167 C 14.46 g/m*3 31.89 C 4.95833 km/h
593 27-08-2019 16:00:00 33.23333 C 15.02 g/m*3 33.23 C 4.28333 km/h
594 27-08-2019 17:00:00 32.29167 C 16.29 g/m*3 32.29 C 1.46667 km/h
595 27-08-2019 18:00:00 29.55833 C 16.9 g/m*3 29.56 C 1.2 km/h
596 27-08-2019 19:00:00 27.7 C 17.08 g/m*3 27.7 C 5.23333 km/h
597 27-08-2019 20:00:00 23.50833 C 17.31 g/m*3 23.51 C 0.53333 km/h
598 27-08-2019 21:00:00 22.09167 C 16.5 g/m*3 22.09 C 0.4 km/h
599 27-08-2019 22:00:00 21.14167 C 15.96 g/m*3 21.14 C 0 km/h
600 27-08-2019 23:00:00 20.43333 C 15.63 g/m*3 20.43 C 0.13333 km/h
Sensor: Nr:Datum:Temp:Abs-Feuchte:Windchill:Wind:
Aussen-T/F 601 28-08-2019 00:00:00 19.9 C 15.48 g/m*3 19.9 C 0.4 km/h
602 28-08-2019 01:00:00 19.61667 C 15.5 g/m*3 19.62 C 0 km/h
603 28-08-2019 02:00:00 19.24167 C 15.32 g/m*3 19.24 C 0 km/h
604 28-08-2019 03:00:00 18.71667 C 14.98 g/m*3 18.72 C 0.4 km/h
605 28-08-2019 04:00:00 18.33333 C 14.71 g/m*3 18.33 C 0 km/h
606 28-08-2019 05:00:00 17.96667 C 14.47 g/m*3 17.97 C 0 km/h
607 28-08-2019 06:00:00 18.01667 C 14.62 g/m*3 18.02 C 0 km/h
608 28-08-2019 07:00:00 17.85833 C 14.51 g/m*3 17.86 C 0 km/h
609 28-08-2019 08:00:00 18.64167 C 15.28 g/m*3 18.64 C 0.93333 km/h
610 28-08-2019 09:00:00 19.75833 C 15.89 g/m*3 19.76 C 2.8 km/h
611 28-08-2019 10:00:00 22.45 C 15.49 g/m*3 22.45 C 7.4 km/h
612 28-08-2019 11:00:00 23.975 C 15.57 g/m*3 23.98 C 4.40833 km/h
613 28-08-2019 12:00:00 24.49167 C 15.85 g/m*3 24.49 C 4.025 km/h
614 28-08-2019 13:00:00 26.54167 C 14.76 g/m*3 26.54 C 7.66667 km/h
615 28-08-2019 14:00:00 29.44167 C 14.81 g/m*3 29.44 C 9.29167 km/h
616 28-08-2019 15:00:00 30.35833 C 13.68 g/m*3 30.36 C 11.43333 km/h
617 28-08-2019 16:00:00 31.55833 C 13.63 g/m*3 31.56 C 11.29167 km/h
618 28-08-2019 17:00:00 31.80833 C 14.03 g/m*3 31.81 C 7.39167 km/h
619 28-08-2019 18:00:00 31.18333 C 14.79 g/m*3 31.18 C 4.96667 km/h
620 28-08-2019 19:00:00 27.875 C 14.09 g/m*3 27.88 C 0.53333 km/h
621 28-08-2019 20:00:00 25.59167 C 13.46 g/m*3 25.59 C 0.4 km/h
622 28-08-2019 21:00:00 24.2 C 13.75 g/m*3 24.2 C 0.53333 km/h
623 28-08-2019 22:00:00 22.43333 C 13.94 g/m*3 22.43 C 0 km/h
624 28-08-2019 23:00:00 21.38333 C 13.92 g/m*3 21.38 C 0 km/h
625 29-08-2019 00:00:00 20.775 C 13.89 g/m*3 20.78 C 0 km/h
Sensor: Nr:Datum:Temp:Abs-Feuchte:Windchill:Wind:
Aussen-T/F 626 29-08-2019 01:00:00 20.10833 C 13.75 g/m*3 20.11 C 0 km/h
627 29-08-2019 02:00:00 19.2 C 13.55 g/m*3 19.2 C 0 km/h
628 29-08-2019 03:00:00 18.225 C 13.21 g/m*3 18.23 C 0 km/h
629 29-08-2019 04:00:00 17.53333 C 13.15 g/m*3 17.53 C 0 km/h
630 29-08-2019 05:00:00 17.78333 C 13.63 g/m*3 17.78 C 0 km/h
631 29-08-2019 06:00:00 18.34167 C 14.08 g/m*3 18.34 C 0.53333 km/h
632 29-08-2019 07:00:00 19.04167 C 14.58 g/m*3 19.04 C 2.4 km/h
633 29-08-2019 08:00:00 19.89167 C 14.95 g/m*3 19.89 C 3.06667 km/h
634 29-08-2019 09:00:00 20.7 C 15.27 g/m*3 20.7 C 2.4 km/h
635 29-08-2019 10:00:00 21.175 C 16.01 g/m*3 21.18 C 0.4 km/h
636 29-08-2019 11:00:00 22.13333 C 16.14 g/m*3 22.13 C 2.94167 km/h
637 29-08-2019 12:00:00 23.29167 C 16.23 g/m*3 23.29 C 5.075 km/h
638 29-08-2019 13:00:00 25.45 C 16.23 g/m*3 25.45 C 8.475 km/h
639 29-08-2019 14:00:00 26.78333 C 16.49 g/m*3 26.78 C 7.925 km/h
640 29-08-2019 15:00:00 27.53333 C 16.59 g/m*3 27.53 C 9.41667 km/h
641 29-08-2019 16:00:00 27.875 C 16.18 g/m*3 27.88 C 9.40833 km/h
642 29-08-2019 17:00:00 27.28333 C 15.75 g/m*3 27.28 C 8.74167 km/h
643 29-08-2019 18:00:00 26.44167 C 15.18 g/m*3 26.44 C 8.325 km/h
644 29-08-2019 19:00:00 24.73333 C 14.66 g/m*3 24.73 C 4.675 km/h
645 29-08-2019 20:00:00 22.80833 C 14.37 g/m*3 22.81 C 1.2 km/h
646 29-08-2019 21:00:00 20.89167 C 13.97 g/m*3 20.89 C 0.4 km/h
647 29-08-2019 22:00:00 20.525 C 14.05 g/m*3 20.53 C 0.13333 km/h
648 29-08-2019 23:00:00 20.48333 C 14.15 g/m*3 20.48 C 0.26667 km/h
649 30-08-2019 00:00:00 20.30833 C 13.9 g/m*3 20.31 C 2.4 km/h
650 30-08-2019 01:00:00 19.18333 C 13.66 g/m*3 19.18 C 0 km/h
Sensor: Nr:Datum:Temp:Abs-Feuchte:Windchill:Wind:
Aussen-T/F 651 30-08-2019 02:00:00 18.2 C 13.38 g/m*3 18.2 C 0 km/h
652 30-08-2019 03:00:00 17.48333 C 13.17 g/m*3 17.48 C 0 km/h
653 30-08-2019 04:00:00 16.65833 C 12.77 g/m*3 16.66 C 0 km/h
654 30-08-2019 05:00:00 15.975 C 12.62 g/m*3 15.98 C 0.13333 km/h
655 30-08-2019 06:00:00 15.91667 C 12.64 g/m*3 15.92 C 0.13333 km/h
656 30-08-2019 07:00:00 15.41667 C 12.32 g/m*3 15.42 C 0 km/h
657 30-08-2019 08:00:00 16.09167 C 12.94 g/m*3 16.09 C 0.26667 km/h
658 30-08-2019 09:00:00 17.96667 C 13.59 g/m*3 17.97 C 1.06667 km/h
659 30-08-2019 10:00:00 19.41667 C 13.65 g/m*3 19.42 C 1.2 km/h
660 30-08-2019 11:00:00 20.825 C 13.78 g/m*3 20.83 C 1.46667 km/h
661 30-08-2019 12:00:00 22.16667 C 14.24 g/m*3 22.17 C 3.86667 km/h
662 30-08-2019 13:00:00 23.59167 C 14.51 g/m*3 23.59 C 4.84167 km/h
663 30-08-2019 14:00:00 25 C 14 g/m*3 25 C 6.01667 km/h
664 30-08-2019 15:00:00 26.16667 C 12.59 g/m*3 26.17 C 5.75833 km/h
665 30-08-2019 16:00:00 27.98333 C 12.41 g/m*3 27.98 C 5.49167 km/h
666 30-08-2019 17:00:00 29.66667 C 11.27 g/m*3 29.67 C 3.73333 km/h
667 30-08-2019 18:00:00 29.54167 C 11.12 g/m*3 29.54 C 6.29167 km/h
668 30-08-2019 19:00:00 27.175 C 12.24 g/m*3 27.18 C 2.13333 km/h
669 30-08-2019 20:00:00 23 C 11.42 g/m*3 23 C 0.26667 km/h
670 30-08-2019 21:00:00 20.38333 C 11.5 g/m*3 20.38 C 0 km/h
671 30-08-2019 22:00:00 18.64167 C 11.58 g/m*3 18.64 C 0 km/h
672 30-08-2019 23:00:00 17.38333 C 11.44 g/m*3 17.38 C 0 km/h
673 31-08-2019 00:00:00 16.65 C 11.48 g/m*3 16.65 C 0 km/h
674 31-08-2019 01:00:00 15.825 C 11.35 g/m*3 15.83 C 0 km/h
675 31-08-2019 02:00:00 15.21667 C 11.21 g/m*3 15.22 C 0 km/h
Sensor: Nr:Datum:Temp:Abs-Feuchte:Windchill:Wind:
Aussen-T/F 676 31-08-2019 03:00:00 14.75 C 11.18 g/m*3 14.75 C 0 km/h
677 31-08-2019 04:00:00 14.31667 C 11.09 g/m*3 14.32 C 0 km/h
678 31-08-2019 05:00:00 14.15 C 11.15 g/m*3 14.15 C 0 km/h
679 31-08-2019 06:00:00 14.1 C 11.17 g/m*3 14.1 C 0 km/h
680 31-08-2019 07:00:00 14.10833 C 11.25 g/m*3 14.11 C 0 km/h
681 31-08-2019 08:00:00 14.76667 C 11.71 g/m*3 14.77 C 0 km/h
682 31-08-2019 09:00:00 15.89167 C 12.49 g/m*3 15.89 C 0 km/h
683 31-08-2019 10:00:00 17.8 C 13.51 g/m*3 17.8 C 0 km/h
684 31-08-2019 11:00:00 20.6 C 14.54 g/m*3 20.6 C 0 km/h
685 31-08-2019 12:00:00 23.625 C 15.57 g/m*3 23.63 C 0.675 km/h
686 31-08-2019 13:00:00 28.49167 C 15.25 g/m*3 28.49 C 7.24167 km/h
687 31-08-2019 14:00:00 30.36667 C 14.64 g/m*3 30.37 C 6.83333 km/h
688 31-08-2019 15:00:00 31.43333 C 14.19 g/m*3 31.43 C 8.2 km/h
689 31-08-2019 16:00:00 32.48333 C 14.66 g/m*3 32.48 C 6.16667 km/h
690 31-08-2019 17:00:00 33.89167 C 14.86 g/m*3 33.89 C 8.05 km/h
691 31-08-2019 18:00:00 33.71667 C 14.79 g/m*3 33.72 C 6.43333 km/h
692 31-08-2019 19:00:00 31.13333 C 15.74 g/m*3 31.13 C 0.8 km/h
693 31-08-2019 20:00:00 25.89167 C 14.52 g/m*3 25.89 C 0.4 km/h
694 31-08-2019 21:00:00 24.875 C 14.17 g/m*3 24.88 C 4.95833 km/h
695 31-08-2019 22:00:00 24.58333 C 15.85 g/m*3 24.58 C 4.81667 km/h
696 31-08-2019 23:00:00 20.69167 C 15.76 g/m*3 20.69 C 1.73333 km/h
697 01-09-2019 00:00:00 19.66667 C 15.46 g/m*3 19.67 C 0.66667 km/h
698 01-09-2019 01:00:00 19.34167 C 15.12 g/m*3 19.34 C 0.53333 km/h
699 01-09-2019 02:00:00 19.10833 C 14.09 g/m*3 19.11 C 0 km/h
700 01-09-2019 03:00:00 18.325 C 13.17 g/m*3 18.33 C 1.33333 km/h
Sensor: Nr:Datum:Temp:Abs-Feuchte:Windchill:Wind:
Aussen-T/F 701 01-09-2019 04:00:00 17.88333 C 12.23 g/m*3 17.88 C 2.66667 km/h
702 01-09-2019 05:00:00 17.84167 C 12.03 g/m*3 17.84 C 4.81667 km/h
703 01-09-2019 06:00:00 17.30833 C 11.73 g/m*3 17.31 C 2.80833 km/h
704 01-09-2019 07:00:00 16.1 C 11.74 g/m*3 16.1 C 0.53333 km/h
705 01-09-2019 08:00:00 17.48333 C 12.3 g/m*3 17.48 C 4.28333 km/h
706 01-09-2019 09:00:00 18.13333 C 12.46 g/m*3 18.13 C 5.75 km/h
707 01-09-2019 10:00:00 19.10833 C 12.55 g/m*3 19.11 C 7.65 km/h
708 01-09-2019 11:00:00 20.025 C 12.85 g/m*3 20.02 C 8.05833 km/h
709 01-09-2019 12:00:00 20.05 C 12.97 g/m*3 20.05 C 10.08333 km/h
710 01-09-2019 13:00:00 19.69167 C 13.22 g/m*3 19.69 C 11.29167 km/h
711 01-09-2019 14:00:00 20.075 C 13.13 g/m*3 20.08 C 8.04167 km/h
712 01-09-2019 15:00:00 20.61667 C 12.84 g/m*3 20.62 C 8.05 km/h
713 01-09-2019 16:00:00 20.38333 C 12.02 g/m*3 20.38 C 11.01667 km/h
714 01-09-2019 17:00:00 19.975 C 11.29 g/m*3 19.98 C 10.49167 km/h
715 01-09-2019 18:00:00 20.75833 C 10.94 g/m*3 20.76 C 10.1 km/h
716 01-09-2019 19:00:00 20.60833 C 10.37 g/m*3 20.61 C 6.725 km/h
717 01-09-2019 20:00:00 18.38333 C 10.45 g/m*3 18.38 C 1.475 km/h
718 01-09-2019 21:00:00 16.68333 C 10.27 g/m*3 16.68 C 0 km/h
719 01-09-2019 22:00:00 16.39167 C 9.96 g/m*3 16.39 C 0 km/h
720 01-09-2019 23:00:00 15.59167 C 9.97 g/m*3 15.59 C 0 km/h
721 02-09-2019 00:00:00 14.44167 C 9.36 g/m*3 14.44 C 0 km/h
722 02-09-2019 01:00:00 13.29167 C 8.99 g/m*3 13.29 C 0 km/h
723 02-09-2019 02:00:00 13.3 C 9.27 g/m*3 13.3 C 0 km/h
724 02-09-2019 03:00:00 13.025 C 9.37 g/m*3 13.03 C 0 km/h
725 02-09-2019 04:00:00 12 C 8.94 g/m*3 12 C 0.4 km/h
Sensor: Nr:Datum:Temp:Abs-Feuchte:Windchill:Wind:
Aussen-T/F 726 02-09-2019 05:00:00 11.21667 C 8.72 g/m*3 11.22 C 0 km/h
727 02-09-2019 06:00:00 10.15 C 8.45 g/m*3 10.15 C 0 km/h
728 02-09-2019 07:00:00 9.73333 C 8.47 g/m*3 9.73 C 0.53333 km/h
729 02-09-2019 08:00:00 10.03333 C 8.75 g/m*3 10.03 C 0 km/h
730 02-09-2019 09:00:00 10.83333 C 9.17 g/m*3 10.83 C 0 km/h
731 02-09-2019 10:00:00 12.85833 C 9.9 g/m*3 12.86 C 0.8 km/h
732 02-09-2019 11:00:00 16.2 C 9.16 g/m*3 16.2 C 7.93333 km/h
733 02-09-2019 12:00:00 17.53333 C 8.44 g/m*3 17.53 C 8.74167 km/h
734 02-09-2019 13:00:00 18.70833 C 7.96 g/m*3 18.71 C 9.95833 km/h
735 02-09-2019 14:00:00 19.83333 C 7.92 g/m*3 19.83 C 9.28333 km/h
736 02-09-2019 15:00:00 20.175 C 7.9 g/m*3 20.18 C 7.90833 km/h
737 02-09-2019 16:00:00 21.80833 C 7.98 g/m*3 21.81 C 9.68333 km/h
738 02-09-2019 17:00:00 23.09167 C 7.83 g/m*3 23.09 C 6.70833 km/h
739 02-09-2019 18:00:00 22.99167 C 7.67 g/m*3 22.99 C 5.48333 km/h
740 02-09-2019 19:00:00 20.575 C 8.35 g/m*3 20.58 C 1.2 km/h
741 02-09-2019 20:00:00 16.9 C 8.1 g/m*3 16.9 C 0.93333 km/h
742 02-09-2019 21:00:00 15.39167 C 7.97 g/m*3 15.39 C 0.26667 km/h
743 02-09-2019 22:00:00 13.475 C 8.19 g/m*3 13.48 C 0 km/h
744 02-09-2019 23:00:00 12.98333 C 8.24 g/m*3 12.98 C 0 km/h
745 03-09-2019 00:00:00 12.39167 C 8.17 g/m*3 12.39 C 0 km/h
746 03-09-2019 01:00:00 12.125 C 8.22 g/m*3 12.13 C 0 km/h
747 03-09-2019 02:00:00 10.89167 C 7.86 g/m*3 10.89 C 0 km/h
748 03-09-2019 03:00:00 10.175 C 7.75 g/m*3 10.18 C 0 km/h
749 03-09-2019 04:00:00 10.08333 C 7.92 g/m*3 10.08 C 0 km/h
750 03-09-2019 05:00:00 9.45 C 7.72 g/m*3 9.45 C 0 km/h
Sensor: Nr:Datum:Temp:Abs-Feuchte:Windchill:Wind:
Aussen-T/F 751 03-09-2019 06:00:00 8.91667 C 7.64 g/m*3 8.92 C 0 km/h
752 03-09-2019 07:00:00 8.65833 C 7.66 g/m*3 8.66 C 0.13333 km/h
753 03-09-2019 08:00:00 9.08333 C 7.95 g/m*3 9.08 C 0 km/h
754 03-09-2019 09:00:00 10.375 C 8.56 g/m*3 10.38 C 0.26667 km/h
755 03-09-2019 10:00:00 13.225 C 9.38 g/m*3 13.23 C 1.46667 km/h
756 03-09-2019 11:00:00 17.34167 C 9.34 g/m*3 17.34 C 5.90833 km/h
757 03-09-2019 12:00:00 19.95833 C 9.22 g/m*3 19.96 C 8.18333 km/h
758 03-09-2019 13:00:00 21.25 C 9.23 g/m*3 21.25 C 11.55833 km/h
759 03-09-2019 14:00:00 22.64167 C 9.16 g/m*3 22.64 C 10.35 km/h
760 03-09-2019 15:00:00 23.75 C 9.83 g/m*3 23.75 C 10.20833 km/h
761 03-09-2019 16:00:00 23.58333 C 10.59 g/m*3 23.58 C 10.75 km/h
762 03-09-2019 17:00:00 23.65 C 10.86 g/m*3 23.65 C 11.7 km/h
763 03-09-2019 18:00:00 23.225 C 10.95 g/m*3 23.23 C 10.63333 km/h
764 03-09-2019 19:00:00 21.11667 C 10.84 g/m*3 21.12 C 7.91667 km/h
765 03-09-2019 20:00:00 18.86667 C 10.66 g/m*3 18.87 C 2.40833 km/h
766 03-09-2019 21:00:00 16.325 C 10.42 g/m*3 16.33 C 0 km/h
767 03-09-2019 22:00:00 15.33333 C 10.37 g/m*3 15.33 C 0.13333 km/h
768 03-09-2019 23:00:00 14.05 C 10.08 g/m*3 14.05 C 0 km/h
769 04-09-2019 00:00:00 13.05 C 9.9 g/m*3 13.05 C 0 km/h
770 04-09-2019 01:00:00 12.35 C 9.74 g/m*3 12.35 C 0 km/h
771 04-09-2019 02:00:00 11.85833 C 9.58 g/m*3 11.86 C 0 km/h
772 04-09-2019 03:00:00 11.325 C 9.39 g/m*3 11.33 C 0 km/h
773 04-09-2019 04:00:00 10.74167 C 9.12 g/m*3 10.74 C 0 km/h
774 04-09-2019 05:00:00 10.36667 C 9 g/m*3 10.37 C 0 km/h
775 04-09-2019 06:00:00 10.15833 C 8.95 g/m*3 10.16 C 0 km/h
Sensor: Nr:Datum:Temp:Abs-Feuchte:Windchill:Wind:
Aussen-T/F 776 04-09-2019 07:00:00 10.09167 C 8.96 g/m*3 10.09 C 0 km/h
777 04-09-2019 08:00:00 10.675 C 9.35 g/m*3 10.68 C 0.4 km/h
778 04-09-2019 09:00:00 13.11667 C 10.54 g/m*3 13.12 C 4.26667 km/h
779 04-09-2019 10:00:00 14.875 C 10.87 g/m*3 14.88 C 3.73333 km/h
780 04-09-2019 11:00:00 18.09167 C 11.22 g/m*3 18.09 C 11.68333 km/h
781 04-09-2019 12:00:00 19.78333 C 11.25 g/m*3 19.78 C 12.1 km/h
782 04-09-2019 13:00:00 21.16667 C 11.47 g/m*3 21.17 C 12.63333 km/h
783 04-09-2019 14:00:00 22.59167 C 11.56 g/m*3 22.59 C 14.63333 km/h
784 04-09-2019 15:00:00 23.85 C 11.54 g/m*3 23.85 C 11.01667 km/h
785 04-09-2019 16:00:00 25.11667 C 11.74 g/m*3 25.12 C 11.825 km/h
786 04-09-2019 17:00:00 26.875 C 11.46 g/m*3 26.88 C 10.35 km/h
787 04-09-2019 18:00:00 25.04167 C 10.84 g/m*3 25.04 C 14.49167 km/h
788 04-09-2019 19:00:00 23.58333 C 11.1 g/m*3 23.58 C 9.65833 km/h
789 04-09-2019 20:00:00 19.81667 C 11.87 g/m*3 19.82 C 9.50833 km/h
790 04-09-2019 21:00:00 17.625 C 12.77 g/m*3 17.63 C 0.53333 km/h
791 04-09-2019 22:00:00 16.28333 C 12.52 g/m*3 16.28 C 0.53333 km/h
792 04-09-2019 23:00:00 15.64167 C 12.12 g/m*3 15.64 C 0.4 km/h
793 05-09-2019 00:00:00 15.6 C 12.1 g/m*3 15.6 C 0 km/h
794 05-09-2019 01:00:00 15.41667 C 11.73 g/m*3 15.42 C 1.33333 km/h
795 05-09-2019 02:00:00 14.29167 C 10.66 g/m*3 14.29 C 1.06667 km/h
796 05-09-2019 03:00:00 13.975 C 10.44 g/m*3 13.98 C 1.6 km/h
797 05-09-2019 04:00:00 14.075 C 10.3 g/m*3 14.08 C 3.06667 km/h
798 05-09-2019 05:00:00 13.48333 C 9.83 g/m*3 13.48 C 3.875 km/h
799 05-09-2019 06:00:00 12.56667 C 9.49 g/m*3 12.57 C 4.13333 km/h
800 05-09-2019 07:00:00 12.20833 C 9.38 g/m*3 12.21 C 5.49167 km/h
Sensor: Nr:Datum:Temp:Abs-Feuchte:Windchill:Wind:
Aussen-T/F 801 05-09-2019 08:00:00 12.58333 C 9.44 g/m*3 12.58 C 8.75833 km/h
802 05-09-2019 09:00:00 13.59167 C 9.67 g/m*3 13.59 C 7.65833 km/h
803 05-09-2019 10:00:00 15.475 C 10.21 g/m*3 15.48 C 9.95 km/h
804 05-09-2019 11:00:00 16.775 C 10.05 g/m*3 16.77 C 14.24167 km/h
805 05-09-2019 12:00:00 17.09167 C 9.8 g/m*3 17.09 C 10.48333 km/h
806 05-09-2019 13:00:00 18.1 C 9.41 g/m*3 18.1 C 10.225 km/h
807 05-09-2019 14:00:00 18.09167 C 9.72 g/m*3 18.09 C 13.03333 km/h
808 05-09-2019 15:00:00 18.5 C 9.11 g/m*3 18.5 C 11.15833 km/h
809 05-09-2019 16:00:00 18.91667 C 9.07 g/m*3 18.92 C 13.16667 km/h
810 05-09-2019 17:00:00 17.225 C 9.36 g/m*3 17.23 C 15.43333 km/h
811 05-09-2019 18:00:00 16.4 C 9.44 g/m*3 16.4 C 8.59167 km/h
812 05-09-2019 19:00:00 16.46667 C 9.02 g/m*3 16.47 C 6.325 km/h
813 05-09-2019 20:00:00 15.70833 C 9.25 g/m*3 15.71 C 6.71667 km/h
814 05-09-2019 21:00:00 14.93333 C 8.97 g/m*3 14.93 C 5.35833 km/h
815 05-09-2019 22:00:00 14.49167 C 9.01 g/m*3 14.49 C 2.53333 km/h
816 05-09-2019 23:00:00 13.94167 C 8.89 g/m*3 13.94 C 1.875 km/h
817 06-09-2019 00:00:00 12.025 C 8.52 g/m*3 12.03 C 0.4 km/h
818 06-09-2019 01:00:00 11.23333 C 8.41 g/m*3 11.23 C 1.73333 km/h
819 06-09-2019 02:00:00 10.40833 C 8.34 g/m*3 10.41 C 0 km/h
820 06-09-2019 03:00:00 9.875 C 8.21 g/m*3 9.88 C 0.13333 km/h
821 06-09-2019 04:00:00 9.00833 C 7.89 g/m*3 9.01 C 0 km/h
822 06-09-2019 05:00:00 8.075 C 7.6 g/m*3 8.07 C 0 km/h
823 06-09-2019 06:00:00 7.56667 C 7.46 g/m*3 7.57 C 0 km/h
824 06-09-2019 07:00:00 7.31667 C 7.41 g/m*3 7.32 C 0 km/h
825 06-09-2019 08:00:00 7.85 C 7.77 g/m*3 7.85 C 0 km/h
Sensor: Nr:Datum:Temp:Abs-Feuchte:Windchill:Wind:
Aussen-T/F 826 06-09-2019 09:00:00 8.75 C 8.25 g/m*3 8.75 C 0 km/h
827 06-09-2019 10:00:00 10.175 C 9.03 g/m*3 10.18 C 0.13333 km/h
828 06-09-2019 11:00:00 12.55833 C 9.18 g/m*3 12.56 C 1.73333 km/h
829 06-09-2019 12:00:00 15.03333 C 8.28 g/m*3 15.03 C 4.00833 km/h
830 06-09-2019 13:00:00 16.51667 C 8.14 g/m*3 16.52 C 4.4 km/h
831 06-09-2019 14:00:00 18.3 C 7.75 g/m*3 18.3 C 8.325 km/h
832 06-09-2019 15:00:00 19.475 C 7.53 g/m*3 19.48 C 9.26667 km/h
833 06-09-2019 16:00:00 20.7 C 7.17 g/m*3 20.7 C 7.24167 km/h
834 06-09-2019 17:00:00 22.36667 C 7.38 g/m*3 22.37 C 7.79167 km/h
835 06-09-2019 18:00:00 22.25 C 7.74 g/m*3 22.25 C 6.975 km/h
836 06-09-2019 19:00:00 19.41667 C 8.07 g/m*3 19.42 C 0.8 km/h
837 06-09-2019 20:00:00 16.04167 C 7.71 g/m*3 16.04 C 0 km/h
838 06-09-2019 21:00:00 14.65 C 7.6 g/m*3 14.65 C 0 km/h
839 06-09-2019 22:00:00 12.74167 C 7.65 g/m*3 12.74 C 0.26667 km/h
840 06-09-2019 23:00:00 12.69167 C 7.95 g/m*3 12.69 C 2 km/h
841 07-09-2019 00:00:00 12.25833 C 7.99 g/m*3 12.26 C 0.93333 km/h
842 07-09-2019 01:00:00 12.41667 C 8.06 g/m*3 12.42 C 1.73333 km/h
843 07-09-2019 02:00:00 12.19167 C 8.09 g/m*3 12.19 C 1.73333 km/h
844 07-09-2019 03:00:00 12.375 C 8.15 g/m*3 12.38 C 3.33333 km/h
845 07-09-2019 04:00:00 12.69167 C 8.26 g/m*3 12.69 C 3.89167 km/h
846 07-09-2019 05:00:00 12.64167 C 8.27 g/m*3 12.64 C 1.075 km/h
847 07-09-2019 06:00:00 12.29167 C 8.35 g/m*3 12.29 C 0 km/h
848 07-09-2019 07:00:00 11.96667 C 9.01 g/m*3 11.97 C 0.13333 km/h
849 07-09-2019 08:00:00 11.78333 C 9.52 g/m*3 11.78 C 0.13333 km/h
850 07-09-2019 09:00:00 11.80833 C 9.78 g/m*3 11.81 C 0 km/h
Sensor: Nr:Datum:Temp:Abs-Feuchte:Windchill:Wind:
Aussen-T/F 851 07-09-2019 10:00:00 12.225 C 10.16 g/m*3 12.23 C 0 km/h
852 07-09-2019 11:00:00 12.80833 C 10.52 g/m*3 12.81 C 0.4 km/h
853 07-09-2019 12:00:00 13.475 C 10.93 g/m*3 13.48 C 1.06667 km/h
854 07-09-2019 13:00:00 14.19167 C 11.31 g/m*3 14.19 C 1.06667 km/h
855 07-09-2019 14:00:00 14.46667 C 11.38 g/m*3 14.47 C 1.73333 km/h
856 07-09-2019 15:00:00 14.93333 C 11.53 g/m*3 14.93 C 3.73333 km/h
857 07-09-2019 16:00:00 15.25 C 11.63 g/m*3 15.25 C 0.93333 km/h
858 07-09-2019 17:00:00 15.30833 C 11.66 g/m*3 15.31 C 3.21667 km/h
859 07-09-2019 18:00:00 14.29167 C 11.14 g/m*3 14.29 C 0.93333 km/h
860 07-09-2019 19:00:00 13.34167 C 10.59 g/m*3 13.34 C 0.66667 km/h
861 07-09-2019 20:00:00 12.64167 C 10.32 g/m*3 12.64 C 0.13333 km/h
862 07-09-2019 21:00:00 12.00833 C 9.95 g/m*3 12.01 C 0 km/h
863 07-09-2019 22:00:00 11.8 C 9.94 g/m*3 11.8 C 0 km/h
864 07-09-2019 23:00:00 11.725 C 9.95 g/m*3 11.73 C 0 km/h
865 08-09-2019 00:00:00 11.7 C 9.94 g/m*3 11.7 C 0 km/h
866 08-09-2019 01:00:00 11.75833 C 10.04 g/m*3 11.76 C 0 km/h
867 08-09-2019 02:00:00 11.29167 C 9.74 g/m*3 11.29 C 0 km/h
868 08-09-2019 03:00:00 11.3 C 9.79 g/m*3 11.3 C 0 km/h
869 08-09-2019 04:00:00 11.7 C 10.08 g/m*3 11.7 C 0 km/h
870 08-09-2019 05:00:00 11.90833 C 10.17 g/m*3 11.91 C 0 km/h
871 08-09-2019 06:00:00 12.075 C 10.36 g/m*3 12.08 C 0.13333 km/h
872 08-09-2019 07:00:00 12.20833 C 10.41 g/m*3 12.21 C 0.4 km/h
873 08-09-2019 08:00:00 12.31667 C 10.43 g/m*3 12.32 C 1.46667 km/h
874 08-09-2019 09:00:00 12.325 C 10.38 g/m*3 12.33 C 4.13333 km/h
875 08-09-2019 10:00:00 12.575 C 10.57 g/m*3 12.58 C 0 km/h
Sensor: Nr:Datum:Temp:Abs-Feuchte:Windchill:Wind:
Aussen-T/F 876 08-09-2019 11:00:00 12.625 C 10.64 g/m*3 12.63 C 0.4 km/h
877 08-09-2019 12:00:00 12.81667 C 10.75 g/m*3 12.82 C 2.53333 km/h
878 08-09-2019 13:00:00 13.94167 C 11.24 g/m*3 13.94 C 1.6 km/h
879 08-09-2019 14:00:00 14.875 C 11.24 g/m*3 14.88 C 3.6 km/h
880 08-09-2019 15:00:00 15.73333 C 11.27 g/m*3 15.73 C 1.6 km/h
881 08-09-2019 16:00:00 15.65833 C 11.32 g/m*3 15.66 C 1.46667 km/h
882 08-09-2019 17:00:00 13.49167 C 10.83 g/m*3 13.49 C 2.53333 km/h
883 08-09-2019 18:00:00 12.8 C 10.56 g/m*3 12.8 C 0.8 km/h
884 08-09-2019 19:00:00 12.96667 C 10.8 g/m*3 12.97 C 0 km/h
885 08-09-2019 20:00:00 12.56667 C 10.5 g/m*3 12.57 C 3.35 km/h
886 08-09-2019 21:00:00 12.1 C 10.23 g/m*3 12.1 C 0.53333 km/h
887 08-09-2019 22:00:00 11.81667 C 10.11 g/m*3 11.82 C 0 km/h
888 08-09-2019 23:00:00 11.71667 C 10.05 g/m*3 11.72 C 0 km/h
889 09-09-2019 00:00:00 11.45 C 9.88 g/m*3 11.45 C 0 km/h
890 09-09-2019 01:00:00 11.26667 C 9.78 g/m*3 11.27 C 0.26667 km/h
891 09-09-2019 02:00:00 11.29167 C 9.87 g/m*3 11.29 C 0 km/h
892 09-09-2019 03:00:00 11.36667 C 9.94 g/m*3 11.37 C 0 km/h
893 09-09-2019 04:00:00 11.36667 C 9.94 g/m*3 11.37 C 0 km/h
894 09-09-2019 05:00:00 11.29167 C 9.89 g/m*3 11.29 C 0 km/h
895 09-09-2019 06:00:00 11.3 C 9.89 g/m*3 11.3 C 0 km/h
896 09-09-2019 07:00:00 11.275 C 9.88 g/m*3 11.28 C 0 km/h
897 09-09-2019 08:00:00 11.39167 C 9.95 g/m*3 11.39 C 0 km/h
898 09-09-2019 09:00:00 12.01667 C 10.35 g/m*3 12.02 C 0.26667 km/h
899 09-09-2019 10:00:00 12.23333 C 10.49 g/m*3 12.23 C 0.13333 km/h
900 09-09-2019 11:00:00 12.55833 C 10.62 g/m*3 12.56 C 2.66667 km/h
Sensor: Nr:Datum:Temp:Abs-Feuchte:Windchill:Wind:
Aussen-T/F 901 09-09-2019 12:00:00 13.15 C 10.48 g/m*3 13.15 C 1.73333 km/h
902 09-09-2019 13:00:00 14.2 C 10.57 g/m*3 14.2 C 2.4 km/h
903 09-09-2019 14:00:00 14.81667 C 10.11 g/m*3 14.82 C 1.73333 km/h
904 09-09-2019 15:00:00 15.175 C 10.39 g/m*3 15.18 C 0.8 km/h
905 09-09-2019 16:00:00 15.475 C 10.21 g/m*3 15.48 C 1.06667 km/h
906 09-09-2019 17:00:00 15.74167 C 9.89 g/m*3 15.74 C 1.33333 km/h
907 09-09-2019 18:00:00 16.33333 C 10.25 g/m*3 16.33 C 1.46667 km/h
908 09-09-2019 19:00:00 14.35 C 10.11 g/m*3 14.35 C 0.53333 km/h
909 09-09-2019 20:00:00 12.00833 C 9.36 g/m*3 12.01 C 0.4 km/h
910 09-09-2019 21:00:00 10.79167 C 8.96 g/m*3 10.79 C 0.13333 km/h
911 09-09-2019 22:00:00 10.05 C 8.74 g/m*3 10.05 C 0 km/h
912 09-09-2019 23:00:00 9.30833 C 8.44 g/m*3 9.31 C 0 km/h
913 10-09-2019 00:00:00 8.75833 C 8.22 g/m*3 8.76 C 0 km/h
914 10-09-2019 01:00:00 8.44167 C 8.09 g/m*3 8.44 C 0 km/h
915 10-09-2019 02:00:00 8.3 C 8.07 g/m*3 8.3 C 0 km/h
916 10-09-2019 03:00:00 8.625 C 8.26 g/m*3 8.63 C 0.53333 km/h
917 10-09-2019 04:00:00 8.65 C 8.28 g/m*3 8.65 C 0.66667 km/h
918 10-09-2019 05:00:00 8.55833 C 8.24 g/m*3 8.56 C 0.26667 km/h
919 10-09-2019 06:00:00 8.2 C 8.1 g/m*3 8.2 C 0.8 km/h
920 10-09-2019 07:00:00 8.225 C 8.14 g/m*3 8.23 C 0.13333 km/h
921 10-09-2019 08:00:00 8.21667 C 8.13 g/m*3 8.22 C 2.26667 km/h
922 10-09-2019 09:00:00 8.45833 C 8.26 g/m*3 8.46 C 2.13333 km/h
923 10-09-2019 10:00:00 9.05 C 8.58 g/m*3 9.05 C 1.33333 km/h
924 10-09-2019 11:00:00 9.94167 C 9.08 g/m*3 9.94 C 2.26667 km/h
925 10-09-2019 12:00:00 11.78333 C 9.92 g/m*3 11.78 C 0.4 km/h
Sensor: Nr:Datum:Temp:Abs-Feuchte:Windchill:Wind:
Aussen-T/F 926 10-09-2019 13:00:00 14.85833 C 9.92 g/m*3 14.86 C 1.6 km/h
927 10-09-2019 14:00:00 17.25 C 9.44 g/m*3 17.25 C 3.60833 km/h
928 10-09-2019 15:00:00 18.43333 C 9.19 g/m*3 18.43 C 5.36667 km/h
929 10-09-2019 16:00:00 19.65 C 8.8 g/m*3 19.65 C 8.20833 km/h
930 10-09-2019 17:00:00 18.38333 C 10.55 g/m*3 18.38 C 0.8 km/h
931 10-09-2019 18:00:00 18.33333 C 10.97 g/m*3 18.33 C 0 km/h
932 10-09-2019 19:00:00 16.4 C 10.1 g/m*3 16.4 C 0.13333 km/h
933 10-09-2019 20:00:00 13.775 C 8.93 g/m*3 13.78 C 0 km/h
934 10-09-2019 21:00:00 12.03333 C 8.86 g/m*3 12.03 C 0 km/h
935 10-09-2019 22:00:00 10.66667 C 8.52 g/m*3 10.67 C 0 km/h
936 10-09-2019 23:00:00 9.78333 C 8.23 g/m*3 9.78 C 0 km/h
937 11-09-2019 00:00:00 9.2 C 8.04 g/m*3 9.2 C 0 km/h
938 11-09-2019 01:00:00 8.61667 C 7.86 g/m*3 8.62 C 0 km/h
939 11-09-2019 02:00:00 8.04167 C 7.69 g/m*3 8.04 C 0.13333 km/h
940 11-09-2019 03:00:00 7.64167 C 7.55 g/m*3 7.64 C 0 km/h
941 11-09-2019 04:00:00 7.26667 C 7.41 g/m*3 7.27 C 0 km/h
942 11-09-2019 05:00:00 6.90833 C 7.3 g/m*3 6.91 C 0 km/h
943 11-09-2019 06:00:00 6.65833 C 7.2 g/m*3 6.66 C 0 km/h
944 11-09-2019 07:00:00 6.55 C 7.2 g/m*3 6.55 C 0.675 km/h
945 11-09-2019 08:00:00 7.99167 C 7.97 g/m*3 7.99 C 1.60833 km/h
946 11-09-2019 09:00:00 9.51667 C 8.59 g/m*3 9.52 C 2.8 km/h
947 11-09-2019 10:00:00 10.85 C 9.29 g/m*3 10.85 C 0 km/h
948 11-09-2019 11:00:00 13.10833 C 10.13 g/m*3 13.11 C 1.6 km/h
949 11-09-2019 12:00:00 17.29167 C 9.85 g/m*3 17.29 C 9.41667 km/h
950 11-09-2019 13:00:00 19.9 C 9.95 g/m*3 19.9 C 12.75833 km/h
Sensor: Nr:Datum:Temp:Abs-Feuchte:Windchill:Wind:
Aussen-T/F 951 11-09-2019 14:00:00 20.58333 C 9.88 g/m*3 20.58 C 16.5 km/h
952 11-09-2019 15:00:00 20.53333 C 10.07 g/m*3 20.53 C 10.225 km/h
953 11-09-2019 16:00:00 20.03333 C 11.17 g/m*3 20.03 C 4.825 km/h
954 11-09-2019 17:00:00 19.16667 C 10.86 g/m*3 19.17 C 8.45833 km/h
955 11-09-2019 18:00:00 18.35833 C 10.7 g/m*3 18.36 C 3.75833 km/h
956 11-09-2019 19:00:00 17.26667 C 10.41 g/m*3 17.27 C 3.20833 km/h
957 11-09-2019 20:00:00 16.50833 C 10.64 g/m*3 16.51 C 0.93333 km/h
958 11-09-2019 21:00:00 16.275 C 10.82 g/m*3 16.27 C 0.93333 km/h
959 11-09-2019 22:00:00 16.41667 C 11.06 g/m*3 16.42 C 0.93333 km/h
960 11-09-2019 23:00:00 15.7 C 11.15 g/m*3 15.7 C 0.93333 km/h
961 12-09-2019 00:00:00 15.51667 C 10.97 g/m*3 15.52 C 1.86667 km/h
962 12-09-2019 01:00:00 16.14167 C 11.09 g/m*3 16.14 C 1.74167 km/h
963 12-09-2019 02:00:00 17.23333 C 10.81 g/m*3 17.23 C 6.975 km/h
964 12-09-2019 03:00:00 17.24167 C 11 g/m*3 17.24 C 6.70833 km/h
965 12-09-2019 04:00:00 17.05 C 11.08 g/m*3 17.05 C 2.93333 km/h
966 12-09-2019 05:00:00 16.975 C 11.25 g/m*3 16.98 C 8.31667 km/h
967 12-09-2019 06:00:00 16.9 C 11.4 g/m*3 16.9 C 5.75833 km/h
968 12-09-2019 07:00:00 16.24167 C 11.53 g/m*3 16.24 C 0.8 km/h
969 12-09-2019 08:00:00 16.83333 C 12.06 g/m*3 16.83 C 5.76667 km/h
970 12-09-2019 09:00:00 17.40833 C 12.53 g/m*3 17.41 C 9.025 km/h
971 12-09-2019 10:00:00 18.21667 C 13.08 g/m*3 18.22 C 11.15833 km/h
972 12-09-2019 11:00:00 19.21667 C 13.52 g/m*3 19.22 C 9.01667 km/h
973 12-09-2019 12:00:00 20.25833 C 13.93 g/m*3 20.26 C 10.34167 km/h
974 12-09-2019 13:00:00 20.9 C 14.27 g/m*3 20.9 C 7.79167 km/h
975 12-09-2019 14:00:00 21.38333 C 14.69 g/m*3 21.38 C 1.6 km/h
Sensor: Nr:Datum:Temp:Abs-Feuchte:Windchill:Wind:
Aussen-T/F 976 12-09-2019 15:00:00 22.25833 C 14.77 g/m*3 22.26 C 4.025 km/h
977 12-09-2019 16:00:00 22.95 C 14.67 g/m*3 22.95 C 7.91667 km/h
978 12-09-2019 17:00:00 24.44167 C 14.46 g/m*3 24.44 C 11.83333 km/h
979 12-09-2019 18:00:00 24.95833 C 14.66 g/m*3 24.96 C 6.56667 km/h
980 12-09-2019 19:00:00 22.86667 C 14.23 g/m*3 22.87 C 0.53333 km/h
981 12-09-2019 20:00:00 19.11667 C 13.29 g/m*3 19.12 C 0.4 km/h
982 12-09-2019 21:00:00 18.225 C 13.19 g/m*3 18.23 C 0.26667 km/h
983 12-09-2019 22:00:00 18.35 C 13.17 g/m*3 18.35 C 0.4 km/h
984 12-09-2019 23:00:00 17.06667 C 12.6 g/m*3 17.07 C 0 km/h
985 13-09-2019 00:00:00 15.98333 C 12.26 g/m*3 15.98 C 0.93333 km/h
986 13-09-2019 01:00:00 15.55 C 12.18 g/m*3 15.55 C 3.6 km/h
987 13-09-2019 02:00:00 15.25 C 12.05 g/m*3 15.25 C 1.46667 km/h
988 13-09-2019 03:00:00 15.1 C 12.07 g/m*3 15.1 C 1.06667 km/h
989 13-09-2019 04:00:00 15.575 C 12.4 g/m*3 15.58 C 2.93333 km/h
990 13-09-2019 05:00:00 16.19167 C 12.55 g/m*3 16.19 C 6.84167 km/h
991 13-09-2019 06:00:00 16.25833 C 12.58 g/m*3 16.26 C 4.3 km/h
992 13-09-2019 07:00:00 16.64167 C 12.75 g/m*3 16.64 C 2.94167 km/h
993 13-09-2019 08:00:00 16.85833 C 13.01 g/m*3 16.86 C 0.8 km/h
994 13-09-2019 09:00:00 17.49167 C 13.31 g/m*3 17.49 C 2 km/h
995 13-09-2019 10:00:00 18.51667 C 13.63 g/m*3 18.52 C 0.8 km/h
996 13-09-2019 11:00:00 19.6 C 13.91 g/m*3 19.6 C 2.8 km/h
997 13-09-2019 12:00:00 20.35 C 14.02 g/m*3 20.35 C 1.2 km/h
998 13-09-2019 13:00:00 20.60833 C 13.82 g/m*3 20.61 C 4.675 km/h
999 13-09-2019 14:00:00 21.16667 C 14.03 g/m*3 21.17 C 6.15833 km/h
1000 13-09-2019 15:00:00 20.85833 C 14.13 g/m*3 20.86 C 12.76667 km/h
Sensor: Nr:Datum:Temp:Abs-Feuchte:Windchill:Wind:
Aussen-T/F 1001 13-09-2019 16:00:00 19.325 C 14.49 g/m*3 19.33 C 5.90833 km/h
1002 13-09-2019 17:00:00 19.20833 C 14.74 g/m*3 19.21 C 0 km/h
1003 13-09-2019 18:00:00 20 C 15.42 g/m*3 20 C 0 km/h
1004 13-09-2019 19:00:00 19.48333 C 14.46 g/m*3 19.48 C 0 km/h
1005 13-09-2019 20:00:00 17.60833 C 13.73 g/m*3 17.61 C 0.26667 km/h
1006 13-09-2019 21:00:00 16.95 C 13.39 g/m*3 16.95 C 0 km/h
1007 13-09-2019 22:00:00 16.25833 C 12.87 g/m*3 16.26 C 0 km/h
1008 13-09-2019 23:00:00 15.48333 C 12.38 g/m*3 15.48 C 0 km/h
1009 14-09-2019 00:00:00 15.39167 C 12.41 g/m*3 15.39 C 0 km/h
1010 14-09-2019 01:00:00 14.63333 C 11.86 g/m*3 14.63 C 0 km/h
1011 14-09-2019 02:00:00 13.525 C 11.07 g/m*3 13.53 C 0 km/h
1012 14-09-2019 03:00:00 12.70833 C 10.58 g/m*3 12.71 C 0 km/h
1013 14-09-2019 04:00:00 12.00833 C 10.18 g/m*3 12.01 C 0 km/h
1014 14-09-2019 05:00:00 11.31667 C 9.79 g/m*3 11.32 C 0 km/h
1015 14-09-2019 06:00:00 10.78333 C 9.48 g/m*3 10.78 C 0 km/h
1016 14-09-2019 07:00:00 10.4 C 9.25 g/m*3 10.4 C 0 km/h
1017 14-09-2019 08:00:00 10.40833 C 9.26 g/m*3 10.41 C 0 km/h
1018 14-09-2019 09:00:00 11.00833 C 9.71 g/m*3 11.01 C 0.13333 km/h
1019 14-09-2019 10:00:00 12.25833 C 10.51 g/m*3 12.26 C 0.26667 km/h
1020 14-09-2019 11:00:00 13.69167 C 11.26 g/m*3 13.69 C 0.26667 km/h
1021 14-09-2019 12:00:00 16.14167 C 11.54 g/m*3 16.14 C 0.8 km/h
1022 14-09-2019 13:00:00 18.675 C 11.2 g/m*3 18.68 C 3.74167 km/h
1023 14-09-2019 14:00:00 20.43333 C 11.02 g/m*3 20.43 C 4.95 km/h
1024 14-09-2019 15:00:00 21.74167 C 10.66 g/m*3 21.74 C 5.35833 km/h
1025 14-09-2019 16:00:00 22.44167 C 10.43 g/m*3 22.44 C 4.3 km/h
Sensor: Nr:Datum:Temp:Abs-Feuchte:Windchill:Wind:
Aussen-T/F 1026 14-09-2019 17:00:00 24.14167 C 10.29 g/m*3 24.14 C 4.81667 km/h
1027 14-09-2019 18:00:00 23.6 C 11.63 g/m*3 23.6 C 0 km/h
1028 14-09-2019 19:00:00 19.45833 C 10.87 g/m*3 19.46 C 0.13333 km/h
1029 14-09-2019 20:00:00 16.95833 C 10.12 g/m*3 16.96 C 0 km/h
1030 14-09-2019 21:00:00 15.96667 C 10.01 g/m*3 15.97 C 0 km/h
1031 14-09-2019 22:00:00 13.8 C 9.68 g/m*3 13.8 C 0 km/h
1032 14-09-2019 23:00:00 12.48333 C 9.38 g/m*3 12.48 C 0 km/h
1033 15-09-2019 00:00:00 11.65 C 9.12 g/m*3 11.65 C 0 km/h
1034 15-09-2019 01:00:00 10.825 C 8.89 g/m*3 10.83 C 0 km/h
1035 15-09-2019 02:00:00 10.375 C 8.83 g/m*3 10.38 C 0 km/h
1036 15-09-2019 03:00:00 10.16667 C 8.79 g/m*3 10.17 C 0.13333 km/h
1037 15-09-2019 04:00:00 9.75833 C 8.61 g/m*3 9.76 C 0.13333 km/h
1038 15-09-2019 05:00:00 9.31667 C 8.46 g/m*3 9.32 C 0 km/h
1039 15-09-2019 06:00:00 8.76667 C 8.17 g/m*3 8.77 C 0 km/h
1040 15-09-2019 07:00:00 8.775 C 8.26 g/m*3 8.78 C 0.53333 km/h
1041 15-09-2019 08:00:00 9.29167 C 8.62 g/m*3 9.29 C 0.53333 km/h
1042 15-09-2019 09:00:00 10.03333 C 9.04 g/m*3 10.03 C 0 km/h
1043 15-09-2019 10:00:00 11.35833 C 9.83 g/m*3 11.36 C 0 km/h
1044 15-09-2019 11:00:00 13.71667 C 11.23 g/m*3 13.72 C 0 km/h
1045 15-09-2019 12:00:00 16.96667 C 12.32 g/m*3 16.97 C 0 km/h
1046 15-09-2019 13:00:00 20.45833 C 12.4 g/m*3 20.46 C 0 km/h
1047 15-09-2019 14:00:00 22.79167 C 12.41 g/m*3 22.79 C 0.53333 km/h
1048 15-09-2019 15:00:00 24.05 C 12.35 g/m*3 24.05 C 0.53333 km/h
1049 15-09-2019 16:00:00 24.65833 C 11.93 g/m*3 24.66 C 2.66667 km/h
1050 15-09-2019 17:00:00 25.84167 C 11.52 g/m*3 25.84 C 1.6 km/h
Sensor: Nr:Datum:Temp:Abs-Feuchte:Windchill:Wind:
Aussen-T/F 1051 15-09-2019 18:00:00 26.43333 C 11.47 g/m*3 26.43 C 0.4 km/h
1052 15-09-2019 19:00:00 21.96667 C 11.11 g/m*3 21.97 C 0 km/h
1053 15-09-2019 20:00:00 18.225 C 9.86 g/m*3 18.23 C 0 km/h
1054 15-09-2019 21:00:00 16.76667 C 9.56 g/m*3 16.77 C 0 km/h
1055 15-09-2019 22:00:00 14.475 C 9.48 g/m*3 14.48 C 0 km/h
1056 15-09-2019 23:00:00 12.99167 C 9.21 g/m*3 12.99 C 0 km/h
1057 16-09-2019 00:00:00 12.55 C 9.24 g/m*3 12.55 C 0 km/h
1058 16-09-2019 01:00:00 12.25833 C 9.26 g/m*3 12.26 C 0.53333 km/h
1059 16-09-2019 02:00:00 11.41667 C 9.02 g/m*3 11.42 C 0.26667 km/h
1060 16-09-2019 03:00:00 11.11667 C 9.09 g/m*3 11.12 C 0.4 km/h
1061 16-09-2019 04:00:00 11.45833 C 9.31 g/m*3 11.46 C 0.66667 km/h
1062 16-09-2019 05:00:00 11.51667 C 9.27 g/m*3 11.52 C 0.4 km/h
1063 16-09-2019 06:00:00 11.23333 C 9.22 g/m*3 11.23 C 0 km/h
1064 16-09-2019 07:00:00 11.31667 C 9.35 g/m*3 11.32 C 0.13333 km/h
1065 16-09-2019 08:00:00 12.075 C 9.65 g/m*3 12.08 C 1.2 km/h
1066 16-09-2019 09:00:00 13.4 C 10.02 g/m*3 13.4 C 1.06667 km/h
1067 16-09-2019 10:00:00 14.99167 C 10.52 g/m*3 14.99 C 0.93333 km/h
1068 16-09-2019 11:00:00 17.41667 C 11.29 g/m*3 17.42 C 1.33333 km/h
1069 16-09-2019 12:00:00 19.64167 C 11.69 g/m*3 19.64 C 4.40833 km/h
1070 16-09-2019 13:00:00 21.18333 C 11.4 g/m*3 21.18 C 5.9 km/h
1071 16-09-2019 14:00:00 22.05 C 11.19 g/m*3 22.05 C 4.26667 km/h
1072 16-09-2019 15:00:00 22.075 C 11.53 g/m*3 22.08 C 4.275 km/h
1073 16-09-2019 16:00:00 22.10833 C 10.87 g/m*3 22.11 C 7.65 km/h
1074 16-09-2019 17:00:00 21.8 C 11.67 g/m*3 21.8 C 7.525 km/h
1075 16-09-2019 18:00:00 20.725 C 11.4 g/m*3 20.73 C 4.95 km/h
Sensor: Nr:Datum:Temp:Abs-Feuchte:Windchill:Wind:
Aussen-T/F 1076 16-09-2019 19:00:00 19.71667 C 11.57 g/m*3 19.72 C 8.46667 km/h
1077 16-09-2019 20:00:00 17.64167 C 12.45 g/m*3 17.64 C 2.275 km/h
1078 16-09-2019 21:00:00 16.74167 C 12.53 g/m*3 16.74 C 1.46667 km/h
1079 16-09-2019 22:00:00 16.43333 C 12.39 g/m*3 16.43 C 4.825 km/h
1080 16-09-2019 23:00:00 15.4 C 12.03 g/m*3 15.4 C 4.14167 km/h
1081 17-09-2019 00:00:00 15.05833 C 11.74 g/m*3 15.06 C 1.73333 km/h
1082 17-09-2019 01:00:00 14.81667 C 11.42 g/m*3 14.82 C 4 km/h
1083 17-09-2019 02:00:00 14.66667 C 11.26 g/m*3 14.67 C 3.475 km/h
1084 17-09-2019 03:00:00 14.54167 C 11.1 g/m*3 14.54 C 1.46667 km/h
1085 17-09-2019 04:00:00 14.30833 C 11.03 g/m*3 14.31 C 0.4 km/h
1086 17-09-2019 05:00:00 14.16667 C 11 g/m*3 14.17 C 0.53333 km/h
1087 17-09-2019 06:00:00 14.1 C 10.95 g/m*3 14.1 C 3.74167 km/h
1088 17-09-2019 07:00:00 14.01667 C 10.81 g/m*3 14.02 C 1.86667 km/h
1089 17-09-2019 08:00:00 14 C 10.57 g/m*3 14 C 4.00833 km/h
1090 17-09-2019 09:00:00 14.04167 C 10.08 g/m*3 14.04 C 8.33333 km/h
1091 17-09-2019 10:00:00 14.925 C 9.51 g/m*3 14.93 C 11.29167 km/h
1092 17-09-2019 11:00:00 15.73333 C 9.52 g/m*3 15.73 C 11.56667 km/h
1093 17-09-2019 12:00:00 16.125 C 9.35 g/m*3 16.13 C 13.83333 km/h
1094 17-09-2019 13:00:00 16.625 C 9.11 g/m*3 16.63 C 13.43333 km/h
1095 17-09-2019 14:00:00 17.44167 C 9.01 g/m*3 17.44 C 13.43333 km/h
1096 17-09-2019 15:00:00 17.66667 C 8.72 g/m*3 17.67 C 12.1 km/h
1097 17-09-2019 16:00:00 18.05833 C 8.61 g/m*3 18.06 C 12.76667 km/h
1098 17-09-2019 17:00:00 18.125 C 8.63 g/m*3 18.13 C 11.41667 km/h
1099 17-09-2019 18:00:00 18.45 C 8.52 g/m*3 18.45 C 13.43333 km/h
1100 17-09-2019 19:00:00 17.3 C 8.79 g/m*3 17.3 C 5.775 km/h
Sensor: Nr:Datum:Temp:Abs-Feuchte:Windchill:Wind:
Aussen-T/F 1101 17-09-2019 20:00:00 16.71667 C 8.94 g/m*3 16.72 C 6.03333 km/h
1102 17-09-2019 21:00:00 16.00833 C 8.74 g/m*3 16.01 C 12.36667 km/h
1103 17-09-2019 22:00:00 14.55833 C 7.86 g/m*3 14.56 C 11.7 km/h
1104 17-09-2019 23:00:00 13.40833 C 7.65 g/m*3 13.41 C 6.45 km/h
1105 18-09-2019 00:00:00 11.80833 C 7.43 g/m*3 11.81 C 3.86667 km/h
1106 18-09-2019 01:00:00 10.83333 C 7.47 g/m*3 10.83 C 2.8 km/h
1107 18-09-2019 02:00:00 9.26667 C 7.32 g/m*3 9.27 C 0 km/h
1108 18-09-2019 03:00:00 8.25 C 7.19 g/m*3 8.25 C 0 km/h
1109 18-09-2019 04:00:00 7.425 C 7.05 g/m*3 7.43 C 0 km/h
1110 18-09-2019 05:00:00 6.76667 C 6.89 g/m*3 6.77 C 0 km/h
1111 18-09-2019 06:00:00 6.08333 C 6.7 g/m*3 6.08 C 0 km/h
1112 18-09-2019 07:00:00 5.8 C 6.67 g/m*3 5.8 C 0 km/h
1113 18-09-2019 08:00:00 6.10833 C 6.87 g/m*3 6.11 C 0 km/h
1114 18-09-2019 09:00:00 7.01667 C 7.37 g/m*3 7.02 C 0 km/h
1115 18-09-2019 10:00:00 8.375 C 8.05 g/m*3 8.38 C 0 km/h
1116 18-09-2019 11:00:00 10.625 C 8.65 g/m*3 10.63 C 1.33333 km/h
1117 18-09-2019 12:00:00 13.6 C 8.4 g/m*3 13.6 C 5.61667 km/h
1118 18-09-2019 13:00:00 15.1 C 7.76 g/m*3 15.1 C 9 km/h
1119 18-09-2019 14:00:00 16.25 C 7.43 g/m*3 16.25 C 9.54167 km/h
1120 18-09-2019 15:00:00 17.00833 C 7.27 g/m*3 17.01 C 8.86667 km/h
1121 18-09-2019 16:00:00 17.225 C 7.48 g/m*3 17.23 C 9.95 km/h
1122 18-09-2019 17:00:00 18.14167 C 7.1 g/m*3 18.14 C 11.56667 km/h
1123 18-09-2019 18:00:00 18.08333 C 6.92 g/m*3 18.08 C 8.58333 km/h
1124 18-09-2019 19:00:00 15.75 C 7.28 g/m*3 15.75 C 1.06667 km/h
1125 18-09-2019 20:00:00 12.30833 C 7.28 g/m*3 12.31 C 0 km/h
Sensor: Nr:Datum:Temp:Abs-Feuchte:Windchill:Wind:
Aussen-T/F 1126 18-09-2019 21:00:00 11.525 C 7.45 g/m*3 11.53 C 0 km/h
1127 18-09-2019 22:00:00 10.68333 C 7.43 g/m*3 10.68 C 0 km/h
1128 18-09-2019 23:00:00 9.85833 C 7.44 g/m*3 9.86 C 0 km/h
1129 19-09-2019 00:00:00 9.16667 C 7.4 g/m*3 9.17 C 0 km/h
1130 19-09-2019 01:00:00 8.5 C 7.23 g/m*3 8.5 C 0 km/h
1131 19-09-2019 02:00:00 7.20833 C 6.97 g/m*3 7.21 C 0 km/h
1132 19-09-2019 03:00:00 6.58333 C 6.86 g/m*3 6.58 C 0 km/h
1133 19-09-2019 04:00:00 6.08333 C 6.73 g/m*3 6.08 C 0 km/h
1134 19-09-2019 05:00:00 5.65833 C 6.6 g/m*3 5.66 C 0 km/h
1135 19-09-2019 06:00:00 5.26667 C 6.48 g/m*3 5.27 C 0 km/h
1136 19-09-2019 07:00:00 5.14167 C 6.45 g/m*3 5.14 C 0 km/h
1137 19-09-2019 08:00:00 5.33333 C 6.59 g/m*3 5.33 C 0 km/h
1138 19-09-2019 09:00:00 6.31667 C 7.08 g/m*3 6.32 C 0 km/h
1139 19-09-2019 10:00:00 7.725 C 7.8 g/m*3 7.73 C 0 km/h
1140 19-09-2019 11:00:00 9.70833 C 8.42 g/m*3 9.71 C 0.4 km/h
1141 19-09-2019 12:00:00 13.33333 C 7.53 g/m*3 13.33 C 10.35833 km/h
1142 19-09-2019 13:00:00 14.46667 C 7.05 g/m*3 14.47 C 6.3 km/h
1143 19-09-2019 14:00:00 15.7 C 6.76 g/m*3 15.7 C 7.38333 km/h
1144 19-09-2019 15:00:00 16.48333 C 6.7 g/m*3 16.48 C 9.54167 km/h
1145 19-09-2019 16:00:00 17.08333 C 6.67 g/m*3 17.08 C 9.28333 km/h
1146 19-09-2019 17:00:00 18.04167 C 6.51 g/m*3 18.04 C 8.59167 km/h
1147 19-09-2019 18:00:00 18.01667 C 6.64 g/m*3 18.02 C 4.96667 km/h
1148 19-09-2019 19:00:00 15.00833 C 7.05 g/m*3 15.01 C 0 km/h
1149 19-09-2019 20:00:00 11.975 C 6.78 g/m*3 11.98 C 0 km/h
1150 19-09-2019 21:00:00 10.525 C 6.78 g/m*3 10.53 C 0 km/h
Sensor: Nr:Datum:Temp:Abs-Feuchte:Windchill:Wind:
Aussen-T/F 1151 19-09-2019 22:00:00 9.59167 C 6.78 g/m*3 9.59 C 0 km/h
1152 19-09-2019 23:00:00 8.45 C 6.65 g/m*3 8.45 C 0 km/h
1153 20-09-2019 00:00:00 7.625 C 6.46 g/m*3 7.63 C 0 km/h
1154 20-09-2019 01:00:00 7.05 C 6.42 g/m*3 7.05 C 0 km/h
1155 20-09-2019 02:00:00 6.21667 C 6.27 g/m*3 6.22 C 0 km/h
1156 20-09-2019 03:00:00 5.75 C 6.19 g/m*3 5.75 C 0 km/h
1157 20-09-2019 04:00:00 5.15 C 6.09 g/m*3 5.15 C 0 km/h
1158 20-09-2019 05:00:00 4.69167 C 6.03 g/m*3 4.69 C 0 km/h
1159 20-09-2019 06:00:00 4.325 C 5.97 g/m*3 4.33 C 0 km/h
1160 20-09-2019 07:00:00 4.125 C 5.96 g/m*3 4.13 C 0 km/h
1161 20-09-2019 08:00:00 4.65 C 6.24 g/m*3 4.65 C 0 km/h
1162 20-09-2019 09:00:00 5.625 C 6.69 g/m*3 5.63 C 0 km/h
1163 20-09-2019 10:00:00 7.39167 C 7.47 g/m*3 7.39 C 0 km/h
1164 20-09-2019 11:00:00 10 C 8.1 g/m*3 10 C 0 km/h
1165 20-09-2019 12:00:00 13.41667 C 7.68 g/m*3 13.42 C 4.95833 km/h
1166 20-09-2019 13:00:00 15.83333 C 7.25 g/m*3 15.83 C 5.21667 km/h
1167 20-09-2019 14:00:00 17.63333 C 7.14 g/m*3 17.63 C 7.11667 km/h
1168 20-09-2019 15:00:00 18.525 C 6.89 g/m*3 18.52 C 7.925 km/h
1169 20-09-2019 16:00:00 19.26667 C 7.01 g/m*3 19.27 C 9.28333 km/h
1170 20-09-2019 17:00:00 20.33333 C 7.02 g/m*3 20.33 C 8.59167 km/h
1171 20-09-2019 18:00:00 20.525 C 7.17 g/m*3 20.53 C 4.55 km/h
1172 20-09-2019 19:00:00 15.85 C 7.09 g/m*3 15.85 C 0.8 km/h
1173 20-09-2019 20:00:00 13.7 C 6.96 g/m*3 13.7 C 1.33333 km/h
1174 20-09-2019 21:00:00 11.68333 C 7.14 g/m*3 11.68 C 0 km/h
1175 20-09-2019 22:00:00 9.525 C 6.97 g/m*3 9.53 C 0 km/h
Sensor: Nr:Datum:Temp:Abs-Feuchte:Windchill:Wind:
Aussen-T/F 1176 20-09-2019 23:00:00 8.425 C 6.87 g/m*3 8.43 C 0 km/h
1177 21-09-2019 00:00:00 7.44167 C 6.69 g/m*3 7.44 C 0 km/h
1178 21-09-2019 01:00:00 6.85 C 6.55 g/m*3 6.85 C 0 km/h
1179 21-09-2019 02:00:00 6.34167 C 6.4 g/m*3 6.34 C 0 km/h
1180 21-09-2019 03:00:00 5.80833 C 6.27 g/m*3 5.81 C 0 km/h
1181 21-09-2019 04:00:00 5.45833 C 6.24 g/m*3 5.46 C 0 km/h
1182 21-09-2019 05:00:00 5.275 C 6.25 g/m*3 5.28 C 0 km/h
1183 21-09-2019 06:00:00 4.80833 C 6.1 g/m*3 4.81 C 0 km/h
1184 21-09-2019 07:00:00 4.60833 C 6.09 g/m*3 4.61 C 0 km/h
1185 21-09-2019 08:00:00 4.725 C 6.21 g/m*3 4.72 C 0 km/h
1186 21-09-2019 09:00:00 5.79167 C 6.72 g/m*3 5.79 C 0 km/h
1187 21-09-2019 10:00:00 8.225 C 7.58 g/m*3 8.23 C 0 km/h
1188 21-09-2019 11:00:00 11.40833 C 8.4 g/m*3 11.41 C 0 km/h
1189 21-09-2019 12:00:00 14.95 C 8.6 g/m*3 14.95 C 0.66667 km/h
1190 21-09-2019 13:00:00 18.2 C 7.78 g/m*3 18.2 C 4 km/h
1191 21-09-2019 14:00:00 21.43333 C 6.23 g/m*3 21.43 C 7.24167 km/h
1192 21-09-2019 15:00:00 22.63333 C 6.11 g/m*3 22.63 C 7.925 km/h
1193 21-09-2019 16:00:00 23.23333 C 6.53 g/m*3 23.23 C 7.375 km/h
1194 21-09-2019 17:00:00 24.65833 C 7.13 g/m*3 24.66 C 5.09167 km/h
1195 21-09-2019 18:00:00 22.74167 C 7.97 g/m*3 22.74 C 0.66667 km/h
1196 21-09-2019 19:00:00 18.49167 C 7.54 g/m*3 18.49 C 1.6 km/h
1197 21-09-2019 20:00:00 16.16667 C 7.62 g/m*3 16.17 C 0.66667 km/h
1198 21-09-2019 21:00:00 13.66667 C 7.8 g/m*3 13.67 C 0 km/h
1199 21-09-2019 22:00:00 11.99167 C 7.62 g/m*3 11.99 C 0 km/h
1200 21-09-2019 23:00:00 10.88333 C 7.52 g/m*3 10.88 C 0 km/h
Sensor: Nr:Datum:Temp:Abs-Feuchte:Windchill:Wind:
Aussen-T/F 1201 22-09-2019 00:00:00 9.825 C 7.43 g/m*3 9.82 C 0 km/h
1202 22-09-2019 01:00:00 9.08333 C 7.39 g/m*3 9.08 C 0 km/h
1203 22-09-2019 02:00:00 8.425 C 7.24 g/m*3 8.43 C 0 km/h
1204 22-09-2019 03:00:00 7.96667 C 7.23 g/m*3 7.97 C 0 km/h
1205 22-09-2019 04:00:00 7.39167 C 7.07 g/m*3 7.39 C 0 km/h
1206 22-09-2019 05:00:00 7.06667 C 7.06 g/m*3 7.07 C 0 km/h
1207 22-09-2019 06:00:00 6.99167 C 7.12 g/m*3 6.99 C 0 km/h
1208 22-09-2019 07:00:00 6.93333 C 7.14 g/m*3 6.93 C 0 km/h
1209 22-09-2019 08:00:00 7.55833 C 7.47 g/m*3 7.56 C 0 km/h
1210 22-09-2019 09:00:00 8.63333 C 8.02 g/m*3 8.63 C 0 km/h
1211 22-09-2019 10:00:00 11.05 C 9.19 g/m*3 11.05 C 0 km/h
1212 22-09-2019 11:00:00 14.83333 C 10.13 g/m*3 14.83 C 0 km/h
1213 22-09-2019 12:00:00 17.68333 C 10.99 g/m*3 17.68 C 0 km/h
1214 22-09-2019 13:00:00 20.70833 C 11.63 g/m*3 20.71 C 0.26667 km/h
1215 22-09-2019 14:00:00 24.05 C 11.64 g/m*3 24.05 C 2.93333 km/h
1216 22-09-2019 15:00:00 24.85 C 11.36 g/m*3 24.85 C 3.86667 km/h
1217 22-09-2019 16:00:00 24.73333 C 12.25 g/m*3 24.73 C 0.8 km/h
1218 22-09-2019 17:00:00 23.48333 C 12.59 g/m*3 23.48 C 0 km/h
1219 22-09-2019 18:00:00 21.74167 C 12.24 g/m*3 21.74 C 0 km/h
1220 22-09-2019 19:00:00 20.33333 C 11.45 g/m*3 20.33 C 0 km/h
1221 22-09-2019 20:00:00 19.075 C 10.9 g/m*3 19.08 C 2 km/h
1222 22-09-2019 21:00:00 18.175 C 10.66 g/m*3 18.18 C 1.46667 km/h
1223 22-09-2019 22:00:00 18.3 C 10.92 g/m*3 18.3 C 0.13333 km/h
1224 22-09-2019 23:00:00 17.80833 C 11.4 g/m*3 17.81 C 0 km/h
1225 23-09-2019 00:00:00 17.55833 C 12.04 g/m*3 17.56 C 2.80833 km/h
Sensor: Nr:Datum:Temp:Abs-Feuchte:Windchill:Wind:
Aussen-T/F 1226 23-09-2019 01:00:00 18.375 C 12.81 g/m*3 18.38 C 3.33333 km/h
1227 23-09-2019 02:00:00 18.10833 C 12.21 g/m*3 18.11 C 9.26667 km/h
1228 23-09-2019 03:00:00 17.2 C 12.06 g/m*3 17.2 C 4.95 km/h
1229 23-09-2019 04:00:00 16.05833 C 11.82 g/m*3 16.06 C 0.93333 km/h
1230 23-09-2019 05:00:00 15.14167 C 11.8 g/m*3 15.14 C 1.86667 km/h
1231 23-09-2019 06:00:00 14.43333 C 11.53 g/m*3 14.43 C 0.26667 km/h
1232 23-09-2019 07:00:00 14.23333 C 11.52 g/m*3 14.23 C 0 km/h
1233 23-09-2019 08:00:00 14.25 C 11.64 g/m*3 14.25 C 0 km/h
1234 23-09-2019 09:00:00 14.74167 C 12.1 g/m*3 14.74 C 0 km/h
1235 23-09-2019 10:00:00 15.425 C 12.63 g/m*3 15.43 C 0.4 km/h
1236 23-09-2019 11:00:00 16.26667 C 13.08 g/m*3 16.27 C 2.8 km/h
1237 23-09-2019 12:00:00 17.06667 C 13.18 g/m*3 17.07 C 8.06667 km/h
1238 23-09-2019 13:00:00 18.2 C 12.67 g/m*3 18.2 C 10.49167 km/h
1239 23-09-2019 14:00:00 19.425 C 11.89 g/m*3 19.43 C 13.3 km/h
1240 23-09-2019 15:00:00 19.61667 C 11.63 g/m*3 19.62 C 12.36667 km/h
1241 23-09-2019 16:00:00 19.94167 C 11.61 g/m*3 19.94 C 14.36667 km/h
1242 23-09-2019 17:00:00 20.24167 C 11.57 g/m*3 20.24 C 12.49167 km/h
1243 23-09-2019 18:00:00 18.46667 C 11.71 g/m*3 18.47 C 1.2 km/h
1244 23-09-2019 19:00:00 16 C 11.16 g/m*3 16 C 0.13333 km/h
1245 23-09-2019 20:00:00 14.34167 C 10.75 g/m*3 14.34 C 0 km/h
1246 23-09-2019 21:00:00 13.96667 C 10.85 g/m*3 13.97 C 0 km/h
1247 23-09-2019 22:00:00 13.9 C 11.03 g/m*3 13.9 C 0 km/h
1248 23-09-2019 23:00:00 14.11667 C 11.21 g/m*3 14.12 C 0 km/h
1249 24-09-2019 00:00:00 14.33333 C 11.37 g/m*3 14.33 C 0 km/h
1250 24-09-2019 01:00:00 13.95 C 11.01 g/m*3 13.95 C 0 km/h
Sensor: Nr:Datum:Temp:Abs-Feuchte:Windchill:Wind:
Aussen-T/F 1251 24-09-2019 02:00:00 12.66667 C 10.28 g/m*3 12.67 C 0 km/h
1252 24-09-2019 03:00:00 11.96667 C 9.98 g/m*3 11.97 C 0 km/h
1253 24-09-2019 04:00:00 11.50833 C 9.77 g/m*3 11.51 C 0 km/h
1254 24-09-2019 05:00:00 10.675 C 9.31 g/m*3 10.68 C 0 km/h
1255 24-09-2019 06:00:00 10.25 C 9.1 g/m*3 10.25 C 0 km/h
1256 24-09-2019 07:00:00 9.89167 C 8.94 g/m*3 9.89 C 0 km/h
1257 24-09-2019 08:00:00 10.65 C 9.44 g/m*3 10.65 C 0 km/h
1258 24-09-2019 09:00:00 11.35833 C 9.93 g/m*3 11.36 C 0.8 km/h
1259 24-09-2019 10:00:00 12.49167 C 10.66 g/m*3 12.49 C 0 km/h
1260 24-09-2019 11:00:00 14.48333 C 11.78 g/m*3 14.48 C 0.93333 km/h
1261 24-09-2019 12:00:00 17.53333 C 12.03 g/m*3 17.53 C 3.88333 km/h
1262 24-09-2019 13:00:00 18.59167 C 11.6 g/m*3 18.59 C 6.44167 km/h
1263 24-09-2019 14:00:00 19.21667 C 11.33 g/m*3 19.22 C 1.60833 km/h
1264 24-09-2019 15:00:00 18.63333 C 11.3 g/m*3 18.63 C 0.66667 km/h
1265 24-09-2019 16:00:00 17.70833 C 12.37 g/m*3 17.71 C 0.93333 km/h
1266 24-09-2019 17:00:00 16.95 C 12.96 g/m*3 16.95 C 0 km/h
1267 24-09-2019 18:00:00 16.125 C 12.64 g/m*3 16.13 C 0 km/h
1268 24-09-2019 19:00:00 15.1 C 12.01 g/m*3 15.1 C 0 km/h
1269 24-09-2019 20:00:00 14.01667 C 11.37 g/m*3 14.02 C 0 km/h
1270 24-09-2019 21:00:00 13.65 C 11.21 g/m*3 13.65 C 0 km/h
1271 24-09-2019 22:00:00 13.64167 C 11.29 g/m*3 13.64 C 0 km/h
1272 24-09-2019 23:00:00 13.775 C 11.42 g/m*3 13.78 C 0 km/h
1273 25-09-2019 00:00:00 13.99167 C 11.57 g/m*3 13.99 C 0.13333 km/h
1274 25-09-2019 01:00:00 14.13333 C 11.72 g/m*3 14.13 C 1.34167 km/h
1275 25-09-2019 02:00:00 14.49167 C 11.93 g/m*3 14.49 C 3.35 km/h
Sensor: Nr:Datum:Temp:Abs-Feuchte:Windchill:Wind:
Aussen-T/F 1276 25-09-2019 03:00:00 14.6 C 12.01 g/m*3 14.6 C 0.4 km/h
1277 25-09-2019 04:00:00 14.55833 C 11.98 g/m*3 14.56 C 0.53333 km/h
1278 25-09-2019 05:00:00 14.01667 C 11.59 g/m*3 14.02 C 1.33333 km/h
1279 25-09-2019 06:00:00 13.64167 C 11.33 g/m*3 13.64 C 0.93333 km/h
1280 25-09-2019 07:00:00 13.61667 C 11.33 g/m*3 13.62 C 0.8 km/h
1281 25-09-2019 08:00:00 13.75 C 11.51 g/m*3 13.75 C 0 km/h
1282 25-09-2019 09:00:00 14.33333 C 11.94 g/m*3 14.33 C 1.33333 km/h
1283 25-09-2019 10:00:00 14.90833 C 12.03 g/m*3 14.91 C 8.475 km/h
1284 25-09-2019 11:00:00 16.225 C 11.94 g/m*3 16.23 C 13.69167 km/h
1285 25-09-2019 12:00:00 16.875 C 11.57 g/m*3 16.88 C 10.35833 km/h
1286 25-09-2019 13:00:00 17.38333 C 11.46 g/m*3 17.38 C 11.81667 km/h
1287 25-09-2019 14:00:00 17.38333 C 11.57 g/m*3 17.38 C 10.35833 km/h
1288 25-09-2019 15:00:00 16.325 C 12.4 g/m*3 16.33 C 4.8 km/h
1289 25-09-2019 16:00:00 17.08333 C 12.36 g/m*3 17.08 C 7.38333 km/h
1290 25-09-2019 17:00:00 17.53333 C 12.19 g/m*3 17.53 C 7.24167 km/h
1291 25-09-2019 18:00:00 16.775 C 11.91 g/m*3 16.77 C 2.54167 km/h
1292 25-09-2019 19:00:00 15.625 C 11.72 g/m*3 15.63 C 0.53333 km/h
1293 25-09-2019 20:00:00 15.10833 C 11.76 g/m*3 15.11 C 0 km/h
1294 25-09-2019 21:00:00 14.71667 C 11.69 g/m*3 14.72 C 0.13333 km/h
1295 25-09-2019 22:00:00 14.7 C 11.8 g/m*3 14.7 C 0 km/h
1296 25-09-2019 23:00:00 14.65833 C 11.93 g/m*3 14.66 C 0 km/h
1297 26-09-2019 00:00:00 14.55833 C 11.86 g/m*3 14.56 C 0.26667 km/h
1298 26-09-2019 01:00:00 14.23333 C 11.65 g/m*3 14.23 C 0 km/h
1299 26-09-2019 02:00:00 14.13333 C 11.67 g/m*3 14.13 C 0 km/h
1300 26-09-2019 03:00:00 13.60833 C 11.29 g/m*3 13.61 C 0 km/h
Sensor: Nr:Datum:Temp:Abs-Feuchte:Windchill:Wind:
Aussen-T/F 1301 26-09-2019 04:00:00 13.25833 C 11.08 g/m*3 13.26 C 0 km/h
1302 26-09-2019 05:00:00 13.90833 C 11.6 g/m*3 13.91 C 2.01667 km/h
1303 26-09-2019 06:00:00 14.125 C 11.78 g/m*3 14.13 C 0.53333 km/h
1304 26-09-2019 07:00:00 14.35833 C 11.84 g/m*3 14.36 C 0.13333 km/h
1305 26-09-2019 08:00:00 14.74167 C 12.12 g/m*3 14.74 C 0.26667 km/h
1306 26-09-2019 09:00:00 15.10833 C 12.35 g/m*3 15.11 C 0.4 km/h
1307 26-09-2019 10:00:00 15.86667 C 12.91 g/m*3 15.87 C 0.13333 km/h
1308 26-09-2019 11:00:00 16.59167 C 13.37 g/m*3 16.59 C 0.93333 km/h
1309 26-09-2019 12:00:00 17.61667 C 13.75 g/m*3 17.62 C 5.225 km/h
1310 26-09-2019 13:00:00 17.775 C 13.9 g/m*3 17.77 C 1.06667 km/h
1311 26-09-2019 14:00:00 17.51667 C 13.84 g/m*3 17.52 C 0.93333 km/h
1312 26-09-2019 15:00:00 18.05833 C 14.13 g/m*3 18.06 C 1.2 km/h
1313 26-09-2019 16:00:00 18.83333 C 14.32 g/m*3 18.83 C 4.15 km/h
1314 26-09-2019 17:00:00 18.91667 C 14.2 g/m*3 18.92 C 4.675 km/h
1315 26-09-2019 18:00:00 18.71667 C 14.24 g/m*3 18.72 C 2.68333 km/h
1316 26-09-2019 19:00:00 18.04167 C 13.99 g/m*3 18.04 C 2.01667 km/h
1317 26-09-2019 20:00:00 17.39167 C 13.29 g/m*3 17.39 C 6.03333 km/h
1318 26-09-2019 21:00:00 17.36667 C 13.16 g/m*3 17.37 C 5.5 km/h
1319 26-09-2019 22:00:00 17.725 C 13.08 g/m*3 17.73 C 10.23333 km/h
1320 26-09-2019 23:00:00 17.81667 C 12.99 g/m*3 17.82 C 7.5 km/h
1321 27-09-2019 00:00:00 17.98333 C 12.86 g/m*3 17.98 C 6.975 km/h
1322 27-09-2019 01:00:00 18.05 C 12.68 g/m*3 18.05 C 10.20833 km/h
1323 27-09-2019 02:00:00 17.96667 C 12.58 g/m*3 17.97 C 9.68333 km/h
1324 27-09-2019 03:00:00 16.71667 C 12.82 g/m*3 16.72 C 6.18333 km/h
1325 27-09-2019 04:00:00 16.29167 C 12.83 g/m*3 16.29 C 2.95 km/h
Sensor: Nr:Datum:Temp:Abs-Feuchte:Windchill:Wind:
Aussen-T/F 1326 27-09-2019 05:00:00 16.16667 C 12.81 g/m*3 16.17 C 2.13333 km/h
1327 27-09-2019 06:00:00 15.78333 C 12.67 g/m*3 15.78 C 2.15 km/h
1328 27-09-2019 07:00:00 14.41667 C 11.71 g/m*3 14.42 C 2.28333 km/h
1329 27-09-2019 08:00:00 14.1 C 11.62 g/m*3 14.1 C 0.66667 km/h
1330 27-09-2019 09:00:00 13.99167 C 11.57 g/m*3 13.99 C 3.75 km/h
1331 27-09-2019 10:00:00 14.69167 C 12.02 g/m*3 14.69 C 6.58333 km/h
1332 27-09-2019 11:00:00 15.35 C 12.16 g/m*3 15.35 C 6.7 km/h
1333 27-09-2019 12:00:00 15.96667 C 12.11 g/m*3 15.97 C 11.29167 km/h
1334 27-09-2019 13:00:00 17.29167 C 11.95 g/m*3 17.29 C 12.9 km/h
1335 27-09-2019 14:00:00 18.15833 C 11.77 g/m*3 18.16 C 14.9 km/h
1336 27-09-2019 15:00:00 18.21667 C 11.79 g/m*3 18.22 C 13.83333 km/h
1337 27-09-2019 16:00:00 17.96667 C 11.79 g/m*3 17.97 C 12.1 km/h
1338 27-09-2019 17:00:00 18.98333 C 11.78 g/m*3 18.98 C 12.36667 km/h
1339 27-09-2019 18:00:00 18.01667 C 11.54 g/m*3 18.02 C 10.75833 km/h
1340 27-09-2019 19:00:00 16.05833 C 11.25 g/m*3 16.06 C 3.75833 km/h
1341 27-09-2019 20:00:00 15.13333 C 11.37 g/m*3 15.13 C 0.26667 km/h
1342 27-09-2019 21:00:00 14.275 C 11.06 g/m*3 14.28 C 0.26667 km/h
1343 27-09-2019 22:00:00 13.83333 C 11.04 g/m*3 13.83 C 0 km/h
1344 27-09-2019 23:00:00 13.5 C 10.98 g/m*3 13.5 C 0 km/h
1345 28-09-2019 00:00:00 12.875 C 10.64 g/m*3 12.88 C 0.66667 km/h
1346 28-09-2019 01:00:00 12.90833 C 10.72 g/m*3 12.91 C 3.21667 km/h
1347 28-09-2019 02:00:00 14.21667 C 11.16 g/m*3 14.22 C 9.13333 km/h
1348 28-09-2019 03:00:00 14.825 C 11.33 g/m*3 14.83 C 6.45 km/h
1349 28-09-2019 04:00:00 14.04167 C 11.17 g/m*3 14.04 C 5.63333 km/h
1350 28-09-2019 05:00:00 13.95 C 11.05 g/m*3 13.95 C 6.84167 km/h
Sensor: Nr:Datum:Temp:Abs-Feuchte:Windchill:Wind:
Aussen-T/F 1351 28-09-2019 06:00:00 14.4 C 11.21 g/m*3 14.4 C 9.4 km/h
1352 28-09-2019 07:00:00 14.1 C 11.28 g/m*3 14.1 C 1.875 km/h
1353 28-09-2019 08:00:00 13.89167 C 11.18 g/m*3 13.89 C 7.94167 km/h
1354 28-09-2019 09:00:00 14.35833 C 11.11 g/m*3 14.36 C 12.225 km/h
1355 28-09-2019 10:00:00 15.4 C 11.21 g/m*3 15.4 C 12.75833 km/h
1356 28-09-2019 11:00:00 16.30833 C 11.15 g/m*3 16.31 C 17.43333 km/h
1357 28-09-2019 12:00:00 16.85 C 11.27 g/m*3 16.85 C 13.16667 km/h
1358 28-09-2019 13:00:00 17.21667 C 11.3 g/m*3 17.22 C 17.3 km/h
1359 28-09-2019 14:00:00 17.49167 C 11.4 g/m*3 17.49 C 17.3 km/h
1360 28-09-2019 15:00:00 17.16667 C 11.3 g/m*3 17.17 C 15.43333 km/h
1361 28-09-2019 16:00:00 17.35833 C 11.48 g/m*3 17.36 C 14.23333 km/h
1362 28-09-2019 17:00:00 17.71667 C 11.43 g/m*3 17.72 C 15.96667 km/h
1363 28-09-2019 18:00:00 17.14167 C 11.18 g/m*3 17.14 C 11.025 km/h
1364 28-09-2019 19:00:00 15.7 C 10.78 g/m*3 15.7 C 8.99167 km/h
1365 28-09-2019 20:00:00 15.24167 C 10.7 g/m*3 15.24 C 5.89167 km/h
1366 28-09-2019 21:00:00 14.975 C 10.58 g/m*3 14.98 C 7.79167 km/h
1367 28-09-2019 22:00:00 15.13333 C 10.51 g/m*3 15.13 C 9.53333 km/h
1368 28-09-2019 23:00:00 14.15 C 10.33 g/m*3 14.15 C 4.55 km/h
1369 29-09-2019 00:00:00 13.875 C 10.33 g/m*3 13.88 C 2.81667 km/h
1370 29-09-2019 01:00:00 13.95 C 10.4 g/m*3 13.95 C 0.66667 km/h
1371 29-09-2019 02:00:00 13.65 C 10.49 g/m*3 13.65 C 0 km/h
1372 29-09-2019 03:00:00 13.48333 C 10.54 g/m*3 13.48 C 0 km/h
1373 29-09-2019 04:00:00 13.525 C 10.66 g/m*3 13.53 C 0 km/h
1374 29-09-2019 05:00:00 13.81667 C 10.66 g/m*3 13.82 C 0.26667 km/h
1375 29-09-2019 06:00:00 13.94167 C 10.43 g/m*3 13.94 C 0.93333 km/h
Sensor: Nr:Datum:Temp:Abs-Feuchte:Windchill:Wind:
Aussen-T/F 1376 29-09-2019 07:00:00 14.025 C 10.46 g/m*3 14.03 C 1.33333 km/h
1377 29-09-2019 08:00:00 14.95833 C 10.59 g/m*3 14.96 C 5.75833 km/h
1378 29-09-2019 09:00:00 16.53333 C 10.83 g/m*3 16.53 C 13.69167 km/h
1379 29-09-2019 10:00:00 17.45833 C 10.94 g/m*3 17.46 C 19.175 km/h
1380 29-09-2019 11:00:00 17.74167 C 11 g/m*3 17.74 C 17.84167 km/h
1381 29-09-2019 12:00:00 18.25833 C 11.19 g/m*3 18.26 C 17.16667 km/h
1382 29-09-2019 13:00:00 18.1 C 11.15 g/m*3 18.1 C 13.03333 km/h
1383 29-09-2019 14:00:00 18.61667 C 10.9 g/m*3 18.62 C 21.325 km/h
1384 29-09-2019 15:00:00 18.21667 C 11.38 g/m*3 18.22 C 17.44167 km/h
1385 29-09-2019 16:00:00 17.10833 C 11.91 g/m*3 17.11 C 13.025 km/h
1386 29-09-2019 17:00:00 17 C 11.93 g/m*3 17 C 12.35833 km/h
1387 29-09-2019 18:00:00 17.5 C 12.36 g/m*3 17.5 C 12.1 km/h
1388 29-09-2019 19:00:00 17.70833 C 12.54 g/m*3 17.71 C 15.56667 km/h
1389 29-09-2019 20:00:00 17.275 C 12.96 g/m*3 17.27 C 5.9 km/h
1390 29-09-2019 21:00:00 16.79167 C 13.17 g/m*3 16.79 C 5.63333 km/h
1391 29-09-2019 22:00:00 16.91667 C 13.29 g/m*3 16.92 C 12.08333 km/h
1392 29-09-2019 23:00:00 16.61667 C 13 g/m*3 16.62 C 14.49167 km/h
1393 30-09-2019 00:00:00 15.65 C 11.66 g/m*3 15.65 C 18.11667 km/h
1394 30-09-2019 01:00:00 15.34167 C 11.27 g/m*3 15.34 C 18.225 km/h
1395 30-09-2019 02:00:00 15.15833 C 11.2 g/m*3 15.16 C 17.03333 km/h
1396 30-09-2019 03:00:00 15.25833 C 11.31 g/m*3 15.26 C 15.3 km/h
1397 30-09-2019 04:00:00 15.04167 C 11.38 g/m*3 15.04 C 11.95 km/h
1398 30-09-2019 05:00:00 13.75833 C 10.95 g/m*3 13.76 C 9.925 km/h
1399 30-09-2019 06:00:00 13.19167 C 10.65 g/m*3 13.19 C 9.93333 km/h
1400 30-09-2019 07:00:00 13.08333 C 10.34 g/m*3 13.08 C 10.08333 km/h
Sensor: Nr:Datum:Temp:Abs-Feuchte:Windchill:Wind:
Aussen-T/F 1401 30-09-2019 08:00:00 13.29167 C 10.07 g/m*3 13.29 C 12.1 km/h
1402 30-09-2019 09:00:00 13.94167 C 10 g/m*3 13.94 C 13.3 km/h
1403 30-09-2019 10:00:00 14.45 C 10.08 g/m*3 14.45 C 14.5 km/h
1404 30-09-2019 11:00:00 15.13333 C 10.09 g/m*3 15.13 C 15.16667 km/h
1405 30-09-2019 12:00:00 15.71667 C 9.81 g/m*3 15.72 C 16.76667 km/h
1406 30-09-2019 13:00:00 16.40833 C 9.68 g/m*3 16.41 C 15.56667 km/h
1407 30-09-2019 14:00:00 17.10833 C 9.71 g/m*3 17.11 C 14.23333 km/h
1408 30-09-2019 15:00:00 17.75833 C 9.83 g/m*3 17.76 C 14.63333 km/h
1409 30-09-2019 16:00:00 18.45833 C 9.85 g/m*3 18.46 C 14.36667 km/h
1410 30-09-2019 17:00:00 18.45 C 9.54 g/m*3 18.45 C 12.1 km/h
1411 30-09-2019 18:00:00 17.69167 C 10.24 g/m*3 17.69 C 3.34167 km/h
1412 30-09-2019 19:00:00 14.83333 C 10.22 g/m*3 14.83 C 0.4 km/h
1413 30-09-2019 20:00:00 14.20833 C 10.42 g/m*3 14.21 C 3.34167 km/h
1414 30-09-2019 21:00:00 14.69167 C 10.71 g/m*3 14.69 C 3.74167 km/h
1415 30-09-2019 22:00:00 14.68333 C 10.7 g/m*3 14.68 C 3.6 km/h
1416 30-09-2019 23:00:00 14.23333 C 10.44 g/m*3 14.23 C 1.06667 km/h
1417 01-10-2019 00:00:00 14.33333 C 10.41 g/m*3 14.33 C 0.4 km/h
1418 01-10-2019 01:00:00 14.025 C 10.47 g/m*3 14.03 C 1.2 km/h
1419 01-10-2019 02:00:00 13.60833 C 10.24 g/m*3 13.61 C 0 km/h
1420 01-10-2019 03:00:00 12.65 C 9.88 g/m*3 12.65 C 0 km/h
1421 01-10-2019 04:00:00 13.275 C 10.3 g/m*3 13.28 C 3.48333 km/h
1422 01-10-2019 05:00:00 14.40833 C 10.55 g/m*3 14.41 C 7.8 km/h
1423 01-10-2019 06:00:00 15.00833 C 10.98 g/m*3 15.01 C 11.55833 km/h
1424 01-10-2019 07:00:00 15.375 C 11.38 g/m*3 15.38 C 15.56667 km/h
1425 01-10-2019 08:00:00 15.5 C 11.54 g/m*3 15.5 C 14.1 km/h
Sensor: Nr:Datum:Temp:Abs-Feuchte:Windchill:Wind:
Aussen-T/F 1426 01-10-2019 09:00:00 16.125 C 11.82 g/m*3 16.13 C 13.7 km/h
1427 01-10-2019 10:00:00 17.09167 C 12.35 g/m*3 17.09 C 14.9 km/h
1428 01-10-2019 11:00:00 17.53333 C 12.69 g/m*3 17.53 C 14.63333 km/h
1429 01-10-2019 12:00:00 17.36667 C 13.11 g/m*3 17.37 C 12.225 km/h
1430 01-10-2019 13:00:00 18.575 C 12.46 g/m*3 18.58 C 9.41667 km/h
1431 01-10-2019 14:00:00 18.35833 C 13.01 g/m*3 18.36 C 8.34167 km/h
1432 01-10-2019 15:00:00 19.08333 C 13.57 g/m*3 19.08 C 11.425 km/h
1433 01-10-2019 16:00:00 18.26667 C 13.78 g/m*3 18.27 C 5.775 km/h
1434 01-10-2019 17:00:00 17.6 C 13.95 g/m*3 17.6 C 0.66667 km/h
1435 01-10-2019 18:00:00 16.725 C 13.21 g/m*3 16.73 C 1.2 km/h
1436 01-10-2019 19:00:00 16.19167 C 12.98 g/m*3 16.19 C 0 km/h
1437 01-10-2019 20:00:00 15.875 C 12.82 g/m*3 15.88 C 0.66667 km/h
1438 01-10-2019 21:00:00 15.85 C 12.85 g/m*3 15.85 C 1.46667 km/h
1439 01-10-2019 22:00:00 15.5 C 12.56 g/m*3 15.5 C 1.60833 km/h
1440 01-10-2019 23:00:00 15.225 C 12.35 g/m*3 15.23 C 3.06667 km/h
1441 02-10-2019 00:00:00 15.15833 C 12.3 g/m*3 15.16 C 3.35833 km/h
1442 02-10-2019 01:00:00 15.20833 C 12.24 g/m*3 15.21 C 4.14167 km/h
1443 02-10-2019 02:00:00 14.975 C 12 g/m*3 14.98 C 1.2 km/h
1444 02-10-2019 03:00:00 14.95833 C 11.96 g/m*3 14.96 C 7.26667 km/h
1445 02-10-2019 04:00:00 15.08333 C 11.86 g/m*3 15.08 C 4.55 km/h
1446 02-10-2019 05:00:00 14.69167 C 11.66 g/m*3 14.69 C 3.48333 km/h
1447 02-10-2019 06:00:00 13.59167 C 10.82 g/m*3 13.59 C 10.2 km/h
1448 02-10-2019 07:00:00 11.80833 C 9.71 g/m*3 11.81 C 11.3 km/h
1449 02-10-2019 08:00:00 10.74167 C 9.16 g/m*3 9.02 C 13.43333 km/h
1450 02-10-2019 09:00:00 10.46667 C 8.8 g/m*3 9.65 C 7.51667 km/h
Sensor: Nr:Datum:Temp:Abs-Feuchte:Windchill:Wind:
Aussen-T/F 1451 02-10-2019 10:00:00 10.86667 C 8.73 g/m*3 10.04 C 7.91667 km/h
1452 02-10-2019 11:00:00 11.33333 C 8.56 g/m*3 11.33 C 11.01667 km/h
1453 02-10-2019 12:00:00 11.86667 C 8.52 g/m*3 11.87 C 9.125 km/h
1454 02-10-2019 13:00:00 12.65833 C 8.48 g/m*3 12.66 C 9.54167 km/h
1455 02-10-2019 14:00:00 13.49167 C 8.19 g/m*3 13.49 C 9.55833 km/h
1456 02-10-2019 15:00:00 13.66667 C 7.87 g/m*3 13.67 C 11.825 km/h
1457 02-10-2019 16:00:00 13.8 C 7.37 g/m*3 13.8 C 14.1 km/h
1458 02-10-2019 17:00:00 14.26667 C 7.55 g/m*3 14.27 C 12.21667 km/h
1459 02-10-2019 18:00:00 12.9 C 7.68 g/m*3 12.9 C 10.89167 km/h
1460 02-10-2019 19:00:00 11.325 C 7.61 g/m*3 11.33 C 5.76667 km/h
1461 02-10-2019 20:00:00 10.04167 C 7.5 g/m*3 10.04 C 4.825 km/h
1462 02-10-2019 21:00:00 9.875 C 7.51 g/m*3 9.88 C 3.20833 km/h
1463 02-10-2019 22:00:00 8.61667 C 7.37 g/m*3 8.62 C 0.66667 km/h
1464 02-10-2019 23:00:00 8.48333 C 7.43 g/m*3 8.48 C 3.875 km/h
1465 03-10-2019 00:00:00 9.33333 C 7.66 g/m*3 9.33 C 4.41667 km/h
1466 03-10-2019 01:00:00 9.25833 C 7.75 g/m*3 9.26 C 4.68333 km/h
1467 03-10-2019 02:00:00 9.21667 C 7.73 g/m*3 9.22 C 3.73333 km/h
1468 03-10-2019 03:00:00 8.525 C 7.52 g/m*3 8.53 C 1.86667 km/h
1469 03-10-2019 04:00:00 7.63333 C 7.29 g/m*3 7.63 C 1.33333 km/h
1470 03-10-2019 05:00:00 7.94167 C 7.49 g/m*3 7.94 C 4.41667 km/h
1471 03-10-2019 06:00:00 7.45 C 7.26 g/m*3 7.45 C 1.2 km/h
1472 03-10-2019 07:00:00 7.2 C 7.29 g/m*3 7.2 C 1.6 km/h
1473 03-10-2019 08:00:00 7.74167 C 7.49 g/m*3 7.74 C 4.96667 km/h
1474 03-10-2019 09:00:00 9.34167 C 7.9 g/m*3 8.53 C 6.70833 km/h
1475 03-10-2019 10:00:00 10.36667 C 8.23 g/m*3 9.45 C 7.925 km/h
Sensor: Nr:Datum:Temp:Abs-Feuchte:Windchill:Wind:
Aussen-T/F 1476 03-10-2019 11:00:00 12.23333 C 8.75 g/m*3 12.23 C 8.725 km/h
1477 03-10-2019 12:00:00 12.55833 C 9.02 g/m*3 12.56 C 6.16667 km/h
1478 03-10-2019 13:00:00 12.225 C 9.57 g/m*3 12.23 C 0.13333 km/h
1479 03-10-2019 14:00:00 11.68333 C 9.65 g/m*3 11.68 C 0.8 km/h
1480 03-10-2019 15:00:00 11.88333 C 10.01 g/m*3 11.88 C 0.8 km/h
1481 03-10-2019 16:00:00 12.15833 C 10.02 g/m*3 12.16 C 2.41667 km/h
1482 03-10-2019 17:00:00 11.75833 C 9.81 g/m*3 11.76 C 0 km/h
1483 03-10-2019 18:00:00 10.81667 C 9.3 g/m*3 10.82 C 1.06667 km/h
1484 03-10-2019 19:00:00 9.90833 C 8.84 g/m*3 9.91 C 0.8 km/h
1485 03-10-2019 20:00:00 9.36667 C 8.58 g/m*3 9.37 C 0 km/h
1486 03-10-2019 21:00:00 9.00833 C 8.45 g/m*3 9.01 C 0 km/h
1487 03-10-2019 22:00:00 8.625 C 8.26 g/m*3 8.63 C 0 km/h
1488 03-10-2019 23:00:00 8.375 C 8.13 g/m*3 8.38 C 0 km/h
1489 04-10-2019 00:00:00 8.38333 C 8.14 g/m*3 8.38 C 0 km/h
1490 04-10-2019 01:00:00 8.21667 C 8.07 g/m*3 8.22 C 0.13333 km/h
1491 04-10-2019 02:00:00 8.19167 C 8.08 g/m*3 8.19 C 0 km/h
1492 04-10-2019 03:00:00 8.05833 C 8.04 g/m*3 8.06 C 0 km/h
1493 04-10-2019 04:00:00 7.71667 C 7.86 g/m*3 7.72 C 0 km/h
1494 04-10-2019 05:00:00 7.90833 C 7.97 g/m*3 7.91 C 0 km/h
1495 04-10-2019 06:00:00 7.96667 C 8 g/m*3 7.97 C 0.93333 km/h
1496 04-10-2019 07:00:00 8.13333 C 8.09 g/m*3 8.13 C 2.68333 km/h
1497 04-10-2019 08:00:00 8.45833 C 8.26 g/m*3 8.46 C 1.06667 km/h
1498 04-10-2019 09:00:00 8.70833 C 8.39 g/m*3 8.71 C 0.8 km/h
1499 04-10-2019 10:00:00 9.125 C 8.61 g/m*3 9.13 C 3.875 km/h
1500 04-10-2019 11:00:00 9.75833 C 8.88 g/m*3 9.26 C 5.75833 km/h
Sensor: Nr:Datum:Temp:Abs-Feuchte:Windchill:Wind:
Aussen-T/F 1501 04-10-2019 12:00:00 10.65 C 9.33 g/m*3 10.65 C 3.06667 km/h
1502 04-10-2019 13:00:00 11.25833 C 9.61 g/m*3 11.26 C 2 km/h
1503 04-10-2019 14:00:00 13.03333 C 10.33 g/m*3 13.03 C 7.53333 km/h
1504 04-10-2019 15:00:00 13.81667 C 10.48 g/m*3 13.82 C 6.98333 km/h
1505 04-10-2019 16:00:00 14.05833 C 10.83 g/m*3 14.06 C 1.875 km/h
1506 04-10-2019 17:00:00 13.36667 C 10.78 g/m*3 13.37 C 2.13333 km/h
1507 04-10-2019 18:00:00 12.35833 C 10.26 g/m*3 12.36 C 1.46667 km/h
1508 04-10-2019 19:00:00 11.70833 C 9.98 g/m*3 11.71 C 1.06667 km/h
1509 04-10-2019 20:00:00 11.63333 C 10 g/m*3 11.63 C 2.53333 km/h
1510 04-10-2019 21:00:00 11.65833 C 10.01 g/m*3 11.66 C 5.775 km/h
1511 04-10-2019 22:00:00 11.69167 C 9.97 g/m*3 11.69 C 4.29167 km/h
1512 04-10-2019 23:00:00 11.71667 C 9.99 g/m*3 11.72 C 5.9 km/h
1513 05-10-2019 00:00:00 11.96667 C 9.86 g/m*3 11.97 C 7.10833 km/h
1514 05-10-2019 01:00:00 12.09167 C 9.86 g/m*3 12.09 C 6.85833 km/h
1515 05-10-2019 02:00:00 12.225 C 9.8 g/m*3 12.23 C 7.64167 km/h
1516 05-10-2019 03:00:00 12.3 C 9.94 g/m*3 12.3 C 3.20833 km/h
1517 05-10-2019 04:00:00 11.55 C 9.64 g/m*3 11.55 C 5.90833 km/h
1518 05-10-2019 05:00:00 10.75833 C 9.21 g/m*3 10.24 C 6.44167 km/h
1519 05-10-2019 06:00:00 10.20833 C 8.93 g/m*3 10.21 C 2.275 km/h
1520 05-10-2019 07:00:00 9.98333 C 8.77 g/m*3 9.98 C 3.6 km/h
1521 05-10-2019 08:00:00 9.81667 C 8.54 g/m*3 9.82 C 2.26667 km/h
1522 05-10-2019 09:00:00 10.18333 C 8.62 g/m*3 10.18 C 4.94167 km/h
1523 05-10-2019 10:00:00 10.55833 C 8.61 g/m*3 9.6 C 8.325 km/h
1524 05-10-2019 11:00:00 10.70833 C 8.11 g/m*3 9.72 C 8.60833 km/h
1525 05-10-2019 12:00:00 11.2 C 8.17 g/m*3 11.2 C 6.575 km/h
Sensor: Nr:Datum:Temp:Abs-Feuchte:Windchill:Wind:
Aussen-T/F 1526 05-10-2019 13:00:00 11.9 C 8.22 g/m*3 11.9 C 4.26667 km/h
1527 05-10-2019 14:00:00 11.89167 C 8.27 g/m*3 11.89 C 2.40833 km/h
1528 05-10-2019 15:00:00 12.23333 C 8.36 g/m*3 12.23 C 0.93333 km/h
1529 05-10-2019 16:00:00 12.3 C 8.75 g/m*3 12.3 C 0.66667 km/h
1530 05-10-2019 17:00:00 12.06667 C 9 g/m*3 12.07 C 0.13333 km/h
1531 05-10-2019 18:00:00 11.125 C 8.64 g/m*3 11.13 C 0 km/h
1532 05-10-2019 19:00:00 9.50833 C 7.87 g/m*3 9.51 C 0.4 km/h
1533 05-10-2019 20:00:00 8.35833 C 7.46 g/m*3 8.36 C 1.33333 km/h
1534 05-10-2019 21:00:00 7.875 C 7.44 g/m*3 7.88 C 0 km/h
1535 05-10-2019 22:00:00 7.43333 C 7.44 g/m*3 7.43 C 0 km/h
1536 05-10-2019 23:00:00 7.35 C 7.45 g/m*3 7.35 C 0 km/h
1537 06-10-2019 00:00:00 7.13333 C 7.36 g/m*3 7.13 C 0 km/h
1538 06-10-2019 01:00:00 6.55 C 7.11 g/m*3 6.55 C 0 km/h
1539 06-10-2019 02:00:00 6.7 C 7.26 g/m*3 6.7 C 0 km/h
1540 06-10-2019 03:00:00 7.05833 C 7.47 g/m*3 7.06 C 0 km/h
1541 06-10-2019 04:00:00 7.2 C 7.54 g/m*3 7.2 C 0 km/h
1542 06-10-2019 05:00:00 7.18333 C 7.53 g/m*3 7.18 C 0 km/h
1543 06-10-2019 06:00:00 7.38333 C 7.63 g/m*3 7.38 C 0 km/h
1544 06-10-2019 07:00:00 7.65833 C 7.76 g/m*3 7.66 C 0 km/h
1545 06-10-2019 08:00:00 7.84167 C 7.86 g/m*3 7.84 C 0 km/h
1546 06-10-2019 09:00:00 8.31667 C 8.1 g/m*3 8.32 C 0 km/h
1547 06-10-2019 10:00:00 8.63333 C 8.22 g/m*3 8.63 C 0.8 km/h
1548 06-10-2019 11:00:00 8.55833 C 8.21 g/m*3 8.56 C 3.6 km/h
1549 06-10-2019 12:00:00 8.78333 C 8.35 g/m*3 8.78 C 0.26667 km/h
1550 06-10-2019 13:00:00 9.06667 C 8.5 g/m*3 9.07 C 0.66667 km/h
Sensor: Nr:Datum:Temp:Abs-Feuchte:Windchill:Wind:
Aussen-T/F 1551 06-10-2019 14:00:00 9.25 C 8.6 g/m*3 9.25 C 1.06667 km/h
1552 06-10-2019 15:00:00 9.45833 C 8.72 g/m*3 9.46 C 0.53333 km/h
1553 06-10-2019 16:00:00 9.61667 C 8.8 g/m*3 9.62 C 1.86667 km/h
1554 06-10-2019 17:00:00 9.51667 C 8.75 g/m*3 9.52 C 0.53333 km/h
1555 06-10-2019 18:00:00 9.325 C 8.64 g/m*3 9.32 C 3.225 km/h
1556 06-10-2019 19:00:00 9.15 C 8.57 g/m*3 9.15 C 3.60833 km/h
1557 06-10-2019 20:00:00 9.1 C 8.61 g/m*3 9.1 C 0.4 km/h
1558 06-10-2019 21:00:00 9.04167 C 8.57 g/m*3 9.04 C 1.74167 km/h
1559 06-10-2019 22:00:00 8.81667 C 8.45 g/m*3 8.82 C 1.875 km/h
1560 06-10-2019 23:00:00 8.83333 C 8.46 g/m*3 8.83 C 0 km/h
1561 07-10-2019 00:00:00 8.9 C 8.5 g/m*3 8.9 C 0.26667 km/h
1562 07-10-2019 01:00:00 8.725 C 8.4 g/m*3 8.73 C 2.95 km/h
1563 07-10-2019 02:00:00 8.69167 C 8.38 g/m*3 8.69 C 0.13333 km/h
1564 07-10-2019 03:00:00 8.60833 C 8.34 g/m*3 8.61 C 1.33333 km/h
1565 07-10-2019 04:00:00 8.7 C 8.39 g/m*3 8.7 C 0 km/h
1566 07-10-2019 05:00:00 8.64167 C 8.36 g/m*3 8.64 C 1.86667 km/h
1567 07-10-2019 06:00:00 8.6 C 8.34 g/m*3 8.6 C 0.13333 km/h
1568 07-10-2019 07:00:00 8.6 C 8.34 g/m*3 8.6 C 0 km/h
1569 07-10-2019 08:00:00 8.66667 C 8.37 g/m*3 8.67 C 0 km/h
1570 07-10-2019 09:00:00 8.83333 C 8.46 g/m*3 8.83 C 0.26667 km/h
1571 07-10-2019 10:00:00 9.08333 C 8.6 g/m*3 9.08 C 1.06667 km/h
1572 07-10-2019 11:00:00 9.65 C 8.88 g/m*3 9.65 C 3.34167 km/h
1573 07-10-2019 12:00:00 10.51667 C 9.05 g/m*3 10.52 C 2.4 km/h
1574 07-10-2019 13:00:00 10.84167 C 9 g/m*3 10.84 C 2.675 km/h
1575 07-10-2019 14:00:00 11.46667 C 9.1 g/m*3 11.47 C 5.89167 km/h
Sensor: Nr:Datum:Temp:Abs-Feuchte:Windchill:Wind:
Aussen-T/F 1576 07-10-2019 15:00:00 12.225 C 9.43 g/m*3 12.23 C 1.86667 km/h
1577 07-10-2019 16:00:00 12.29167 C 9.53 g/m*3 12.29 C 1.33333 km/h
1578 07-10-2019 17:00:00 12.3 C 9.56 g/m*3 12.3 C 2.4 km/h
1579 07-10-2019 18:00:00 11.86667 C 9.56 g/m*3 11.87 C 0.53333 km/h
1580 07-10-2019 19:00:00 11.09167 C 9.35 g/m*3 11.09 C 0 km/h
1581 07-10-2019 20:00:00 10.725 C 9.32 g/m*3 10.73 C 0 km/h
1582 07-10-2019 21:00:00 10.975 C 9.58 g/m*3 10.98 C 0 km/h
1583 07-10-2019 22:00:00 11.1 C 9.67 g/m*3 11.1 C 0.26667 km/h
1584 07-10-2019 23:00:00 11.1 C 9.67 g/m*3 11.1 C 0.26667 km/h
1585 08-10-2019 00:00:00 11.11667 C 9.75 g/m*3 11.12 C 0.53333 km/h
1586 08-10-2019 01:00:00 11.25 C 9.79 g/m*3 11.25 C 1.33333 km/h
1587 08-10-2019 02:00:00 11.44167 C 9.88 g/m*3 11.44 C 0.93333 km/h
1588 08-10-2019 03:00:00 11.75833 C 10.05 g/m*3 11.76 C 3.75833 km/h
1589 08-10-2019 04:00:00 11.9 C 10.03 g/m*3 11.9 C 3.61667 km/h
1590 08-10-2019 05:00:00 12.31667 C 10 g/m*3 12.32 C 8.46667 km/h
1591 08-10-2019 06:00:00 12.18333 C 9.96 g/m*3 12.18 C 4.3 km/h
1592 08-10-2019 07:00:00 11.79167 C 9.97 g/m*3 11.79 C 2.53333 km/h
1593 08-10-2019 08:00:00 11.825 C 10.1 g/m*3 11.83 C 5.775 km/h
1594 08-10-2019 09:00:00 12.03333 C 10.25 g/m*3 12.03 C 10.05833 km/h
1595 08-10-2019 10:00:00 12.49167 C 10.45 g/m*3 12.49 C 12.76667 km/h
1596 08-10-2019 11:00:00 13.5 C 10.89 g/m*3 13.5 C 13.7 km/h
1597 08-10-2019 12:00:00 13.85833 C 10.95 g/m*3 13.86 C 14.36667 km/h
1598 08-10-2019 13:00:00 14.225 C 11.19 g/m*3 14.23 C 9.93333 km/h
1599 08-10-2019 14:00:00 14.6 C 11.43 g/m*3 14.6 C 10.075 km/h
1600 08-10-2019 15:00:00 14.48333 C 11.47 g/m*3 14.48 C 9.55 km/h
Sensor: Nr:Datum:Temp:Abs-Feuchte:Windchill:Wind:
Aussen-T/F 1601 08-10-2019 16:00:00 14.225 C 11.56 g/m*3 14.23 C 6.70833 km/h
1602 08-10-2019 17:00:00 14.05833 C 11.55 g/m*3 14.06 C 3.61667 km/h
1603 08-10-2019 18:00:00 13.86667 C 11.49 g/m*3 13.87 C 3.09167 km/h
1604 08-10-2019 19:00:00 13.79167 C 11.43 g/m*3 13.79 C 1.875 km/h
1605 08-10-2019 20:00:00 13.55 C 11.3 g/m*3 13.55 C 0.53333 km/h
1606 08-10-2019 21:00:00 13.225 C 11.14 g/m*3 13.23 C 0.13333 km/h
1607 08-10-2019 22:00:00 12.825 C 10.88 g/m*3 12.83 C 0 km/h
1608 08-10-2019 23:00:00 11.68333 C 10.05 g/m*3 11.68 C 0.53333 km/h
1609 09-10-2019 00:00:00 10.78333 C 9.56 g/m*3 10.78 C 0.13333 km/h
1610 09-10-2019 01:00:00 10.34167 C 9.31 g/m*3 10.34 C 0.13333 km/h
1611 09-10-2019 02:00:00 10.35 C 9.33 g/m*3 10.35 C 1.2 km/h
1612 09-10-2019 03:00:00 10.625 C 9.52 g/m*3 10.63 C 3.35833 km/h
1613 09-10-2019 04:00:00 10.98333 C 9.72 g/m*3 10.77 C 5.36667 km/h
1614 09-10-2019 05:00:00 10.79167 C 9.58 g/m*3 10.59 C 5.225 km/h
1615 09-10-2019 06:00:00 10.925 C 9.66 g/m*3 10.37 C 6.69167 km/h
1616 09-10-2019 07:00:00 10.64167 C 9.4 g/m*3 10.64 C 4.54167 km/h
1617 09-10-2019 08:00:00 10.73333 C 9.48 g/m*3 10.73 C 4.95833 km/h
1618 09-10-2019 09:00:00 11.2 C 9.76 g/m*3 11.2 C 5.36667 km/h
1619 09-10-2019 10:00:00 12.55 C 10.19 g/m*3 12.55 C 7.38333 km/h
1620 09-10-2019 11:00:00 13.55833 C 10.43 g/m*3 13.56 C 3.46667 km/h
1621 09-10-2019 12:00:00 13.90833 C 10.64 g/m*3 13.91 C 5.225 km/h
1622 09-10-2019 13:00:00 13.59167 C 10.87 g/m*3 13.59 C 1.34167 km/h
1623 09-10-2019 14:00:00 12.925 C 10.43 g/m*3 12.93 C 3.74167 km/h
1624 09-10-2019 15:00:00 12.28333 C 10.09 g/m*3 12.28 C 9.01667 km/h
1625 09-10-2019 16:00:00 12.775 C 10.02 g/m*3 12.78 C 8.86667 km/h
Sensor: Nr:Datum:Temp:Abs-Feuchte:Windchill:Wind:
Aussen-T/F 1626 09-10-2019 17:00:00 12.975 C 9.81 g/m*3 12.98 C 10.20833 km/h
1627 09-10-2019 18:00:00 12.525 C 9.54 g/m*3 12.53 C 11.28333 km/h
1628 09-10-2019 19:00:00 11.84167 C 9.37 g/m*3 11.84 C 9.675 km/h
1629 09-10-2019 20:00:00 11.20833 C 9.09 g/m*3 11.21 C 6.3 km/h
1630 09-10-2019 21:00:00 11.06667 C 9.07 g/m*3 11.07 C 8.2 km/h
1631 09-10-2019 22:00:00 11.10833 C 8.69 g/m*3 11.11 C 14.23333 km/h
1632 09-10-2019 23:00:00 10.8 C 8.53 g/m*3 9.33 C 11.7 km/h
1633 10-10-2019 00:00:00 10.375 C 8.45 g/m*3 8.64 C 12.89167 km/h
1634 10-10-2019 01:00:00 10.15833 C 8.49 g/m*3 9.61 C 6.15833 km/h
1635 10-10-2019 02:00:00 10.39167 C 8.71 g/m*3 10.39 C 4.825 km/h
1636 10-10-2019 03:00:00 10.68333 C 8.93 g/m*3 10.68 C 4.81667 km/h
1637 10-10-2019 04:00:00 10.56667 C 8.95 g/m*3 9.64 C 8.18333 km/h
1638 10-10-2019 05:00:00 10.40833 C 9.02 g/m*3 10.41 C 3.2 km/h
1639 10-10-2019 06:00:00 10.44167 C 9.05 g/m*3 10.11 C 5.49167 km/h
1640 10-10-2019 07:00:00 10.09167 C 8.79 g/m*3 9.37 C 6.84167 km/h
1641 10-10-2019 08:00:00 9.81667 C 8.56 g/m*3 8.93 C 7.375 km/h
1642 10-10-2019 09:00:00 10.675 C 8.79 g/m*3 9.59 C 9.13333 km/h
1643 10-10-2019 10:00:00 11.29167 C 8.88 g/m*3 11.29 C 11.825 km/h
1644 10-10-2019 11:00:00 12.33333 C 9.13 g/m*3 12.33 C 12.89167 km/h
1645 10-10-2019 12:00:00 13.35 C 9.1 g/m*3 13.35 C 14.1 km/h
1646 10-10-2019 13:00:00 14.28333 C 8.73 g/m*3 14.28 C 16.5 km/h
1647 10-10-2019 14:00:00 14.53333 C 9.12 g/m*3 14.53 C 12.20833 km/h
1648 10-10-2019 15:00:00 15.09167 C 9.33 g/m*3 15.09 C 12.76667 km/h
1649 10-10-2019 16:00:00 15.37778 C 9.32 g/m*3 15.38 C 12.01111 km/h
1650 10-10-2019 17:00:00 13.83333 C 9.62 g/m*3 13.83 C 9.675 km/h
Sensor: Nr:Datum:Temp:Abs-Feuchte:Windchill:Wind:
Aussen-T/F 1651 10-10-2019 18:00:00 13.18333 C 9.53 g/m*3 13.18 C 4.15 km/h
1652 10-10-2019 19:00:00 11.68333 C 9.19 g/m*3 11.68 C 3.475 km/h
1653 10-10-2019 20:00:00 11.69167 C 9.23 g/m*3 11.69 C 4.95 km/h
1654 10-10-2019 21:00:00 10.88333 C 9 g/m*3 10.88 C 0.26667 km/h
1655 10-10-2019 22:00:00 10.18333 C 8.9 g/m*3 10.18 C 0.13333 km/h
1656 10-10-2019 23:00:00 9.8 C 8.77 g/m*3 9.8 C 0.93333 km/h
1657 11-10-2019 00:00:00 9.575 C 8.73 g/m*3 9.57 C 1.06667 km/h
1658 11-10-2019 01:00:00 9.19167 C 8.52 g/m*3 9.19 C 0.8 km/h
1659 11-10-2019 02:00:00 8.83333 C 8.36 g/m*3 8.83 C 0 km/h
1660 11-10-2019 03:00:00 8.98333 C 8.48 g/m*3 8.98 C 1.74167 km/h
1661 11-10-2019 04:00:00 9.49167 C 8.72 g/m*3 9.49 C 3.86667 km/h
1662 11-10-2019 05:00:00 9.45833 C 8.62 g/m*3 9.46 C 2.40833 km/h
1663 11-10-2019 06:00:00 9.43333 C 8.6 g/m*3 9.43 C 0.4 km/h
1664 11-10-2019 07:00:00 9.91667 C 8.89 g/m*3 9.92 C 1.60833 km/h
1665 11-10-2019 08:00:00 10.98333 C 9.5 g/m*3 10.98 C 2.80833 km/h
1666 11-10-2019 09:00:00 12.425 C 10.21 g/m*3 12.43 C 3.21667 km/h
1667 11-10-2019 10:00:00 13.35833 C 10.58 g/m*3 13.36 C 3.34167 km/h
1668 11-10-2019 11:00:00 14.85833 C 10.83 g/m*3 14.86 C 11.68333 km/h
1669 11-10-2019 12:00:00 15.85 C 10.72 g/m*3 15.85 C 16.1 km/h
1670 11-10-2019 13:00:00 16.39167 C 10.82 g/m*3 16.39 C 11.15 km/h
1671 11-10-2019 14:00:00 16.29167 C 10.86 g/m*3 16.29 C 11.275 km/h
1672 11-10-2019 15:00:00 16.56667 C 10.9 g/m*3 16.57 C 11.03333 km/h
1673 11-10-2019 16:00:00 16.6 C 11.02 g/m*3 16.6 C 10.61667 km/h
1674 11-10-2019 17:00:00 16.66667 C 11.09 g/m*3 16.67 C 9 km/h
1675 11-10-2019 18:00:00 16.04167 C 11.1 g/m*3 16.04 C 4.03333 km/h
Sensor: Nr:Datum:Temp:Abs-Feuchte:Windchill:Wind:
Aussen-T/F 1676 11-10-2019 19:00:00 14.19167 C 10.81 g/m*3 14.19 C 0.4 km/h
1677 11-10-2019 20:00:00 13.55833 C 10.81 g/m*3 13.56 C 0 km/h
1678 11-10-2019 21:00:00 12.80833 C 10.44 g/m*3 12.81 C 0 km/h
1679 11-10-2019 22:00:00 12.075 C 10.11 g/m*3 12.08 C 0 km/h
1680 11-10-2019 23:00:00 11.81667 C 10.03 g/m*3 11.82 C 0 km/h
1681 12-10-2019 00:00:00 11.11667 C 9.59 g/m*3 11.12 C 0 km/h
1682 12-10-2019 01:00:00 10.63333 C 9.39 g/m*3 10.63 C 0 km/h
1683 12-10-2019 02:00:00 10.30833 C 9.2 g/m*3 10.31 C 0.13333 km/h
1684 12-10-2019 03:00:00 9.95833 C 9 g/m*3 9.96 C 0 km/h
1685 12-10-2019 04:00:00 10.01667 C 9.12 g/m*3 10.02 C 0 km/h
1686 12-10-2019 05:00:00 9.58333 C 8.84 g/m*3 9.58 C 0 km/h
1687 12-10-2019 06:00:00 8.89167 C 8.49 g/m*3 8.89 C 0 km/h
1688 12-10-2019 07:00:00 8.74167 C 8.41 g/m*3 8.74 C 0 km/h
1689 12-10-2019 08:00:00 8.86667 C 8.48 g/m*3 8.87 C 0 km/h
1690 12-10-2019 09:00:00 9.28333 C 8.73 g/m*3 9.28 C 0.93333 km/h
1691 12-10-2019 10:00:00 11.75 C 10.28 g/m*3 11.75 C 5.225 km/h
1692 12-10-2019 11:00:00 14.25 C 11.36 g/m*3 14.25 C 9.80833 km/h
1693 12-10-2019 12:00:00 16.45 C 11.47 g/m*3 16.45 C 7.79167 km/h
1694 12-10-2019 13:00:00 17.975 C 11.63 g/m*3 17.98 C 11.825 km/h
1695 12-10-2019 14:00:00 19.40833 C 11.8 g/m*3 19.41 C 13.56667 km/h
1696 12-10-2019 15:00:00 19.93333 C 11.86 g/m*3 19.93 C 14.76667 km/h
1697 12-10-2019 16:00:00 19.6 C 12.11 g/m*3 19.6 C 13.7 km/h
1698 12-10-2019 17:00:00 18.85 C 12.1 g/m*3 18.85 C 9.26667 km/h
1699 12-10-2019 18:00:00 17.225 C 12.21 g/m*3 17.23 C 0.26667 km/h
1700 12-10-2019 19:00:00 15.61667 C 11.8 g/m*3 15.62 C 0 km/h
Sensor: Nr:Datum:Temp:Abs-Feuchte:Windchill:Wind:
Aussen-T/F 1701 12-10-2019 20:00:00 14.93333 C 11.5 g/m*3 14.93 C 0 km/h
1702 12-10-2019 21:00:00 14.51667 C 11.56 g/m*3 14.52 C 1.6 km/h
1703 12-10-2019 22:00:00 14.925 C 11.72 g/m*3 14.93 C 0.26667 km/h
1704 12-10-2019 23:00:00 14.375 C 11.54 g/m*3 14.38 C 0 km/h
1705 13-10-2019 00:00:00 13.65 C 11.13 g/m*3 13.65 C 0.13333 km/h
1706 13-10-2019 01:00:00 13.11667 C 10.87 g/m*3 13.12 C 0 km/h
1707 13-10-2019 02:00:00 13.30833 C 11.14 g/m*3 13.31 C 0 km/h
1708 13-10-2019 03:00:00 13.40833 C 11.18 g/m*3 13.41 C 0 km/h
1709 13-10-2019 04:00:00 13 C 10.94 g/m*3 13 C 0.26667 km/h
1710 13-10-2019 05:00:00 13.54167 C 11.37 g/m*3 13.54 C 0 km/h
1711 13-10-2019 06:00:00 13.79167 C 11.55 g/m*3 13.79 C 0 km/h
1712 13-10-2019 07:00:00 13.76667 C 11.53 g/m*3 13.77 C 0 km/h
1713 13-10-2019 08:00:00 13.11667 C 11.08 g/m*3 13.12 C 0.4 km/h
1714 13-10-2019 09:00:00 13.46667 C 11.38 g/m*3 13.47 C 0 km/h
1715 13-10-2019 10:00:00 14.23333 C 11.98 g/m*3 14.23 C 0 km/h
1716 13-10-2019 11:00:00 15.63333 C 13.06 g/m*3 15.63 C 1.2 km/h
1717 13-10-2019 12:00:00 17.325 C 14.43 g/m*3 17.33 C 2.14167 km/h
1718 13-10-2019 13:00:00 19.45833 C 15.3 g/m*3 19.46 C 2.00833 km/h
1719 13-10-2019 14:00:00 21.65833 C 14.76 g/m*3 21.66 C 4.54167 km/h
1720 13-10-2019 15:00:00 22.03333 C 14.76 g/m*3 22.03 C 4.025 km/h
1721 13-10-2019 16:00:00 21.96667 C 14.92 g/m*3 21.97 C 2.54167 km/h
1722 13-10-2019 17:00:00 21.125 C 14.87 g/m*3 21.13 C 0.93333 km/h
1723 13-10-2019 18:00:00 19.51667 C 14.41 g/m*3 19.52 C 0.8 km/h
1724 13-10-2019 19:00:00 18.45 C 13.93 g/m*3 18.45 C 0.4 km/h
1725 13-10-2019 20:00:00 18.11667 C 13.66 g/m*3 18.12 C 0.26667 km/h
Sensor: Nr:Datum:Temp:Abs-Feuchte:Windchill:Wind:
Aussen-T/F 1726 13-10-2019 21:00:00 17.41667 C 13.24 g/m*3 17.42 C 0.26667 km/h
1727 13-10-2019 22:00:00 17.06667 C 12.86 g/m*3 17.07 C 0.13333 km/h
1728 13-10-2019 23:00:00 16.56667 C 12.52 g/m*3 16.57 C 0.26667 km/h
1729 14-10-2019 00:00:00 15.825 C 12.14 g/m*3 15.83 C 0 km/h
1730 14-10-2019 01:00:00 15.41667 C 11.97 g/m*3 15.42 C 0 km/h
1731 14-10-2019 02:00:00 14.91667 C 11.73 g/m*3 14.92 C 0 km/h
1732 14-10-2019 03:00:00 14.14167 C 11.33 g/m*3 14.14 C 0.26667 km/h
1733 14-10-2019 04:00:00 13.45833 C 11 g/m*3 13.46 C 0 km/h
1734 14-10-2019 05:00:00 13.36667 C 11.08 g/m*3 13.37 C 0.26667 km/h
1735 14-10-2019 06:00:00 12.9 C 10.73 g/m*3 12.9 C 0 km/h
1736 14-10-2019 07:00:00 12.75 C 10.7 g/m*3 12.75 C 1.2 km/h
1737 14-10-2019 08:00:00 12.88333 C 10.81 g/m*3 12.88 C 0 km/h
1738 14-10-2019 09:00:00 13.24167 C 11.07 g/m*3 13.24 C 0 km/h
1739 14-10-2019 10:00:00 13.64167 C 11.39 g/m*3 13.64 C 0 km/h
1740 14-10-2019 11:00:00 14.90833 C 12.37 g/m*3 14.91 C 0 km/h
1741 14-10-2019 12:00:00 16.49167 C 13.51 g/m*3 16.49 C 0 km/h
1742 14-10-2019 13:00:00 18.55833 C 14.17 g/m*3 18.56 C 1.73333 km/h
1743 14-10-2019 14:00:00 21.1 C 14.13 g/m*3 21.1 C 3.75 km/h
1744 14-10-2019 15:00:00 21.11667 C 13.92 g/m*3 21.12 C 2.675 km/h
1745 14-10-2019 16:00:00 20.775 C 13.38 g/m*3 20.78 C 2.81667 km/h
1746 14-10-2019 17:00:00 19.81667 C 13.44 g/m*3 19.82 C 0 km/h
1747 14-10-2019 18:00:00 18.93333 C 13.13 g/m*3 18.93 C 0.26667 km/h
1748 14-10-2019 19:00:00 17.43333 C 12.92 g/m*3 17.43 C 0.26667 km/h
1749 14-10-2019 20:00:00 16.71667 C 12.54 g/m*3 16.72 C 0.13333 km/h
1750 14-10-2019 21:00:00 15.88333 C 12.05 g/m*3 15.88 C 0 km/h
Sensor: Nr:Datum:Temp:Abs-Feuchte:Windchill:Wind:
Aussen-T/F 1751 14-10-2019 22:00:00 14.875 C 11.7 g/m*3 14.88 C 0.26667 km/h
1752 14-10-2019 23:00:00 15.075 C 11.86 g/m*3 15.08 C 0.26667 km/h
1753 15-10-2019 00:00:00 15.08333 C 11.86 g/m*3 15.08 C 0.13333 km/h
1754 15-10-2019 01:00:00 14.4 C 11.41 g/m*3 14.4 C 0.13333 km/h
1755 15-10-2019 02:00:00 13.43333 C 10.9 g/m*3 13.43 C 0 km/h
1756 15-10-2019 03:00:00 12.725 C 10.54 g/m*3 12.73 C 0 km/h
1757 15-10-2019 04:00:00 12.38333 C 10.41 g/m*3 12.38 C 0.8 km/h
1758 15-10-2019 05:00:00 11.95833 C 10.18 g/m*3 11.96 C 0 km/h
1759 15-10-2019 06:00:00 12.09167 C 10.35 g/m*3 12.09 C 0.26667 km/h
1760 15-10-2019 07:00:00 11.96667 C 10.24 g/m*3 11.97 C 0 km/h
1761 15-10-2019 08:00:00 11.79167 C 10.19 g/m*3 11.79 C 0 km/h
1762 15-10-2019 09:00:00 12.36667 C 10.58 g/m*3 12.37 C 0 km/h
1763 15-10-2019 10:00:00 13.25833 C 11.18 g/m*3 13.26 C 0.8 km/h
1764 15-10-2019 11:00:00 15.375 C 12.54 g/m*3 15.38 C 2.54167 km/h
1765 15-10-2019 12:00:00 17.68333 C 12.87 g/m*3 17.68 C 6.58333 km/h
1766 15-10-2019 13:00:00 18.10833 C 12.43 g/m*3 18.11 C 9 km/h
1767 15-10-2019 14:00:00 17.73333 C 12.25 g/m*3 17.73 C 7.11667 km/h
1768 15-10-2019 15:00:00 17.21667 C 12.02 g/m*3 17.22 C 5.625 km/h
1769 15-10-2019 16:00:00 16.65833 C 12.09 g/m*3 16.66 C 1.86667 km/h
1770 15-10-2019 17:00:00 16.28333 C 12.2 g/m*3 16.28 C 0.13333 km/h
1771 15-10-2019 18:00:00 15.11667 C 11.88 g/m*3 15.12 C 0.66667 km/h
1772 15-10-2019 19:00:00 14.29167 C 11.58 g/m*3 14.29 C 0 km/h
1773 15-10-2019 20:00:00 13.925 C 11.41 g/m*3 13.93 C 0 km/h
1774 15-10-2019 21:00:00 13.65 C 11.27 g/m*3 13.65 C 0 km/h
1775 15-10-2019 22:00:00 13.41667 C 11.17 g/m*3 13.42 C 2.275 km/h
Sensor: Nr:Datum:Temp:Abs-Feuchte:Windchill:Wind:
Aussen-T/F 1776 15-10-2019 23:00:00 12.925 C 10.73 g/m*3 12.93 C 7.39167 km/h
1777 16-10-2019 00:00:00 12.10833 C 10.18 g/m*3 12.11 C 3.48333 km/h
1778 16-10-2019 01:00:00 11.85833 C 10.11 g/m*3 11.86 C 0.13333 km/h
1779 16-10-2019 02:00:00 11.8 C 10.1 g/m*3 11.8 C 0.26667 km/h
1780 16-10-2019 03:00:00 11.775 C 10.09 g/m*3 11.78 C 4.425 km/h
1781 16-10-2019 04:00:00 11.625 C 9.99 g/m*3 11.63 C 2.675 km/h
1782 16-10-2019 05:00:00 11.425 C 9.87 g/m*3 11.43 C 1.33333 km/h
1783 16-10-2019 06:00:00 11.18333 C 9.63 g/m*3 11.18 C 6.975 km/h
1784 16-10-2019 07:00:00 10.95833 C 9.38 g/m*3 10.96 C 2.26667 km/h
1785 16-10-2019 08:00:00 10.65 C 9.2 g/m*3 10.65 C 2.81667 km/h
1786 16-10-2019 09:00:00 10.925 C 9.44 g/m*3 10.93 C 1.6 km/h
1787 16-10-2019 10:00:00 12.44167 C 9.99 g/m*3 12.44 C 3.2 km/h
1788 16-10-2019 11:00:00 13.79167 C 10.29 g/m*3 13.79 C 5.9 km/h
1789 16-10-2019 12:00:00 14.55 C 10.54 g/m*3 14.55 C 5.64167 km/h
1790 16-10-2019 13:00:00 14.08333 C 11.05 g/m*3 14.08 C 0.53333 km/h
1791 16-10-2019 14:00:00 13.51667 C 11.02 g/m*3 13.52 C 2.275 km/h
1792 16-10-2019 15:00:00 13.91667 C 11.37 g/m*3 13.92 C 1.73333 km/h
1793 16-10-2019 16:00:00 14.34167 C 11.6 g/m*3 14.34 C 2.4 km/h
1794 16-10-2019 17:00:00 14.36667 C 11.66 g/m*3 14.37 C 0.26667 km/h
1795 16-10-2019 18:00:00 13.90833 C 11.39 g/m*3 13.91 C 0.13333 km/h
1796 16-10-2019 19:00:00 13.53333 C 11.25 g/m*3 13.53 C 0 km/h
1797 16-10-2019 20:00:00 13.25 C 11.06 g/m*3 13.25 C 0.26667 km/h
1798 16-10-2019 21:00:00 12.71667 C 10.7 g/m*3 12.72 C 0.26667 km/h
1799 16-10-2019 22:00:00 12.55833 C 10.59 g/m*3 12.56 C 0.26667 km/h
1800 16-10-2019 23:00:00 12.4 C 10.53 g/m*3 12.4 C 0.66667 km/h
Sensor: Nr:Datum:Temp:Abs-Feuchte:Windchill:Wind:
Aussen-T/F 1801 17-10-2019 00:00:00 12.64167 C 10.65 g/m*3 12.64 C 0.26667 km/h
1802 17-10-2019 01:00:00 12.61667 C 10.63 g/m*3 12.62 C 0.26667 km/h
1803 17-10-2019 02:00:00 12.375 C 10.47 g/m*3 12.38 C 0.26667 km/h
1804 17-10-2019 03:00:00 12.76667 C 10.67 g/m*3 12.77 C 1.2 km/h
1805 17-10-2019 04:00:00 13.575 C 10.86 g/m*3 13.58 C 1.6 km/h
1806 17-10-2019 05:00:00 14.19167 C 10.9 g/m*3 14.19 C 3.20833 km/h
1807 17-10-2019 06:00:00 14.23333 C 10.88 g/m*3 14.23 C 4.00833 km/h
1808 17-10-2019 07:00:00 14.24167 C 10.97 g/m*3 14.24 C 2.68333 km/h
1809 17-10-2019 08:00:00 14.58333 C 10.96 g/m*3 14.58 C 6.85 km/h
1810 17-10-2019 09:00:00 15.36667 C 11.12 g/m*3 15.37 C 7.39167 km/h
1811 17-10-2019 10:00:00 15.86667 C 11.24 g/m*3 15.87 C 9.39167 km/h
1812 17-10-2019 11:00:00 16.65833 C 11.61 g/m*3 16.66 C 3.88333 km/h
1813 17-10-2019 12:00:00 16.65833 C 11.92 g/m*3 16.66 C 2.26667 km/h
1814 17-10-2019 13:00:00 16.81667 C 11.88 g/m*3 16.82 C 5.50833 km/h
1815 17-10-2019 14:00:00 16.84167 C 12.29 g/m*3 16.84 C 0.93333 km/h
1816 17-10-2019 15:00:00 16.63333 C 12.31 g/m*3 16.63 C 0.8 km/h
1817 17-10-2019 16:00:00 15.85 C 12.31 g/m*3 15.85 C 0.26667 km/h
1818 17-10-2019 17:00:00 15.14167 C 12.15 g/m*3 15.14 C 0.13333 km/h
1819 17-10-2019 18:00:00 14.61667 C 11.9 g/m*3 14.62 C 0.26667 km/h
1820 17-10-2019 19:00:00 14.15833 C 11.65 g/m*3 14.16 C 0 km/h
1821 17-10-2019 20:00:00 14.08333 C 11.64 g/m*3 14.08 C 0.4 km/h
1822 17-10-2019 21:00:00 13.9 C 11.6 g/m*3 13.9 C 0.53333 km/h
1823 17-10-2019 22:00:00 13.85 C 11.59 g/m*3 13.85 C 0.13333 km/h
1824 17-10-2019 23:00:00 13.89167 C 11.62 g/m*3 13.89 C 0.66667 km/h
1825 18-10-2019 00:00:00 13.825 C 11.58 g/m*3 13.83 C 0.93333 km/h
Sensor: Nr:Datum:Temp:Abs-Feuchte:Windchill:Wind:
Aussen-T/F 1826 18-10-2019 01:00:00 12.83333 C 10.88 g/m*3 12.83 C 0.4 km/h
1827 18-10-2019 02:00:00 12.125 C 10.42 g/m*3 12.13 C 0 km/h
1828 18-10-2019 03:00:00 11.58333 C 10.07 g/m*3 11.58 C 0.4 km/h
1829 18-10-2019 04:00:00 11.49167 C 10.01 g/m*3 11.49 C 0.26667 km/h
1830 18-10-2019 05:00:00 11.80833 C 10.25 g/m*3 11.81 C 0.66667 km/h
1831 18-10-2019 06:00:00 12.7 C 10.91 g/m*3 12.7 C 1.6 km/h
1832 18-10-2019 07:00:00 12.60833 C 10.81 g/m*3 12.61 C 0.13333 km/h
1833 18-10-2019 08:00:00 12.8 C 10.98 g/m*3 12.8 C 0.26667 km/h
1834 18-10-2019 09:00:00 13.4 C 11.39 g/m*3 13.4 C 0 km/h
1835 18-10-2019 10:00:00 14.38333 C 12.1 g/m*3 14.38 C 1.33333 km/h
1836 18-10-2019 11:00:00 14.66667 C 12.23 g/m*3 14.67 C 3.88333 km/h
1837 18-10-2019 12:00:00 15.46667 C 11.78 g/m*3 15.47 C 7.25 km/h
1838 18-10-2019 13:00:00 14.95833 C 10.73 g/m*3 14.96 C 15.175 km/h
1839 18-10-2019 14:00:00 12.91667 C 9.64 g/m*3 12.92 C 16.50833 km/h
1840 18-10-2019 15:00:00 13.8 C 9.6 g/m*3 13.8 C 12.89167 km/h
1841 18-10-2019 16:00:00 14.23333 C 9.29 g/m*3 14.23 C 15.425 km/h
1842 18-10-2019 17:00:00 14.40833 C 9.06 g/m*3 14.41 C 9.8 km/h
1843 18-10-2019 18:00:00 12.64167 C 8.93 g/m*3 12.64 C 2.41667 km/h
1844 18-10-2019 19:00:00 10.63333 C 8.68 g/m*3 10.63 C 0.26667 km/h
1845 18-10-2019 20:00:00 9.75833 C 8.5 g/m*3 9.76 C 0 km/h
1846 18-10-2019 21:00:00 9.20833 C 8.34 g/m*3 9.21 C 0 km/h
1847 18-10-2019 22:00:00 9.23333 C 8.49 g/m*3 9.23 C 0 km/h
1848 18-10-2019 23:00:00 9.14167 C 8.45 g/m*3 9.14 C 0 km/h
1849 19-10-2019 00:00:00 9.14167 C 8.47 g/m*3 9.14 C 0.66667 km/h
1850 19-10-2019 01:00:00 9.64167 C 8.68 g/m*3 9.64 C 0.4 km/h
Sensor: Nr:Datum:Temp:Abs-Feuchte:Windchill:Wind:
Aussen-T/F 1851 19-10-2019 02:00:00 9.65833 C 8.67 g/m*3 9.66 C 0 km/h
1852 19-10-2019 03:00:00 9.875 C 8.76 g/m*3 9.88 C 0 km/h
1853 19-10-2019 04:00:00 10.10833 C 8.89 g/m*3 10.11 C 0.53333 km/h
1854 19-10-2019 05:00:00 10.68333 C 9.21 g/m*3 10.68 C 0.93333 km/h
1855 19-10-2019 06:00:00 10.70833 C 9.19 g/m*3 10.71 C 0 km/h
1856 19-10-2019 07:00:00 10.64167 C 9.23 g/m*3 10.64 C 0 km/h
1857 19-10-2019 08:00:00 11.05 C 9.54 g/m*3 11.05 C 0.26667 km/h
1858 19-10-2019 09:00:00 11.875 C 9.97 g/m*3 11.88 C 0.4 km/h
1859 19-10-2019 10:00:00 13.025 C 10.3 g/m*3 13.03 C 1.2 km/h
1860 19-10-2019 11:00:00 13.825 C 10.9 g/m*3 13.83 C 3.35 km/h
1861 19-10-2019 12:00:00 15.40833 C 11.24 g/m*3 15.41 C 3.34167 km/h
1862 19-10-2019 13:00:00 16.2 C 11.32 g/m*3 16.2 C 4.95833 km/h
1863 19-10-2019 14:00:00 16.9 C 11.41 g/m*3 16.9 C 7.5 km/h
1864 19-10-2019 15:00:00 17.24167 C 11.33 g/m*3 17.24 C 6.30833 km/h
1865 19-10-2019 16:00:00 17.15 C 11.4 g/m*3 17.15 C 1.475 km/h
1866 19-10-2019 17:00:00 16.84167 C 11.6 g/m*3 16.84 C 2.00833 km/h
1867 19-10-2019 18:00:00 15.16364 C 11.61 g/m*3 15.16 C 0.87273 km/h
1868 19-10-2019 19:00:00 14.03333 C 11.32 g/m*3 14.03 C 0 km/h
1869 19-10-2019 20:00:00 13.625 C 11.19 g/m*3 13.63 C 0 km/h
1870 19-10-2019 21:00:00 13.43333 C 11.14 g/m*3 13.43 C 0.53333 km/h
1871 19-10-2019 22:00:00 13.21667 C 11.03 g/m*3 13.22 C 0 km/h
1872 19-10-2019 23:00:00 13.00833 C 10.89 g/m*3 13.01 C 0 km/h
1873 20-10-2019 00:00:00 13 C 10.96 g/m*3 13 C 0 km/h
1874 20-10-2019 01:00:00 13.13333 C 11.09 g/m*3 13.13 C 0 km/h
1875 20-10-2019 02:00:00 13.11667 C 11.08 g/m*3 13.12 C 0 km/h
Sensor: Nr:Datum:Temp:Abs-Feuchte:Windchill:Wind:
Aussen-T/F 1876 20-10-2019 03:00:00 13.1 C 11.07 g/m*3 13.1 C 0 km/h
1877 20-10-2019 04:00:00 13.16667 C 11.11 g/m*3 13.17 C 0 km/h
1878 20-10-2019 05:00:00 12.96667 C 10.98 g/m*3 12.97 C 0.26667 km/h
1879 20-10-2019 06:00:00 12.74167 C 10.83 g/m*3 12.74 C 0 km/h
1880 20-10-2019 07:00:00 12.65 C 10.76 g/m*3 12.65 C 0 km/h
1881 20-10-2019 08:00:00 12.70833 C 10.8 g/m*3 12.71 C 0 km/h
1882 20-10-2019 09:00:00 12.84167 C 10.96 g/m*3 12.84 C 0.13333 km/h
1883 20-10-2019 10:00:00 13.04167 C 11.1 g/m*3 13.04 C 0.13333 km/h
1884 20-10-2019 11:00:00 13.25833 C 11.26 g/m*3 13.26 C 0.53333 km/h
1885 20-10-2019 12:00:00 13.69167 C 11.6 g/m*3 13.69 C 0 km/h
1886 20-10-2019 13:00:00 13.96667 C 11.8 g/m*3 13.97 C 0.13333 km/h
1887 20-10-2019 14:00:00 14.275 C 12.02 g/m*3 14.28 C 0.53333 km/h
1888 20-10-2019 15:00:00 14.525 C 12.21 g/m*3 14.53 C 0 km/h
1889 20-10-2019 16:00:00 14.83333 C 12.44 g/m*3 14.83 C 0.26667 km/h
1890 20-10-2019 17:00:00 14.85 C 12.45 g/m*3 14.85 C 0 km/h
1891 20-10-2019 18:00:00 14.45833 C 12.16 g/m*3 14.46 C 0 km/h
1892 20-10-2019 19:00:00 14.20833 C 11.97 g/m*3 14.21 C 0 km/h
1893 20-10-2019 20:00:00 14.03333 C 11.85 g/m*3 14.03 C 0 km/h
1894 20-10-2019 21:00:00 14.05833 C 11.86 g/m*3 14.06 C 0.26667 km/h
1895 20-10-2019 22:00:00 13.90909 C 11.76 g/m*3 13.91 C 0 km/h
1896 20-10-2019 23:00:00 13.925 C 11.77 g/m*3 13.93 C 0.26667 km/h
1897 21-10-2019 00:00:00 14.24167 C 12 g/m*3 14.24 C 4.95833 km/h
1898 21-10-2019 01:00:00 14.14167 C 11.92 g/m*3 14.14 C 0 km/h
1899 21-10-2019 02:00:00 13.74167 C 11.63 g/m*3 13.74 C 0 km/h
1900 21-10-2019 03:00:00 13.66667 C 11.58 g/m*3 13.67 C 0 km/h
Sensor: Nr:Datum:Temp:Abs-Feuchte:Windchill:Wind:
Aussen-T/F 1901 21-10-2019 04:00:00 13.11667 C 11.19 g/m*3 13.12 C 0 km/h
1902 21-10-2019 05:00:00 13.21667 C 11.26 g/m*3 13.22 C 0.13333 km/h
1903 21-10-2019 06:00:00 13.60833 C 11.54 g/m*3 13.61 C 0 km/h
1904 21-10-2019 07:00:00 13.31667 C 11.33 g/m*3 13.32 C 0 km/h
1905 21-10-2019 08:00:00 12.70833 C 10.91 g/m*3 12.71 C 0 km/h
1906 21-10-2019 09:00:00 12.9 C 11.05 g/m*3 12.9 C 0 km/h
1907 21-10-2019 10:00:00 13.49167 C 11.49 g/m*3 13.49 C 0.4 km/h
1908 21-10-2019 11:00:00 14.00833 C 11.83 g/m*3 14.01 C 2 km/h
1909 21-10-2019 12:00:00 14.60833 C 12.29 g/m*3 14.61 C 3.35 km/h
1910 21-10-2019 13:00:00 15.91667 C 12.04 g/m*3 15.92 C 11.025 km/h
1911 21-10-2019 14:00:00 16.70833 C 11.69 g/m*3 16.71 C 6.31667 km/h
1912 21-10-2019 15:00:00 16.375 C 11.27 g/m*3 16.38 C 6.96667 km/h
1913 21-10-2019 16:00:00 15.86667 C 10.94 g/m*3 15.87 C 4.95 km/h
1914 21-10-2019 17:00:00 14.73333 C 10.79 g/m*3 14.73 C 1.60833 km/h
1915 21-10-2019 18:00:00 13.72727 C 10.33 g/m*3 13.73 C 0.87273 km/h
1916 21-10-2019 19:00:00 12.49167 C 9.92 g/m*3 12.49 C 0 km/h
1917 21-10-2019 20:00:00 11.75 C 9.69 g/m*3 11.75 C 0 km/h
1918 21-10-2019 21:00:00 11.38333 C 9.6 g/m*3 11.38 C 0 km/h
1919 21-10-2019 22:00:00 11.325 C 9.6 g/m*3 11.33 C 0 km/h
1920 21-10-2019 23:00:00 11.21667 C 9.52 g/m*3 11.22 C 0 km/h
1921 22-10-2019 00:00:00 10.825 C 9.36 g/m*3 10.83 C 0 km/h
1922 22-10-2019 01:00:00 11.01667 C 9.52 g/m*3 11.02 C 0.26667 km/h
1923 22-10-2019 02:00:00 10.94167 C 9.47 g/m*3 10.94 C 0 km/h
1924 22-10-2019 03:00:00 10.875 C 9.42 g/m*3 10.88 C 0 km/h
1925 22-10-2019 04:00:00 10.66667 C 9.29 g/m*3 10.67 C 0 km/h
Sensor: Nr:Datum:Temp:Abs-Feuchte:Windchill:Wind:
Aussen-T/F 1926 22-10-2019 05:00:00 10 C 8.92 g/m*3 10 C 0 km/h
1927 22-10-2019 06:00:00 10.1 C 9.08 g/m*3 10.1 C 0 km/h
1928 22-10-2019 07:00:00 9.975 C 8.95 g/m*3 9.98 C 0 km/h
1929 22-10-2019 08:00:00 9.875 C 8.95 g/m*3 9.88 C 0 km/h
1930 22-10-2019 09:00:00 10.44167 C 9.25 g/m*3 10.44 C 1.2 km/h
1931 22-10-2019 10:00:00 11.36667 C 9.62 g/m*3 11.37 C 3.6 km/h
1932 22-10-2019 11:00:00 12.78333 C 9.88 g/m*3 12.78 C 4.675 km/h
1933 22-10-2019 12:00:00 13.61667 C 10 g/m*3 13.62 C 1.06667 km/h
1934 22-10-2019 13:00:00 14.35714 C 10.15 g/m*3 14.36 C 1.82857 km/h
1935 22-10-2019 14:00:00 15.08333 C 9.99 g/m*3 15.08 C 3.2 km/h
1936 22-10-2019 15:00:00 14.68333 C 10.31 g/m*3 14.68 C 0.26667 km/h
1937 22-10-2019 16:00:00 13.78333 C 10.36 g/m*3 13.78 C 0 km/h
1938 22-10-2019 17:00:00 13.31667 C 10.17 g/m*3 13.32 C 0.13333 km/h
1939 22-10-2019 18:00:00 12.55 C 9.64 g/m*3 12.55 C 1.33333 km/h
1940 22-10-2019 19:00:00 11.74167 C 9.48 g/m*3 11.74 C 0 km/h
1941 22-10-2019 20:00:00 10.70833 C 9.16 g/m*3 10.71 C 0 km/h
1942 22-10-2019 21:00:00 10.125 C 8.96 g/m*3 10.13 C 0 km/h
1943 22-10-2019 22:00:00 10.20833 C 9.13 g/m*3 10.21 C 0 km/h
1944 22-10-2019 23:00:00 9.9 C 8.94 g/m*3 9.9 C 0 km/h
1945 23-10-2019 00:00:00 8.98333 C 8.43 g/m*3 8.98 C 0 km/h
1946 23-10-2019 01:00:00 8.61667 C 8.26 g/m*3 8.62 C 0 km/h
1947 23-10-2019 02:00:00 8.20833 C 8.04 g/m*3 8.21 C 0 km/h
1948 23-10-2019 03:00:00 8.00833 C 8 g/m*3 8.01 C 0 km/h
1949 23-10-2019 04:00:00 7.83333 C 7.93 g/m*3 7.83 C 0 km/h
1950 23-10-2019 05:00:00 8.16667 C 8.11 g/m*3 8.17 C 0 km/h
Sensor: Nr:Datum:Temp:Abs-Feuchte:Windchill:Wind:
Aussen-T/F 1951 23-10-2019 06:00:00 8.13333 C 8.09 g/m*3 8.13 C 0 km/h
1952 23-10-2019 07:00:00 7.95 C 7.99 g/m*3 7.95 C 0 km/h
1953 23-10-2019 08:00:00 7.86667 C 7.97 g/m*3 7.87 C 0.13333 km/h
1954 23-10-2019 09:00:00 8.70833 C 8.47 g/m*3 8.71 C 1.06667 km/h
1955 23-10-2019 10:00:00 9.60833 C 8.98 g/m*3 9.61 C 0.13333 km/h
1956 23-10-2019 11:00:00 10.98333 C 9.8 g/m*3 10.98 C 3.20833 km/h
1957 23-10-2019 12:00:00 11.825 C 10.16 g/m*3 11.83 C 7.11667 km/h
1958 23-10-2019 13:00:00 12.95833 C 10.43 g/m*3 12.96 C 5.50833 km/h
1959 23-10-2019 14:00:00 13.84167 C 10.72 g/m*3 13.84 C 6.975 km/h
1960 23-10-2019 15:00:00 14.3 C 10.94 g/m*3 14.3 C 3.34167 km/h
1961 23-10-2019 16:00:00 14.79167 C 11.3 g/m*3 14.79 C 0.93333 km/h
1962 23-10-2019 17:00:00 14.94167 C 11.51 g/m*3 14.94 C 0.13333 km/h
1963 23-10-2019 18:00:00 14.175 C 11.18 g/m*3 14.18 C 0 km/h
1964 23-10-2019 19:00:00 13.39167 C 10.86 g/m*3 13.39 C 0.13333 km/h
1965 23-10-2019 20:00:00 13.24167 C 10.86 g/m*3 13.24 C 0 km/h
1966 23-10-2019 21:00:00 13.19167 C 10.9 g/m*3 13.19 C 0 km/h
1967 23-10-2019 22:00:00 12.94167 C 10.73 g/m*3 12.94 C 0 km/h
1968 23-10-2019 23:00:00 12.76667 C 10.62 g/m*3 12.77 C 0 km/h
1969 24-10-2019 00:00:00 12.39167 C 10.44 g/m*3 12.39 C 0 km/h
1970 24-10-2019 01:00:00 12.15833 C 10.33 g/m*3 12.16 C 0.66667 km/h
1971 24-10-2019 02:00:00 12.25833 C 10.43 g/m*3 12.26 C 0 km/h
1972 24-10-2019 03:00:00 11.81667 C 10.11 g/m*3 11.82 C 0 km/h
1973 24-10-2019 04:00:00 11.59167 C 10.06 g/m*3 11.59 C 0 km/h
1974 24-10-2019 05:00:00 11.85 C 10.24 g/m*3 11.85 C 0.13333 km/h
1975 24-10-2019 06:00:00 11.89167 C 10.28 g/m*3 11.89 C 0.53333 km/h
Sensor: Nr:Datum:Temp:Abs-Feuchte:Windchill:Wind:
Aussen-T/F 1976 24-10-2019 07:00:00 12.33333 C 10.56 g/m*3 12.33 C 0.66667 km/h
1977 24-10-2019 08:00:00 12.49167 C 10.66 g/m*3 12.49 C 0.66667 km/h
1978 24-10-2019 09:00:00 13.01667 C 11.01 g/m*3 13.02 C 0 km/h
1979 24-10-2019 10:00:00 13.58333 C 11.38 g/m*3 13.58 C 0.93333 km/h
1980 24-10-2019 11:00:00 14.51667 C 11.65 g/m*3 14.52 C 0.53333 km/h
1981 24-10-2019 12:00:00 15.175 C 12 g/m*3 15.18 C 0 km/h
1982 24-10-2019 13:00:00 16.45833 C 12.57 g/m*3 16.46 C 1.74167 km/h
1983 24-10-2019 14:00:00 17.46667 C 12.93 g/m*3 17.47 C 0.66667 km/h
1984 24-10-2019 15:00:00 18.525 C 13.34 g/m*3 18.52 C 1.2 km/h
1985 24-10-2019 16:00:00 18.44167 C 12.48 g/m*3 18.44 C 4.01667 km/h
1986 24-10-2019 17:00:00 17.525 C 12.19 g/m*3 17.52 C 2.28333 km/h
1987 24-10-2019 18:00:00 15.70833 C 11.42 g/m*3 15.71 C 1.86667 km/h
1988 24-10-2019 19:00:00 14.69167 C 11.11 g/m*3 14.69 C 1.06667 km/h
1989 24-10-2019 20:00:00 13.85833 C 10.81 g/m*3 13.86 C 0.66667 km/h
1990 24-10-2019 21:00:00 13.54167 C 10.67 g/m*3 13.54 C 0.26667 km/h
1991 24-10-2019 22:00:00 13.075 C 10.53 g/m*3 13.08 C 0 km/h
1992 24-10-2019 23:00:00 13.18333 C 10.74 g/m*3 13.18 C 0 km/h
1993 25-10-2019 00:00:00 12.40833 C 10.23 g/m*3 12.41 C 0 km/h
1994 25-10-2019 01:00:00 11.95 C 10.09 g/m*3 11.95 C 0 km/h
1995 25-10-2019 02:00:00 11.49167 C 9.82 g/m*3 11.49 C 1.075 km/h
1996 25-10-2019 03:00:00 12.34167 C 10.22 g/m*3 12.34 C 1.875 km/h
1997 25-10-2019 04:00:00 12.88333 C 10.32 g/m*3 12.88 C 1.73333 km/h
1998 25-10-2019 05:00:00 12.65833 C 10.09 g/m*3 12.66 C 2.95 km/h
1999 25-10-2019 06:00:00 12.63333 C 10.2 g/m*3 12.63 C 1.86667 km/h
2000 25-10-2019 07:00:00 13.175 C 10.39 g/m*3 13.18 C 2.40833 km/h
Sensor: Nr:Datum:Temp:Abs-Feuchte:Windchill:Wind:
Aussen-T/F 2001 25-10-2019 08:00:00 12.68333 C 10.19 g/m*3 12.68 C 1.46667 km/h
2002 25-10-2019 09:00:00 12.93333 C 10.5 g/m*3 12.93 C 1.86667 km/h
2003 25-10-2019 10:00:00 13.775 C 10.6 g/m*3 13.78 C 6.30833 km/h
2004 25-10-2019 11:00:00 14.90833 C 10.52 g/m*3 14.91 C 9.40833 km/h
2005 25-10-2019 12:00:00 15.275 C 10.34 g/m*3 15.28 C 9.95833 km/h
2006 25-10-2019 13:00:00 16.19167 C 10.17 g/m*3 16.19 C 9.275 km/h
2007 25-10-2019 14:00:00 16.29167 C 10.24 g/m*3 16.29 C 7.525 km/h
2008 25-10-2019 15:00:00 16.43333 C 9.86 g/m*3 16.43 C 9.68333 km/h
2009 25-10-2019 16:00:00 16.05833 C 10 g/m*3 16.06 C 6.575 km/h
2010 25-10-2019 17:00:00 14.56667 C 10.21 g/m*3 14.57 C 0.66667 km/h
2011 25-10-2019 18:00:00 13.01667 C 9.81 g/m*3 13.02 C 0.8 km/h
2012 25-10-2019 19:00:00 11.99167 C 9.58 g/m*3 11.99 C 0.13333 km/h
2013 25-10-2019 20:00:00 11.45 C 9.4 g/m*3 11.45 C 0 km/h
2014 25-10-2019 21:00:00 11.025 C 9.26 g/m*3 11.03 C 0 km/h
2015 25-10-2019 22:00:00 11.3 C 9.56 g/m*3 11.3 C 0.53333 km/h
2016 25-10-2019 23:00:00 12.46667 C 10.12 g/m*3 12.47 C 1.6 km/h
2017 26-10-2019 00:00:00 13.48333 C 10.42 g/m*3 13.48 C 1.46667 km/h
2018 26-10-2019 01:00:00 13.675 C 10.41 g/m*3 13.68 C 1.2 km/h
2019 26-10-2019 02:00:00 13.53333 C 10.28 g/m*3 13.53 C 1.06667 km/h
2020 26-10-2019 03:00:00 12.26667 C 9.88 g/m*3 12.27 C 0.53333 km/h
2021 26-10-2019 04:00:00 11.59167 C 9.73 g/m*3 11.59 C 1.74167 km/h
2022 26-10-2019 05:00:00 12.29167 C 10.1 g/m*3 12.29 C 2.28333 km/h
2023 26-10-2019 06:00:00 11.86667 C 9.86 g/m*3 11.87 C 0.13333 km/h
2024 26-10-2019 07:00:00 11.1 C 9.47 g/m*3 11.1 C 0 km/h
2025 26-10-2019 08:00:00 10.15833 C 8.99 g/m*3 10.16 C 0 km/h
Sensor: Nr:Datum:Temp:Abs-Feuchte:Windchill:Wind:
Aussen-T/F 2026 26-10-2019 09:00:00 10.325 C 9.21 g/m*3 10.33 C 0 km/h
2027 26-10-2019 10:00:00 11.26667 C 9.84 g/m*3 11.27 C 0 km/h
2028 26-10-2019 11:00:00 12.475 C 10.63 g/m*3 12.48 C 0 km/h
2029 26-10-2019 12:00:00 13.81667 C 11.34 g/m*3 13.82 C 1.2 km/h
2030 26-10-2019 13:00:00 15.18333 C 11.66 g/m*3 15.18 C 0.93333 km/h
2031 26-10-2019 14:00:00 16.53333 C 11.97 g/m*3 16.53 C 2.26667 km/h
2032 26-10-2019 15:00:00 16.78333 C 12.09 g/m*3 16.78 C 0.66667 km/h
2033 26-10-2019 16:00:00 16.53333 C 12.06 g/m*3 16.53 C 1.06667 km/h
2034 26-10-2019 17:00:00 15.31667 C 11.43 g/m*3 15.32 C 1.6 km/h
2035 26-10-2019 18:00:00 13.925 C 10.7 g/m*3 13.93 C 0.53333 km/h
2036 26-10-2019 19:00:00 12.975 C 10.3 g/m*3 12.98 C 0.26667 km/h
2037 26-10-2019 20:00:00 12.86667 C 10.42 g/m*3 12.87 C 0.4 km/h
2038 26-10-2019 21:00:00 12.99167 C 10.44 g/m*3 12.99 C 0 km/h
2039 26-10-2019 22:00:00 12.64167 C 10.32 g/m*3 12.64 C 0 km/h
2040 26-10-2019 23:00:00 12.625 C 10.4 g/m*3 12.63 C 0.4 km/h
2041 27-10-2019 00:00:00 13.45833 C 10.54 g/m*3 13.46 C 3.35 km/h
2042 27-10-2019 01:00:00 13.74167 C 10.39 g/m*3 13.74 C 0.8 km/h
2043 27-10-2019 02:00:00 12.98333 C 10.14 g/m*3 12.98 C 2 km/h
2044 27-10-2019 04:00:00 12.17391 C 9.93 g/m*3 12.17 C 1.04348 km/h
2045 27-10-2019 05:00:00 12.87692 C 10.27 g/m*3 12.88 C 0.98462 km/h
2046 27-10-2019 06:00:00 14.125 C 10.45 g/m*3 14.13 C 7.10833 km/h
2047 27-10-2019 07:00:00 14.16667 C 10.64 g/m*3 14.17 C 9.66667 km/h
2048 27-10-2019 08:00:00 11.975 C 9.77 g/m*3 11.98 C 10.89167 km/h
2049 27-10-2019 09:00:00 10.425 C 8.96 g/m*3 9.15 C 9.93333 km/h
2050 27-10-2019 10:00:00 9.44167 C 8.49 g/m*3 9.44 C 1.6 km/h
Sensor: Nr:Datum:Temp:Abs-Feuchte:Windchill:Wind:
Aussen-T/F 2051 27-10-2019 11:00:00 9.75833 C 8.74 g/m*3 9.76 C 0.93333 km/h
2052 27-10-2019 12:00:00 10 C 8.87 g/m*3 10 C 0.4 km/h
2053 27-10-2019 13:00:00 9.9 C 8.84 g/m*3 9.9 C 0 km/h
2054 27-10-2019 14:00:00 9.53333 C 8.6 g/m*3 9.53 C 0.4 km/h
2055 27-10-2019 15:00:00 9.43333 C 8.61 g/m*3 9.43 C 0 km/h
2056 27-10-2019 16:00:00 9.16667 C 8.47 g/m*3 9.17 C 0 km/h
2057 27-10-2019 17:00:00 8.55 C 8.17 g/m*3 8.55 C 0 km/h
2058 27-10-2019 18:00:00 8.35 C 8.12 g/m*3 8.35 C 0 km/h
2059 27-10-2019 19:00:00 8.275 C 8.08 g/m*3 8.28 C 0 km/h
2060 27-10-2019 20:00:00 7.50833 C 7.69 g/m*3 7.51 C 0 km/h
2061 27-10-2019 21:00:00 6.91667 C 7.4 g/m*3 6.92 C 0.4 km/h
2062 27-10-2019 22:00:00 5.925 C 6.93 g/m*3 5.93 C 0 km/h
2063 27-10-2019 23:00:00 5.125 C 6.6 g/m*3 5.13 C 0.26667 km/h
2064 28-10-2019 00:00:00 5.325 C 6.73 g/m*3 5.33 C 0.13333 km/h
2065 28-10-2019 01:00:00 5.8 C 6.95 g/m*3 5.8 C 0.13333 km/h
2066 28-10-2019 02:00:00 5.59167 C 6.85 g/m*3 5.59 C 0 km/h
2067 28-10-2019 03:00:00 5.44167 C 6.79 g/m*3 5.44 C 0.26667 km/h
2068 28-10-2019 04:00:00 5.30833 C 6.73 g/m*3 5.31 C 0 km/h
2069 28-10-2019 05:00:00 5.2 C 6.68 g/m*3 5.2 C 0 km/h
2070 28-10-2019 06:00:00 5.13333 C 6.65 g/m*3 5.13 C 0 km/h
2071 28-10-2019 07:00:00 5.26667 C 6.71 g/m*3 5.27 C 0.8 km/h
2072 28-10-2019 08:00:00 5.51667 C 6.84 g/m*3 5.52 C 2 km/h
2073 28-10-2019 09:00:00 5.8 C 7.02 g/m*3 5.8 C 1.2 km/h
2074 28-10-2019 10:00:00 6.18333 C 7.2 g/m*3 6.18 C 2.26667 km/h
2075 28-10-2019 11:00:00 6.38333 C 7.29 g/m*3 6.38 C 1.6 km/h
Sensor: Nr:Datum:Temp:Abs-Feuchte:Windchill:Wind:
Aussen-T/F 2076 28-10-2019 12:00:00 6.5 C 7.33 g/m*3 5.48 C 5.88333 km/h
2077 28-10-2019 13:00:00 6.725 C 7.38 g/m*3 6.73 C 1.86667 km/h
2078 28-10-2019 14:00:00 7.39167 C 7.68 g/m*3 7.39 C 0.13333 km/h
2079 28-10-2019 15:00:00 8.01667 C 7.88 g/m*3 8.02 C 0.13333 km/h
2080 28-10-2019 16:00:00 7.79167 C 7.74 g/m*3 7.79 C 0 km/h
2081 28-10-2019 17:00:00 7 C 7.39 g/m*3 7 C 0 km/h
2082 28-10-2019 18:00:00 7.175 C 7.52 g/m*3 7.18 C 0 km/h
2083 28-10-2019 19:00:00 7.15833 C 7.52 g/m*3 7.16 C 0 km/h
2084 28-10-2019 20:00:00 6.99167 C 7.47 g/m*3 6.99 C 0 km/h
2085 28-10-2019 21:00:00 6.94167 C 7.46 g/m*3 6.94 C 0 km/h
2086 28-10-2019 22:00:00 6.78333 C 7.41 g/m*3 6.78 C 0.53333 km/h
2087 28-10-2019 23:00:00 6.7 C 7.33 g/m*3 6.7 C 1.73333 km/h
2088 29-10-2019 00:00:00 6.68333 C 7.29 g/m*3 6.68 C 2.4 km/h
2089 29-10-2019 01:00:00 6.41667 C 7.16 g/m*3 6.42 C 3.73333 km/h
2090 29-10-2019 02:00:00 6.3 C 7.11 g/m*3 6.3 C 0.26667 km/h
2091 29-10-2019 03:00:00 6.275 C 7.09 g/m*3 6.28 C 1.2 km/h
2092 29-10-2019 04:00:00 6.2 C 7.06 g/m*3 6.2 C 0.93333 km/h
2093 29-10-2019 05:00:00 6.2 C 7.06 g/m*3 6.2 C 1.46667 km/h
2094 29-10-2019 06:00:00 6.10833 C 7 g/m*3 6.11 C 1.06667 km/h
2095 29-10-2019 07:00:00 5.975 C 6.91 g/m*3 5.98 C 0.8 km/h
2096 29-10-2019 08:00:00 6.225 C 7.04 g/m*3 6.23 C 0.66667 km/h
2097 29-10-2019 09:00:00 6.69167 C 7.2 g/m*3 6.69 C 0 km/h
2098 29-10-2019 10:00:00 7.475 C 7.41 g/m*3 7.48 C 0.53333 km/h
2099 29-10-2019 11:00:00 8.23333 C 7.6 g/m*3 8.23 C 0 km/h
2100 29-10-2019 12:00:00 8.925 C 7.75 g/m*3 8.93 C 0.66667 km/h
Sensor: Nr:Datum:Temp:Abs-Feuchte:Windchill:Wind:
Aussen-T/F 2101 29-10-2019 13:00:00 9.74167 C 7.8 g/m*3 9.74 C 3.88333 km/h
2102 29-10-2019 14:00:00 10.59167 C 7.45 g/m*3 9.92 C 6.96667 km/h
2103 29-10-2019 15:00:00 9.575 C 7.35 g/m*3 9.57 C 1.74167 km/h
2104 29-10-2019 16:00:00 8.275 C 7.43 g/m*3 8.28 C 0.4 km/h
2105 29-10-2019 17:00:00 6.94167 C 6.9 g/m*3 6.94 C 1.86667 km/h
2106 29-10-2019 18:00:00 5.96667 C 6.58 g/m*3 5.97 C 0.66667 km/h
2107 29-10-2019 19:00:00 4.96667 C 6.27 g/m*3 4.97 C 0 km/h
2108 29-10-2019 20:00:00 4.425 C 6.15 g/m*3 4.43 C 0 km/h
2109 29-10-2019 21:00:00 3.63333 C 5.84 g/m*3 3.63 C 0 km/h
2110 29-10-2019 22:00:00 2.99167 C 5.65 g/m*3 2.99 C 0 km/h
2111 29-10-2019 23:00:00 2.775 C 5.61 g/m*3 2.78 C 0 km/h
2112 30-10-2019 00:00:00 2.20833 C 5.4 g/m*3 2.21 C 0 km/h
2113 30-10-2019 01:00:00 1.98333 C 5.33 g/m*3 1.98 C 0 km/h
2114 30-10-2019 02:00:00 1.98333 C 5.33 g/m*3 1.98 C 0 km/h
2115 30-10-2019 03:00:00 1.51667 C 5.16 g/m*3 1.52 C 0 km/h
2116 30-10-2019 04:00:00 1.14167 C 5.05 g/m*3 1.14 C 0 km/h
2117 30-10-2019 05:00:00 1.35 C 5.14 g/m*3 1.35 C 0.26667 km/h
2118 30-10-2019 06:00:00 1.4 C 5.17 g/m*3 1.4 C 0 km/h
2119 30-10-2019 07:00:00 1.45833 C 5.19 g/m*3 1.46 C 0.26667 km/h
2120 30-10-2019 08:00:00 1.85833 C 5.34 g/m*3 1.86 C 0.26667 km/h
2121 30-10-2019 09:00:00 2.4 C 5.54 g/m*3 2.4 C 0.13333 km/h
2122 30-10-2019 10:00:00 3.69167 C 6.09 g/m*3 3.69 C 0 km/h
2123 30-10-2019 11:00:00 4.94167 C 6.63 g/m*3 4.94 C 0.66667 km/h
2124 30-10-2019 12:00:00 5.71667 C 6.9 g/m*3 5.72 C 0.26667 km/h
2125 30-10-2019 13:00:00 6.63333 C 6.88 g/m*3 6.63 C 2.66667 km/h
Sensor: Nr:Datum:Temp:Abs-Feuchte:Windchill:Wind:
Aussen-T/F 2126 30-10-2019 14:00:00 7.58333 C 6.8 g/m*3 7.58 C 2.675 km/h
2127 30-10-2019 15:00:00 7.75 C 6.86 g/m*3 7.75 C 0.4 km/h
2128 30-10-2019 16:00:00 7.01667 C 6.83 g/m*3 7.02 C 0 km/h
2129 30-10-2019 17:00:00 5.76667 C 6.37 g/m*3 5.77 C 0 km/h
2130 30-10-2019 18:00:00 4.46667 C 5.94 g/m*3 4.47 C 0.26667 km/h
2131 30-10-2019 19:00:00 3.8 C 5.77 g/m*3 3.8 C 0 km/h
2132 30-10-2019 20:00:00 3.23333 C 5.64 g/m*3 3.23 C 0.66667 km/h
2133 30-10-2019 21:00:00 2.70833 C 5.5 g/m*3 2.71 C 0.53333 km/h
2134 30-10-2019 22:00:00 2.25 C 5.35 g/m*3 2.25 C 0.13333 km/h
2135 30-10-2019 23:00:00 1.80833 C 5.21 g/m*3 1.81 C 0 km/h
2136 31-10-2019 00:00:00 1.025 C 4.94 g/m*3 1.02 C 0 km/h
2137 31-10-2019 01:00:00 0.89167 C 4.94 g/m*3 0.89 C 0 km/h
2138 31-10-2019 02:00:00 0.53333 C 4.83 g/m*3 0.53 C 0 km/h
2139 31-10-2019 03:00:00 0.28333 C 4.74 g/m*3 0.28 C 0 km/h
2140 31-10-2019 04:00:00 0.06667 C 4.67 g/m*3 0.07 C 0 km/h
2141 31-10-2019 05:00:00 -0.325 C 4.55 g/m*3 -0.33 C 0 km/h
2142 31-10-2019 06:00:00 -0.50833 C 4.49 g/m*3 -0.51 C 0 km/h
2143 31-10-2019 07:00:00 -0.75 C 4.43 g/m*3 -0.75 C 0 km/h
2144 31-10-2019 08:00:00 -0.61667 C 4.48 g/m*3 -0.62 C 0 km/h
2145 31-10-2019 09:00:00 0.05 C 4.72 g/m*3 0.05 C 0 km/h
2146 31-10-2019 10:00:00 1.13333 C 5.09 g/m*3 1.13 C 0.93333 km/h
2147 31-10-2019 11:00:00 2.85833 C 5.76 g/m*3 2.86 C 0.53333 km/h
2148 31-10-2019 12:00:00 4.16667 C 6.28 g/m*3 4.17 C 1.2 km/h
2149 31-10-2019 13:00:00 5.60833 C 6.68 g/m*3 5.61 C 4.55833 km/h
2150 31-10-2019 14:00:00 7.29167 C 6.65 g/m*3 7.29 C 3.875 km/h
Sensor: Nr:Datum:Temp:Abs-Feuchte:Windchill:Wind:
Aussen-T/F 2151 31-10-2019 15:00:00 7.44167 C 6.65 g/m*3 7.44 C 2.54167 km/h
2152 31-10-2019 16:00:00 6.125 C 6.4 g/m*3 6.13 C 1.73333 km/h
2153 31-10-2019 17:00:00 4.63333 C 5.86 g/m*3 4.63 C 0.8 km/h
2154 31-10-2019 18:00:00 3.70833 C 5.55 g/m*3 3.71 C 0 km/h
2155 31-10-2019 19:00:00 3.175 C 5.44 g/m*3 3.18 C 0 km/h
2156 31-10-2019 20:00:00 2.325 C 5.23 g/m*3 2.33 C 0 km/h
2157 31-10-2019 21:00:00 1.71667 C 5.11 g/m*3 1.72 C 0 km/h
2158 31-10-2019 22:00:00 1.48333 C 5.06 g/m*3 1.48 C 0 km/h
2159 31-10-2019 23:00:00 1.30833 C 5.04 g/m*3 1.31 C 0 km/h
2160 01-11-2019 00:00:00 0.88333 C 4.89 g/m*3 0.88 C 0 km/h
2161 01-11-2019 01:00:00 0.6 C 4.81 g/m*3 0.6 C 0 km/h
2162 01-11-2019 02:00:00 0.55833 C 4.83 g/m*3 0.56 C 0 km/h
2163 01-11-2019 03:00:00 0.44167 C 4.8 g/m*3 0.44 C 0 km/h
2164 01-11-2019 04:00:00 1.03333 C 5.02 g/m*3 1.03 C 0 km/h
2165 01-11-2019 05:00:00 2.16667 C 5.45 g/m*3 2.17 C 0 km/h
2166 01-11-2019 06:00:00 2.85833 C 5.71 g/m*3 2.86 C 0 km/h
2167 01-11-2019 07:00:00 3.55 C 5.98 g/m*3 3.55 C 0 km/h
2168 01-11-2019 08:00:00 4.35833 C 6.32 g/m*3 4.36 C 0 km/h
2169 01-11-2019 09:00:00 5.40833 C 6.77 g/m*3 5.41 C 0 km/h
2170 01-11-2019 10:00:00 6.38333 C 7.22 g/m*3 6.38 C 0.8 km/h
2171 01-11-2019 11:00:00 7.29167 C 7.55 g/m*3 7.29 C 1.86667 km/h
2172 01-11-2019 12:00:00 8.09167 C 7.76 g/m*3 8.09 C 3.35 km/h
2173 01-11-2019 13:00:00 8.53333 C 7.96 g/m*3 8.53 C 1.06667 km/h
2174 01-11-2019 14:00:00 8.73333 C 8.2 g/m*3 8.73 C 1.33333 km/h
2175 01-11-2019 15:00:00 8.7 C 8.27 g/m*3 8.7 C 1.46667 km/h
Sensor: Nr:Datum:Temp:Abs-Feuchte:Windchill:Wind:
Aussen-T/F 2176 01-11-2019 16:00:00 8.8 C 8.36 g/m*3 8.8 C 0 km/h
2177 01-11-2019 17:00:00 8.85833 C 8.39 g/m*3 8.86 C 1.2 km/h
2178 01-11-2019 18:00:00 8.86667 C 8.41 g/m*3 8.87 C 0.4 km/h
2179 01-11-2019 19:00:00 8.93333 C 8.52 g/m*3 8.93 C 0 km/h
2180 01-11-2019 20:00:00 9.225 C 8.68 g/m*3 9.23 C 0 km/h
2181 01-11-2019 21:00:00 9.64167 C 8.92 g/m*3 9.64 C 0 km/h
2182 01-11-2019 22:00:00 10.15 C 9.3 g/m*3 10.15 C 0.26667 km/h
2183 01-11-2019 23:00:00 10.525 C 9.52 g/m*3 10.53 C 0 km/h
2184 02-11-2019 00:00:00 11.18333 C 9.92 g/m*3 11.18 C 0 km/h
2185 02-11-2019 01:00:00 11.96667 C 10.42 g/m*3 11.97 C 0.93333 km/h
2186 02-11-2019 02:00:00 12.21667 C 10.59 g/m*3 12.22 C 1.33333 km/h
2187 02-11-2019 03:00:00 12.28333 C 10.63 g/m*3 12.28 C 2.13333 km/h
2188 02-11-2019 04:00:00 12.25 C 10.61 g/m*3 12.25 C 2 km/h
2189 02-11-2019 05:00:00 12.65833 C 10.88 g/m*3 12.66 C 1.46667 km/h
2190 02-11-2019 06:00:00 13.1 C 11.18 g/m*3 13.1 C 2.94167 km/h
2191 02-11-2019 07:00:00 13.48333 C 11.45 g/m*3 13.48 C 0.93333 km/h
2192 02-11-2019 08:00:00 13.84167 C 11.71 g/m*3 13.84 C 2.275 km/h
2193 02-11-2019 09:00:00 14.30833 C 12.03 g/m*3 14.31 C 12.21667 km/h
2194 02-11-2019 10:00:00 14.925 C 11.87 g/m*3 14.93 C 14.625 km/h
2195 02-11-2019 11:00:00 15.74167 C 11.57 g/m*3 15.74 C 16.5 km/h
2196 02-11-2019 12:00:00 16.15833 C 11.05 g/m*3 16.16 C 20.23333 km/h
2197 02-11-2019 13:00:00 16.04167 C 10.29 g/m*3 16.04 C 15.03333 km/h
2198 02-11-2019 14:00:00 15.8 C 10.01 g/m*3 15.8 C 10.35833 km/h
2199 02-11-2019 15:00:00 15.10833 C 9.97 g/m*3 15.11 C 5.35833 km/h
2200 02-11-2019 16:00:00 14.55833 C 9.75 g/m*3 14.56 C 8.06667 km/h
Sensor: Nr:Datum:Temp:Abs-Feuchte:Windchill:Wind:
Aussen-T/F 2201 02-11-2019 17:00:00 13.78333 C 9.71 g/m*3 13.78 C 11.28333 km/h
2202 02-11-2019 18:00:00 11.90833 C 9.55 g/m*3 11.91 C 2.66667 km/h
2203 02-11-2019 19:00:00 11.425 C 9.44 g/m*3 11.43 C 2.13333 km/h
2204 02-11-2019 20:00:00 11.30833 C 9.3 g/m*3 11.31 C 4.01667 km/h
2205 02-11-2019 21:00:00 11.15 C 8.96 g/m*3 11.15 C 4.55 km/h
2206 02-11-2019 22:00:00 10.98333 C 8.84 g/m*3 10.98 C 1.06667 km/h
2207 02-11-2019 23:00:00 10.56667 C 8.68 g/m*3 10.57 C 3.625 km/h
2208 03-11-2019 00:00:00 10.475 C 8.55 g/m*3 10.48 C 0.53333 km/h
2209 03-11-2019 01:00:00 10.41667 C 8.7 g/m*3 10.42 C 0.4 km/h
2210 03-11-2019 02:00:00 10.03333 C 8.62 g/m*3 10.03 C 0.26667 km/h
2211 03-11-2019 03:00:00 10 C 8.75 g/m*3 10 C 0.8 km/h
2212 03-11-2019 04:00:00 10.26667 C 9.02 g/m*3 10.27 C 0.66667 km/h
2213 03-11-2019 05:00:00 10.25 C 9.07 g/m*3 10.25 C 0.8 km/h
2214 03-11-2019 06:00:00 10.3 C 9.19 g/m*3 10.3 C 0 km/h
2215 03-11-2019 07:00:00 10.325 C 9.21 g/m*3 10.33 C 0 km/h
2216 03-11-2019 08:00:00 10.48333 C 9.37 g/m*3 10.48 C 0 km/h
2217 03-11-2019 09:00:00 11.3 C 9.89 g/m*3 11.3 C 0 km/h
2218 03-11-2019 10:00:00 12.26667 C 10.36 g/m*3 12.27 C 0.93333 km/h
2219 03-11-2019 11:00:00 13.53333 C 10.65 g/m*3 13.53 C 2.675 km/h
2220 03-11-2019 12:00:00 14.85 C 10.6 g/m*3 14.85 C 4.55 km/h
2221 03-11-2019 13:00:00 15.39167 C 10.7 g/m*3 15.39 C 6.30833 km/h
2222 03-11-2019 14:00:00 15.46667 C 10.78 g/m*3 15.47 C 5.08333 km/h
2223 03-11-2019 15:00:00 14.81667 C 10.57 g/m*3 14.82 C 6.83333 km/h
2224 03-11-2019 16:00:00 14.00833 C 10.41 g/m*3 14.01 C 2 km/h
2225 03-11-2019 17:00:00 13.00833 C 10.25 g/m*3 13.01 C 0.4 km/h
Sensor: Nr:Datum:Temp:Abs-Feuchte:Windchill:Wind:
Aussen-T/F 2226 03-11-2019 18:00:00 12.35833 C 10.22 g/m*3 12.36 C 0.13333 km/h
2227 03-11-2019 19:00:00 11.71667 C 9.95 g/m*3 11.72 C 0.53333 km/h
2228 03-11-2019 20:00:00 11.075 C 9.63 g/m*3 11.08 C 0.53333 km/h
2229 03-11-2019 21:00:00 10.75833 C 9.46 g/m*3 10.76 C 1.46667 km/h
2230 03-11-2019 22:00:00 10.7 C 9.43 g/m*3 10.7 C 0.8 km/h
2231 03-11-2019 23:00:00 10.60833 C 9.37 g/m*3 10.61 C 4.96667 km/h
2232 04-11-2019 00:00:00 11.075 C 9.31 g/m*3 11.08 C 10.475 km/h
2233 04-11-2019 01:00:00 11.025 C 9.11 g/m*3 11.03 C 6.44167 km/h
2234 04-11-2019 02:00:00 10.15833 C 8.79 g/m*3 10.16 C 2.00833 km/h
2235 04-11-2019 03:00:00 9.9 C 8.78 g/m*3 9.9 C 1.61667 km/h
2236 04-11-2019 04:00:00 10.18333 C 9.03 g/m*3 10.18 C 2.13333 km/h
2237 04-11-2019 05:00:00 10.38333 C 9.12 g/m*3 9.94 C 5.9 km/h
2238 04-11-2019 06:00:00 9.79167 C 8.76 g/m*3 9.79 C 2.8 km/h
2239 04-11-2019 07:00:00 9.26667 C 8.51 g/m*3 9.27 C 2.66667 km/h
2240 04-11-2019 08:00:00 9.5 C 8.69 g/m*3 9.5 C 0.13333 km/h
2241 04-11-2019 09:00:00 10.00833 C 8.83 g/m*3 10.01 C 1.475 km/h
2242 04-11-2019 10:00:00 10.875 C 9.14 g/m*3 10.88 C 1.73333 km/h
2243 04-11-2019 11:00:00 10.91667 C 9.26 g/m*3 10.92 C 1.33333 km/h
2244 04-11-2019 12:00:00 11.25 C 9.46 g/m*3 11.25 C 1.86667 km/h
2245 04-11-2019 13:00:00 12.025 C 9.75 g/m*3 12.03 C 5.23333 km/h
2246 04-11-2019 14:00:00 12.58333 C 9.58 g/m*3 12.58 C 13.56667 km/h
2247 04-11-2019 15:00:00 12.625 C 9.37 g/m*3 12.63 C 6.31667 km/h
2248 04-11-2019 16:00:00 11.44167 C 9.06 g/m*3 11.44 C 0.93333 km/h
2249 04-11-2019 17:00:00 10.275 C 8.76 g/m*3 10.28 C 0.66667 km/h
2250 04-11-2019 18:00:00 9.60833 C 8.5 g/m*3 9.61 C 0 km/h
Sensor: Nr:Datum:Temp:Abs-Feuchte:Windchill:Wind:
Aussen-T/F 2251 04-11-2019 19:00:00 9.18333 C 8.43 g/m*3 9.18 C 0.94167 km/h
2252 04-11-2019 20:00:00 9.5 C 8.71 g/m*3 9.5 C 0 km/h
2253 04-11-2019 21:00:00 9.24167 C 8.58 g/m*3 9.24 C 0.13333 km/h
2254 04-11-2019 22:00:00 8.29167 C 8.07 g/m*3 8.29 C 0.4 km/h
2255 04-11-2019 23:00:00 8.89167 C 8.48 g/m*3 8.42 C 5.24167 km/h
2256 05-11-2019 00:00:00 9.275 C 8.49 g/m*3 9.28 C 4.275 km/h
2257 05-11-2019 01:00:00 9.14167 C 8.29 g/m*3 9.14 C 3.74167 km/h
2258 05-11-2019 02:00:00 9.225 C 8.34 g/m*3 9.23 C 1.875 km/h
2259 05-11-2019 03:00:00 9.40833 C 8.27 g/m*3 8.9 C 5.625 km/h
2260 05-11-2019 04:00:00 9.46667 C 8.14 g/m*3 9.47 C 4.40833 km/h
2261 05-11-2019 05:00:00 9.525 C 8.15 g/m*3 9.53 C 4.95833 km/h
2262 05-11-2019 06:00:00 9.25 C 8.13 g/m*3 9.25 C 4.14167 km/h
2263 05-11-2019 07:00:00 9.15833 C 8.1 g/m*3 9.16 C 1.86667 km/h
2264 05-11-2019 08:00:00 8.95833 C 8.07 g/m*3 8.96 C 2.675 km/h
2265 05-11-2019 09:00:00 9.45833 C 8.15 g/m*3 9.46 C 2.26667 km/h
2266 05-11-2019 10:00:00 10.48333 C 8.33 g/m*3 10.48 C 3.625 km/h
2267 05-11-2019 11:00:00 11.225 C 8.32 g/m*3 11.23 C 5.5 km/h
2268 05-11-2019 12:00:00 11.83333 C 8.23 g/m*3 11.83 C 9.275 km/h
2269 05-11-2019 13:00:00 11.89167 C 8.41 g/m*3 11.89 C 4.68333 km/h
2270 05-11-2019 14:00:00 12.06667 C 8.62 g/m*3 12.07 C 1.86667 km/h
2271 05-11-2019 15:00:00 11.875 C 8.69 g/m*3 11.88 C 2.14167 km/h
2272 05-11-2019 16:00:00 10.85833 C 8.62 g/m*3 10.86 C 0 km/h
2273 05-11-2019 17:00:00 9.85833 C 8.46 g/m*3 9.86 C 0.13333 km/h
2274 05-11-2019 18:00:00 9.025 C 8.18 g/m*3 9.03 C 0 km/h
2275 05-11-2019 19:00:00 8.54167 C 8.03 g/m*3 8.54 C 0.13333 km/h
Sensor: Nr:Datum:Temp:Abs-Feuchte:Windchill:Wind:
Aussen-T/F 2276 05-11-2019 20:00:00 8.425 C 8.02 g/m*3 8.43 C 0.13333 km/h
2277 05-11-2019 21:00:00 7.95833 C 7.83 g/m*3 7.96 C 0 km/h
2278 05-11-2019 22:00:00 8.00833 C 7.88 g/m*3 8.01 C 0 km/h
2279 05-11-2019 23:00:00 8.11667 C 8 g/m*3 8.12 C 0 km/h
2280 06-11-2019 00:00:00 8.2 C 8.04 g/m*3 8.2 C 0 km/h
2281 06-11-2019 01:00:00 8.2 C 8.04 g/m*3 8.2 C 1.06667 km/h
2282 06-11-2019 02:00:00 8.175 C 8.05 g/m*3 8.18 C 0.26667 km/h
2283 06-11-2019 03:00:00 7.79167 C 7.83 g/m*3 7.79 C 0.13333 km/h
2284 06-11-2019 04:00:00 7.45 C 7.7 g/m*3 7.45 C 0 km/h
2285 06-11-2019 05:00:00 7.49167 C 7.76 g/m*3 7.49 C 0.26667 km/h
2286 06-11-2019 06:00:00 7.65 C 7.84 g/m*3 7.65 C 0.4 km/h
2287 06-11-2019 07:00:00 7.65 C 7.84 g/m*3 7.65 C 0.13333 km/h
2288 06-11-2019 08:00:00 7.975 C 8.01 g/m*3 7.98 C 0.53333 km/h
2289 06-11-2019 09:00:00 8.81667 C 8.42 g/m*3 8.82 C 4.15 km/h
2290 06-11-2019 10:00:00 9.68333 C 8.51 g/m*3 8.83 C 7.13333 km/h
2291 06-11-2019 11:00:00 10.15 C 8.71 g/m*3 9.64 C 6.025 km/h
2292 06-11-2019 12:00:00 10.35 C 8.85 g/m*3 9.87 C 6.03333 km/h
2293 06-11-2019 13:00:00 10.6 C 8.84 g/m*3 9.76 C 7.78333 km/h
2294 06-11-2019 14:00:00 10.43333 C 8.83 g/m*3 10.43 C 4.40833 km/h
2295 06-11-2019 15:00:00 10.24167 C 8.91 g/m*3 10.24 C 0.66667 km/h
2296 06-11-2019 16:00:00 10 C 8.84 g/m*3 10 C 0.13333 km/h
2297 06-11-2019 17:00:00 9.68333 C 8.75 g/m*3 9.68 C 0 km/h
2298 06-11-2019 18:00:00 9.6 C 8.77 g/m*3 9.6 C 0 km/h
2299 06-11-2019 19:00:00 9.40833 C 8.69 g/m*3 9.41 C 0 km/h
2300 06-11-2019 20:00:00 9.13333 C 8.54 g/m*3 9.13 C 0 km/h
Sensor: Nr:Datum:Temp:Abs-Feuchte:Windchill:Wind:
Aussen-T/F 2301 06-11-2019 21:00:00 8.975 C 8.51 g/m*3 8.98 C 0 km/h
2302 06-11-2019 22:00:00 8.9 C 8.42 g/m*3 8.9 C 0 km/h
2303 06-11-2019 23:00:00 8.85833 C 8.47 g/m*3 8.86 C 0.53333 km/h
2304 07-11-2019 00:00:00 8.51667 C 8.29 g/m*3 8.52 C 0 km/h
2305 07-11-2019 01:00:00 8.06667 C 8.05 g/m*3 8.07 C 0 km/h
2306 07-11-2019 02:00:00 7.98333 C 8.01 g/m*3 7.98 C 0 km/h
2307 07-11-2019 03:00:00 7.91667 C 7.98 g/m*3 7.92 C 0 km/h
2308 07-11-2019 04:00:00 7.49167 C 7.76 g/m*3 7.49 C 0 km/h
2309 07-11-2019 05:00:00 7.55 C 7.79 g/m*3 7.55 C 0.4 km/h
2310 07-11-2019 06:00:00 7.375 C 7.7 g/m*3 7.38 C 0 km/h
2311 07-11-2019 07:00:00 7.59167 C 7.84 g/m*3 7.59 C 0.4 km/h
2312 07-11-2019 08:00:00 8.24167 C 8.23 g/m*3 8.24 C 0.26667 km/h
2313 07-11-2019 09:00:00 8.875 C 8.57 g/m*3 8.88 C 1.06667 km/h
2314 07-11-2019 10:00:00 9.29167 C 8.77 g/m*3 9.29 C 3.35 km/h
2315 07-11-2019 11:00:00 9.39167 C 8.69 g/m*3 9.39 C 2.8 km/h
2316 07-11-2019 12:00:00 9.31667 C 8.52 g/m*3 9.32 C 2.95 km/h
2317 07-11-2019 13:00:00 9.625 C 8.55 g/m*3 9.63 C 4.00833 km/h
2318 07-11-2019 14:00:00 9.375 C 8.35 g/m*3 9.38 C 4.41667 km/h
2319 07-11-2019 15:00:00 9.76667 C 8.64 g/m*3 9.77 C 4.41667 km/h
2320 07-11-2019 16:00:00 9.65 C 8.24 g/m*3 7.67 C 13.55833 km/h
2321 07-11-2019 17:00:00 8.55833 C 7.73 g/m*3 7.46 C 7.38333 km/h
2322 07-11-2019 18:00:00 7.24167 C 7.22 g/m*3 7.24 C 1.075 km/h
2323 07-11-2019 19:00:00 6.76667 C 7.21 g/m*3 6.77 C 0.8 km/h
2324 07-11-2019 20:00:00 6.18333 C 6.96 g/m*3 6.18 C 0.4 km/h
2325 07-11-2019 21:00:00 5.65833 C 6.77 g/m*3 5.66 C 0.13333 km/h
Sensor: Nr:Datum:Temp:Abs-Feuchte:Windchill:Wind:
Aussen-T/F 2326 07-11-2019 22:00:00 5.00833 C 6.51 g/m*3 5.01 C 0 km/h
2327 07-11-2019 23:00:00 5.025 C 6.56 g/m*3 5.03 C 0.26667 km/h
2328 08-11-2019 00:00:00 4.675 C 6.38 g/m*3 4.68 C 0.26667 km/h
2329 08-11-2019 01:00:00 4.24167 C 6.2 g/m*3 4.24 C 0.26667 km/h
2330 08-11-2019 02:00:00 3.28333 C 5.82 g/m*3 3.28 C 0 km/h
2331 08-11-2019 03:00:00 3.1 C 5.79 g/m*3 3.1 C 0 km/h
2332 08-11-2019 04:00:00 2.75833 C 5.66 g/m*3 2.76 C 0 km/h
2333 08-11-2019 05:00:00 2.34167 C 5.52 g/m*3 2.34 C 0 km/h
2334 08-11-2019 06:00:00 2.31667 C 5.51 g/m*3 2.32 C 0 km/h
2335 08-11-2019 07:00:00 2.35 C 5.52 g/m*3 2.35 C 0 km/h
2336 08-11-2019 08:00:00 3.05 C 5.81 g/m*3 3.05 C 0 km/h
2337 08-11-2019 09:00:00 3.78333 C 6.1 g/m*3 3.78 C 0.53333 km/h
2338 08-11-2019 10:00:00 4.43333 C 6.4 g/m*3 4.43 C 0.4 km/h
2339 08-11-2019 11:00:00 5.15833 C 6.73 g/m*3 5.16 C 0.8 km/h
2340 08-11-2019 12:00:00 6 C 7.11 g/m*3 6 C 0.8 km/h
2341 08-11-2019 13:00:00 6.8 C 7.44 g/m*3 6.8 C 0.13333 km/h
2342 08-11-2019 14:00:00 7.44167 C 7.63 g/m*3 7.44 C 1.86667 km/h
2343 08-11-2019 15:00:00 7.73333 C 7.71 g/m*3 7.73 C 0 km/h
2344 08-11-2019 16:00:00 7.61667 C 7.63 g/m*3 7.62 C 0 km/h
2345 08-11-2019 17:00:00 6.85833 C 7.29 g/m*3 6.86 C 0 km/h
2346 08-11-2019 18:00:00 6.65 C 7.26 g/m*3 6.65 C 0 km/h
2347 08-11-2019 19:00:00 6.475 C 7.19 g/m*3 6.48 C 0 km/h
2348 08-11-2019 20:00:00 6.21667 C 7.07 g/m*3 6.22 C 0 km/h
2349 08-11-2019 21:00:00 5.7 C 6.83 g/m*3 5.7 C 0 km/h
2350 08-11-2019 22:00:00 5.39167 C 6.76 g/m*3 5.39 C 0.26667 km/h
Sensor: Nr:Datum:Temp:Abs-Feuchte:Windchill:Wind:
Aussen-T/F 2351 08-11-2019 23:00:00 5.49167 C 6.81 g/m*3 5.49 C 2.53333 km/h
2352 09-11-2019 00:00:00 5.34167 C 6.74 g/m*3 4.34 C 5.35 km/h
2353 09-11-2019 01:00:00 5.15833 C 6.66 g/m*3 4.18 C 5.225 km/h
2354 09-11-2019 02:00:00 5.1 C 6.63 g/m*3 3.79 C 6.15833 km/h
2355 09-11-2019 03:00:00 5.125 C 6.65 g/m*3 5.13 C 3.33333 km/h
2356 09-11-2019 04:00:00 4.96667 C 6.58 g/m*3 4.97 C 1.46667 km/h
2357 09-11-2019 05:00:00 4.78333 C 6.51 g/m*3 4.78 C 3.075 km/h
2358 09-11-2019 06:00:00 4.45 C 6.32 g/m*3 3.13 C 5.9 km/h
2359 09-11-2019 07:00:00 3.44167 C 5.88 g/m*3 3.44 C 0.8 km/h
2360 09-11-2019 08:00:00 3.29167 C 5.86 g/m*3 3.29 C 0.13333 km/h
2361 09-11-2019 09:00:00 4.53333 C 6.37 g/m*3 3.46 C 5.25 km/h
2362 09-11-2019 10:00:00 5.65833 C 6.55 g/m*3 3.11 C 11.7 km/h
2363 09-11-2019 11:00:00 5.91667 C 6.56 g/m*3 3.82 C 9.68333 km/h
2364 09-11-2019 12:00:00 6.375 C 6.66 g/m*3 4.51 C 9.00833 km/h
2365 09-11-2019 13:00:00 7.04167 C 6.76 g/m*3 5.39 C 8.59167 km/h
2366 09-11-2019 14:00:00 6.93333 C 6.77 g/m*3 5.67 C 6.96667 km/h
2367 09-11-2019 15:00:00 6.68333 C 6.88 g/m*3 6.68 C 3.20833 km/h
2368 09-11-2019 16:00:00 6.56667 C 6.94 g/m*3 6.57 C 1.33333 km/h
2369 09-11-2019 17:00:00 6.175 C 6.83 g/m*3 6.18 C 0.26667 km/h
2370 09-11-2019 18:00:00 5.375 C 6.48 g/m*3 5.38 C 0.13333 km/h
2371 09-11-2019 19:00:00 4.875 C 6.35 g/m*3 4.88 C 2.00833 km/h
2372 09-11-2019 20:00:00 4.03333 C 5.94 g/m*3 4.03 C 0 km/h
2373 09-11-2019 21:00:00 3.25833 C 5.73 g/m*3 3.26 C 0 km/h
2374 09-11-2019 22:00:00 2.725 C 5.56 g/m*3 2.73 C 0 km/h
2375 09-11-2019 23:00:00 1.99167 C 5.28 g/m*3 1.99 C 0 km/h
Sensor: Nr:Datum:Temp:Abs-Feuchte:Windchill:Wind:
Aussen-T/F 2376 10-11-2019 00:00:00 1.25833 C 5.05 g/m*3 1.26 C 0 km/h
2377 10-11-2019 01:00:00 1.31667 C 5.11 g/m*3 1.32 C 0 km/h
2378 10-11-2019 02:00:00 1.65833 C 5.24 g/m*3 1.66 C 0 km/h
2379 10-11-2019 03:00:00 1.59167 C 5.24 g/m*3 1.59 C 0.53333 km/h
2380 10-11-2019 04:00:00 1.28333 C 5.13 g/m*3 1.28 C 0.8 km/h
2381 10-11-2019 05:00:00 1.38333 C 5.17 g/m*3 1.38 C 0 km/h
2382 10-11-2019 06:00:00 1.70833 C 5.28 g/m*3 1.71 C 2.93333 km/h
2383 10-11-2019 07:00:00 1.61667 C 5.25 g/m*3 1.62 C 1.86667 km/h
2384 10-11-2019 08:00:00 1.81667 C 5.35 g/m*3 1.82 C 0.53333 km/h
2385 10-11-2019 09:00:00 2.25 C 5.52 g/m*3 2.25 C 0.66667 km/h
2386 10-11-2019 10:00:00 2.66667 C 5.7 g/m*3 2.67 C 0.93333 km/h
2387 10-11-2019 11:00:00 3.2 C 5.91 g/m*3 3.2 C 2.26667 km/h
2388 10-11-2019 12:00:00 3.4 C 5.91 g/m*3 2.24 C 5.075 km/h
2389 10-11-2019 13:00:00 3.86667 C 5.99 g/m*3 3.87 C 4.26667 km/h
2390 10-11-2019 14:00:00 4.29167 C 6.06 g/m*3 4.29 C 3.2 km/h
2391 10-11-2019 15:00:00 4.65833 C 6.17 g/m*3 4.66 C 1.86667 km/h
2392 10-11-2019 16:00:00 4.58333 C 6.08 g/m*3 4.58 C 1.46667 km/h
2393 10-11-2019 17:00:00 4.35833 C 6.06 g/m*3 4.36 C 1.2 km/h
2394 10-11-2019 18:00:00 4.275 C 6.07 g/m*3 4.28 C 1.2 km/h
2395 10-11-2019 19:00:00 4.15 C 6.04 g/m*3 4.15 C 1.6 km/h
2396 10-11-2019 20:00:00 4.25 C 6.14 g/m*3 4.25 C 0.26667 km/h
2397 10-11-2019 21:00:00 4.3 C 6.16 g/m*3 4.3 C 0.26667 km/h
2398 10-11-2019 22:00:00 4.275 C 6.15 g/m*3 4.28 C 0 km/h
2399 10-11-2019 23:00:00 4.36667 C 6.14 g/m*3 4.37 C 0.53333 km/h
2400 11-11-2019 00:00:00 4.25833 C 6.03 g/m*3 4.26 C 0.93333 km/h
Sensor: Nr:Datum:Temp:Abs-Feuchte:Windchill:Wind:
Aussen-T/F 2401 11-11-2019 01:00:00 3.85 C 5.84 g/m*3 3.85 C 2.53333 km/h
2402 11-11-2019 02:00:00 3.58333 C 5.75 g/m*3 3.58 C 0.4 km/h
2403 11-11-2019 03:00:00 3.30833 C 5.65 g/m*3 3.31 C 2.4 km/h
2404 11-11-2019 04:00:00 3.14167 C 5.58 g/m*3 3.14 C 1.06667 km/h
2405 11-11-2019 05:00:00 3.23333 C 5.64 g/m*3 3.23 C 0.4 km/h
2406 11-11-2019 06:00:00 3.3 C 5.66 g/m*3 3.3 C 0 km/h
2407 11-11-2019 07:00:00 3.39167 C 5.74 g/m*3 3.39 C 0.53333 km/h
2408 11-11-2019 08:00:00 4.16667 C 5.97 g/m*3 2.66 C 6.3 km/h
2409 11-11-2019 09:00:00 4.98333 C 6.13 g/m*3 3.17 C 7.79167 km/h
2410 11-11-2019 10:00:00 5.24167 C 6.15 g/m*3 3.62 C 7.24167 km/h
2411 11-11-2019 11:00:00 5.54167 C 6.22 g/m*3 3.97 C 7.25 km/h
2412 11-11-2019 12:00:00 6.025 C 6.32 g/m*3 4.57 C 7.11667 km/h
2413 11-11-2019 13:00:00 6.425 C 6.42 g/m*3 5.48 C 5.625 km/h
2414 11-11-2019 14:00:00 6.11667 C 6.33 g/m*3 4.76 C 6.83333 km/h
2415 11-11-2019 15:00:00 5.61667 C 6.28 g/m*3 4.75 C 5.08333 km/h
2416 11-11-2019 16:00:00 5.25833 C 6.22 g/m*3 4.1 C 5.75833 km/h
2417 11-11-2019 17:00:00 5.09167 C 6.15 g/m*3 3.6 C 6.71667 km/h
2418 11-11-2019 18:00:00 4.85833 C 6.1 g/m*3 4.86 C 4.14167 km/h
2419 11-11-2019 19:00:00 4.83333 C 6.22 g/m*3 4.83 C 0.8 km/h
2420 11-11-2019 20:00:00 4.8 C 6.3 g/m*3 4.8 C 0.13333 km/h
2421 11-11-2019 21:00:00 4.975 C 6.44 g/m*3 4.97 C 1.06667 km/h
2422 11-11-2019 22:00:00 5.13333 C 6.51 g/m*3 5.13 C 1.06667 km/h
2423 11-11-2019 23:00:00 5.18333 C 6.6 g/m*3 5.18 C 0.13333 km/h
2424 12-11-2019 00:00:00 5.05 C 6.53 g/m*3 5.05 C 0.13333 km/h
2425 12-11-2019 01:00:00 5.05 C 6.54 g/m*3 4.05 C 5.23333 km/h
Sensor: Nr:Datum:Temp:Abs-Feuchte:Windchill:Wind:
Aussen-T/F 2426 12-11-2019 02:00:00 5.375 C 6.55 g/m*3 5.38 C 3.21667 km/h
2427 12-11-2019 03:00:00 5.475 C 6.47 g/m*3 5.48 C 3.48333 km/h
2428 12-11-2019 04:00:00 5.6 C 6.45 g/m*3 5.6 C 2.275 km/h
2429 12-11-2019 05:00:00 5.45833 C 6.41 g/m*3 5.46 C 1.06667 km/h
2430 12-11-2019 06:00:00 5.375 C 6.4 g/m*3 5.38 C 2.26667 km/h
2431 12-11-2019 07:00:00 5.7 C 6.39 g/m*3 5.7 C 2.4 km/h
2432 12-11-2019 08:00:00 5.88333 C 6.42 g/m*3 5.88 C 2 km/h
2433 12-11-2019 09:00:00 6.58333 C 6.53 g/m*3 6.58 C 2.94167 km/h
2434 12-11-2019 10:00:00 7.66667 C 6.68 g/m*3 6.7 C 6.3 km/h
2435 12-11-2019 11:00:00 8.03333 C 6.79 g/m*3 6.34 C 9.7 km/h
2436 12-11-2019 12:00:00 7.91667 C 6.89 g/m*3 5.25 C 15.7 km/h
2437 12-11-2019 13:00:00 7.73333 C 6.67 g/m*3 4.97 C 16.1 km/h
2438 12-11-2019 14:00:00 7.76667 C 6.55 g/m*3 5.68 C 11.55833 km/h
2439 12-11-2019 15:00:00 7.75833 C 6.52 g/m*3 5.99 C 9.81667 km/h
2440 12-11-2019 16:00:00 7.31667 C 6.41 g/m*3 5.6 C 9.14167 km/h
2441 12-11-2019 17:00:00 6.60833 C 6.23 g/m*3 5.78 C 5.35833 km/h
2442 12-11-2019 18:00:00 5.85 C 6.26 g/m*3 5.85 C 0.53333 km/h
2443 12-11-2019 19:00:00 4.65833 C 5.93 g/m*3 4.66 C 0 km/h
2444 12-11-2019 20:00:00 3.29167 C 5.55 g/m*3 3.29 C 0.13333 km/h
2445 12-11-2019 21:00:00 3.23333 C 5.65 g/m*3 3.23 C 0.4 km/h
2446 12-11-2019 22:00:00 3.85 C 5.94 g/m*3 3.85 C 2.4 km/h
2447 12-11-2019 23:00:00 4.66667 C 6.06 g/m*3 4.67 C 3.21667 km/h
2448 13-11-2019 00:00:00 4.89167 C 5.98 g/m*3 4.89 C 1.6 km/h
2449 13-11-2019 01:00:00 4.65833 C 5.91 g/m*3 4.66 C 0.26667 km/h
2450 13-11-2019 02:00:00 3.33333 C 5.52 g/m*3 3.33 C 0.8 km/h
Sensor: Nr:Datum:Temp:Abs-Feuchte:Windchill:Wind:
Aussen-T/F 2451 13-11-2019 03:00:00 4.14167 C 5.76 g/m*3 4.14 C 2.81667 km/h
2452 13-11-2019 04:00:00 4.48333 C 5.82 g/m*3 4.48 C 0.93333 km/h
2453 13-11-2019 05:00:00 4.53333 C 5.87 g/m*3 4.53 C 0.66667 km/h
2454 13-11-2019 06:00:00 4.50833 C 5.89 g/m*3 4.51 C 0.53333 km/h
2455 13-11-2019 07:00:00 4.16667 C 5.82 g/m*3 4.17 C 0 km/h
2456 13-11-2019 08:00:00 4.58333 C 5.99 g/m*3 4.58 C 0.4 km/h
2457 13-11-2019 09:00:00 5.43333 C 6.19 g/m*3 4 C 6.725 km/h
2458 13-11-2019 10:00:00 6.01667 C 6.27 g/m*3 4.97 C 5.75833 km/h
2459 13-11-2019 11:00:00 6.30833 C 6.36 g/m*3 4.37 C 9.28333 km/h
2460 13-11-2019 12:00:00 6.81667 C 6.46 g/m*3 4.73 C 10.48333 km/h
2461 13-11-2019 13:00:00 6.775 C 6.44 g/m*3 5.17 C 8.20833 km/h
2462 13-11-2019 14:00:00 6.65 C 6.48 g/m*3 4.69 C 9.68333 km/h
2463 13-11-2019 15:00:00 6.69167 C 6.52 g/m*3 5.11 C 8.04167 km/h
2464 13-11-2019 16:00:00 6.6 C 6.52 g/m*3 5.68 C 5.625 km/h
2465 13-11-2019 17:00:00 6.41667 C 6.49 g/m*3 6.42 C 1.33333 km/h
2466 13-11-2019 18:00:00 6.35 C 6.51 g/m*3 6.35 C 0.26667 km/h
2467 13-11-2019 19:00:00 6.225 C 6.53 g/m*3 6.23 C 2.53333 km/h
2468 13-11-2019 20:00:00 6.26667 C 6.51 g/m*3 6.27 C 4.15 km/h
2469 13-11-2019 21:00:00 5.9 C 6.44 g/m*3 5.9 C 0 km/h
2470 13-11-2019 22:00:00 5.025 C 6.18 g/m*3 5.03 C 0.53333 km/h
2471 13-11-2019 23:00:00 4.60833 C 6.09 g/m*3 4.61 C 0.26667 km/h
2472 14-11-2019 00:00:00 4.95 C 6.32 g/m*3 4.95 C 0.26667 km/h
2473 14-11-2019 01:00:00 4.81667 C 6.23 g/m*3 4.82 C 1.06667 km/h
2474 14-11-2019 02:00:00 4.8 C 6.32 g/m*3 4.8 C 0.26667 km/h
2475 14-11-2019 03:00:00 5.425 C 6.56 g/m*3 5.43 C 1.73333 km/h
Sensor: Nr:Datum:Temp:Abs-Feuchte:Windchill:Wind:
Aussen-T/F 2476 14-11-2019 04:00:00 5.69167 C 6.56 g/m*3 5.69 C 1.46667 km/h
2477 14-11-2019 05:00:00 4.84167 C 6.26 g/m*3 4.84 C 0 km/h
2478 14-11-2019 06:00:00 4.70833 C 6.28 g/m*3 4.71 C 0.8 km/h
2479 14-11-2019 07:00:00 5.25833 C 6.3 g/m*3 4.34 C 5.09167 km/h
2480 14-11-2019 08:00:00 5.28333 C 6.17 g/m*3 5.28 C 3.46667 km/h
2481 14-11-2019 09:00:00 5.64167 C 6.2 g/m*3 5.64 C 4 km/h
2482 14-11-2019 10:00:00 6.68333 C 6.33 g/m*3 6.68 C 4.55 km/h
2483 14-11-2019 11:00:00 7.86667 C 6.26 g/m*3 7.17 C 5.49167 km/h
2484 14-11-2019 12:00:00 8.725 C 6.09 g/m*3 7.78 C 6.84167 km/h
2485 14-11-2019 13:00:00 8.68333 C 6.07 g/m*3 8.68 C 4.53333 km/h
2486 14-11-2019 14:00:00 9.01667 C 5.98 g/m*3 9.02 C 4.825 km/h
2487 14-11-2019 15:00:00 8.2 C 6.17 g/m*3 8.2 C 1.2 km/h
2488 14-11-2019 16:00:00 6.66667 C 6.05 g/m*3 6.67 C 0 km/h
2489 14-11-2019 17:00:00 4.96667 C 5.66 g/m*3 4.97 C 0.53333 km/h
2490 14-11-2019 18:00:00 4.48333 C 5.6 g/m*3 4.48 C 0.66667 km/h
2491 14-11-2019 19:00:00 3.86667 C 5.46 g/m*3 3.87 C 0 km/h
2492 14-11-2019 20:00:00 3.45 C 5.44 g/m*3 3.45 C 0.13333 km/h
2493 14-11-2019 21:00:00 2.86667 C 5.32 g/m*3 2.87 C 0 km/h
2494 14-11-2019 22:00:00 2.55833 C 5.32 g/m*3 2.56 C 0 km/h
2495 14-11-2019 23:00:00 2.725 C 5.44 g/m*3 2.73 C 0 km/h
2496 15-11-2019 00:00:00 2.975 C 5.57 g/m*3 2.98 C 0 km/h
2497 15-11-2019 01:00:00 3.43333 C 5.73 g/m*3 3.43 C 0 km/h
2498 15-11-2019 02:00:00 3.43333 C 5.69 g/m*3 3.43 C 0.13333 km/h
2499 15-11-2019 03:00:00 3.4 C 5.63 g/m*3 3.4 C 0.4 km/h
2500 15-11-2019 04:00:00 3.36667 C 5.59 g/m*3 3.37 C 2.4 km/h
Sensor: Nr:Datum:Temp:Abs-Feuchte:Windchill:Wind:
Aussen-T/F 2501 15-11-2019 05:00:00 3.53333 C 5.56 g/m*3 3.53 C 0.8 km/h
2502 15-11-2019 06:00:00 3.89167 C 5.55 g/m*3 3.89 C 4.29167 km/h
2503 15-11-2019 07:00:00 3.88333 C 5.52 g/m*3 3.88 C 2.66667 km/h
2504 15-11-2019 08:00:00 4.05833 C 5.58 g/m*3 4.06 C 1.88333 km/h
2505 15-11-2019 09:00:00 4.275 C 5.67 g/m*3 4.28 C 1.74167 km/h
2506 15-11-2019 10:00:00 5.38333 C 5.82 g/m*3 5.38 C 3.2 km/h
2507 15-11-2019 11:00:00 5.86667 C 5.88 g/m*3 5.03 C 5.1 km/h
2508 15-11-2019 12:00:00 6.55 C 6.08 g/m*3 6.55 C 3.35 km/h
2509 15-11-2019 13:00:00 7.05 C 6.26 g/m*3 7.05 C 1.06667 km/h
2510 15-11-2019 14:00:00 7.68333 C 6.42 g/m*3 7.68 C 2.13333 km/h
2511 15-11-2019 15:00:00 7.875 C 6.45 g/m*3 7.88 C 2.26667 km/h
2512 15-11-2019 16:00:00 6.54167 C 6.22 g/m*3 6.54 C 0.13333 km/h
2513 15-11-2019 17:00:00 4.75833 C 5.93 g/m*3 4.76 C 0 km/h
2514 15-11-2019 18:00:00 4.63333 C 6.01 g/m*3 4.63 C 0.26667 km/h
2515 15-11-2019 19:00:00 4.50833 C 6.02 g/m*3 4.51 C 0 km/h
2516 15-11-2019 20:00:00 4.2 C 5.93 g/m*3 4.2 C 0 km/h
2517 15-11-2019 21:00:00 4.05 C 5.93 g/m*3 4.05 C 0 km/h
2518 15-11-2019 22:00:00 3.70833 C 5.81 g/m*3 3.71 C 0 km/h
2519 15-11-2019 23:00:00 3.49167 C 5.77 g/m*3 3.49 C 0 km/h
2520 16-11-2019 00:00:00 3.30833 C 5.71 g/m*3 3.31 C 0 km/h
2521 16-11-2019 01:00:00 3.225 C 5.73 g/m*3 3.23 C 0.13333 km/h
2522 16-11-2019 02:00:00 3.11667 C 5.69 g/m*3 3.12 C 0.13333 km/h
2523 16-11-2019 03:00:00 2.63333 C 5.5 g/m*3 2.63 C 0 km/h
2524 16-11-2019 04:00:00 1.85 C 5.2 g/m*3 1.85 C 0 km/h
2525 16-11-2019 05:00:00 0.85 C 4.88 g/m*3 0.85 C 0 km/h
Sensor: Nr:Datum:Temp:Abs-Feuchte:Windchill:Wind:
Aussen-T/F 2526 16-11-2019 06:00:00 0.08333 C 4.63 g/m*3 0.08 C 0 km/h
2527 16-11-2019 07:00:00 -0.30833 C 4.52 g/m*3 -0.31 C 0.26667 km/h
2528 16-11-2019 08:00:00 0.24167 C 4.73 g/m*3 0.24 C 2.13333 km/h
2529 16-11-2019 09:00:00 0.31667 C 4.77 g/m*3 0.32 C 4.53333 km/h
2530 16-11-2019 10:00:00 0.74167 C 4.95 g/m*3 0.74 C 2.8 km/h
2531 16-11-2019 11:00:00 1.425 C 5.18 g/m*3 1.43 C 2.53333 km/h
2532 16-11-2019 12:00:00 2.25833 C 5.49 g/m*3 2.26 C 0 km/h
2533 16-11-2019 13:00:00 3.375 C 5.91 g/m*3 3.38 C 0 km/h
2534 16-11-2019 14:00:00 4.20833 C 6.25 g/m*3 4.21 C 0.13333 km/h
2535 16-11-2019 15:00:00 4.66667 C 6.39 g/m*3 4.67 C 0.4 km/h
2536 16-11-2019 16:00:00 4.58333 C 6.18 g/m*3 4.58 C 0.26667 km/h
2537 16-11-2019 17:00:00 3.94167 C 5.92 g/m*3 3.94 C 0.26667 km/h
2538 16-11-2019 18:00:00 3.20833 C 5.7 g/m*3 3.21 C 0.4 km/h
2539 16-11-2019 19:00:00 2.55833 C 5.48 g/m*3 2.56 C 0.13333 km/h
2540 16-11-2019 20:00:00 1.94167 C 5.29 g/m*3 1.94 C 0 km/h
2541 16-11-2019 21:00:00 1.55833 C 5.17 g/m*3 1.56 C 0 km/h
2542 16-11-2019 22:00:00 0.79167 C 4.91 g/m*3 0.79 C 0.13333 km/h
2543 16-11-2019 23:00:00 0.15833 C 4.7 g/m*3 0.16 C 0 km/h
2544 17-11-2019 00:00:00 -0.3 C 4.56 g/m*3 -0.3 C 0 km/h
2545 17-11-2019 01:00:00 -0.69167 C 4.44 g/m*3 -0.69 C 0 km/h
2546 17-11-2019 02:00:00 -0.11667 C 4.65 g/m*3 -0.12 C 0 km/h
2547 17-11-2019 03:00:00 0.8 C 4.97 g/m*3 0.8 C 0 km/h
2548 17-11-2019 04:00:00 1.475 C 5.2 g/m*3 1.48 C 0 km/h
2549 17-11-2019 05:00:00 1.65833 C 5.27 g/m*3 1.66 C 0 km/h
2550 17-11-2019 06:00:00 1.7 C 5.28 g/m*3 1.7 C 0 km/h
Sensor: Nr:Datum:Temp:Abs-Feuchte:Windchill:Wind:
Aussen-T/F 2551 17-11-2019 07:00:00 1.825 C 5.33 g/m*3 1.83 C 0 km/h
2552 17-11-2019 08:00:00 1.96667 C 5.38 g/m*3 1.97 C 0 km/h
2553 17-11-2019 09:00:00 2.475 C 5.58 g/m*3 2.48 C 0 km/h
2554 17-11-2019 10:00:00 3.15 C 5.89 g/m*3 3.15 C 0.26667 km/h
2555 17-11-2019 11:00:00 3.91667 C 6.2 g/m*3 3.92 C 0.13333 km/h
2556 17-11-2019 12:00:00 4.31667 C 6.36 g/m*3 4.32 C 0 km/h
2557 17-11-2019 13:00:00 4.90833 C 6.62 g/m*3 4.91 C 0 km/h
2558 17-11-2019 14:00:00 5.1 C 6.69 g/m*3 5.1 C 0.93333 km/h
2559 17-11-2019 15:00:00 4.88333 C 6.54 g/m*3 4.88 C 1.33333 km/h
2560 17-11-2019 16:00:00 4.65 C 6.44 g/m*3 4.65 C 2.66667 km/h
2561 17-11-2019 17:00:00 4.43333 C 6.35 g/m*3 4.43 C 2.13333 km/h
2562 17-11-2019 18:00:00 4.63333 C 6.43 g/m*3 4.63 C 1.6 km/h
2563 17-11-2019 19:00:00 4.7 C 6.46 g/m*3 3.15 C 6.70833 km/h
2564 17-11-2019 20:00:00 4.71667 C 6.47 g/m*3 4.72 C 3.74167 km/h
2565 17-11-2019 21:00:00 4.7 C 6.46 g/m*3 3.51 C 5.625 km/h
2566 17-11-2019 22:00:00 4.7 C 6.46 g/m*3 4.7 C 1.2 km/h
2567 17-11-2019 23:00:00 4.625 C 6.43 g/m*3 4.63 C 2.95 km/h
2568 18-11-2019 00:00:00 4.375 C 6.32 g/m*3 3.18 C 5.5 km/h
2569 18-11-2019 01:00:00 4.2 C 6.25 g/m*3 2.71 C 6.29167 km/h
2570 18-11-2019 02:00:00 4.2 C 6.25 g/m*3 4.2 C 4.41667 km/h
2571 18-11-2019 03:00:00 4.2 C 6.25 g/m*3 4.2 C 2.93333 km/h
2572 18-11-2019 04:00:00 4.2 C 6.25 g/m*3 4.2 C 4.00833 km/h
2573 18-11-2019 05:00:00 4.175 C 6.24 g/m*3 4.18 C 1.73333 km/h
2574 18-11-2019 06:00:00 4.1 C 6.21 g/m*3 4.1 C 0.53333 km/h
2575 18-11-2019 07:00:00 4.08333 C 6.2 g/m*3 4.08 C 0.4 km/h
Sensor: Nr:Datum:Temp:Abs-Feuchte:Windchill:Wind:
Aussen-T/F 2576 18-11-2019 08:00:00 4.14167 C 6.23 g/m*3 4.14 C 0 km/h
2577 18-11-2019 09:00:00 4.40833 C 6.34 g/m*3 4.41 C 0.13333 km/h
2578 18-11-2019 10:00:00 4.86667 C 6.58 g/m*3 4.87 C 0.26667 km/h
2579 18-11-2019 11:00:00 5.025 C 6.6 g/m*3 5.03 C 0.93333 km/h
2580 18-11-2019 12:00:00 5.30833 C 6.7 g/m*3 5.31 C 3.46667 km/h
2581 18-11-2019 13:00:00 5.33333 C 6.67 g/m*3 5.33 C 3.46667 km/h
2582 18-11-2019 14:00:00 5.35833 C 6.63 g/m*3 5.36 C 4 km/h
2583 18-11-2019 15:00:00 5.19167 C 6.54 g/m*3 5.19 C 3.6 km/h
2584 18-11-2019 16:00:00 4.86667 C 6.4 g/m*3 4.87 C 4.29167 km/h
2585 18-11-2019 17:00:00 4.78333 C 6.36 g/m*3 4.78 C 4.55 km/h
2586 18-11-2019 18:00:00 4.65833 C 6.31 g/m*3 4.66 C 4.01667 km/h
2587 18-11-2019 19:00:00 4.08333 C 6.07 g/m*3 2.01 C 8.19167 km/h
2588 18-11-2019 20:00:00 3.23333 C 5.74 g/m*3 0.59 C 9.81667 km/h
2589 18-11-2019 21:00:00 2.55833 C 5.51 g/m*3 -0.5 C 11.03333 km/h
2590 18-11-2019 22:00:00 2.88333 C 5.66 g/m*3 0.08 C 10.23333 km/h
2591 18-11-2019 23:00:00 3.25 C 5.8 g/m*3 0.22 C 11.56667 km/h
2592 19-11-2019 00:00:00 3.7 C 5.98 g/m*3 1.02 C 10.35833 km/h
2593 19-11-2019 01:00:00 4.01667 C 6.11 g/m*3 2.19 C 7.25833 km/h
2594 19-11-2019 02:00:00 4.2 C 6.19 g/m*3 2.84 C 5.89167 km/h
2595 19-11-2019 03:00:00 4.25833 C 6.21 g/m*3 4.26 C 3.2 km/h
2596 19-11-2019 04:00:00 4.325 C 6.24 g/m*3 2.67 C 6.85833 km/h
2597 19-11-2019 05:00:00 3.475 C 5.88 g/m*3 3.48 C 0.8 km/h
2598 19-11-2019 06:00:00 2.85 C 5.66 g/m*3 2.85 C 2.66667 km/h
2599 19-11-2019 07:00:00 2.93333 C 5.72 g/m*3 2.93 C 0.53333 km/h
2600 19-11-2019 08:00:00 3.18333 C 5.84 g/m*3 3.18 C 2.13333 km/h
Sensor: Nr:Datum:Temp:Abs-Feuchte:Windchill:Wind:
Aussen-T/F 2601 19-11-2019 09:00:00 4.025 C 6.17 g/m*3 2.79 C 5.48333 km/h
2602 19-11-2019 10:00:00 4.00833 C 6.14 g/m*3 4.01 C 2 km/h
2603 19-11-2019 11:00:00 4.65833 C 6.44 g/m*3 4.66 C 3.89167 km/h
2604 19-11-2019 12:00:00 6.175 C 6.72 g/m*3 4.71 C 7.24167 km/h
2605 19-11-2019 13:00:00 6.35 C 6.55 g/m*3 5.18 C 6.30833 km/h
2606 19-11-2019 14:00:00 6.63333 C 6.58 g/m*3 5.72 C 5.61667 km/h
2607 19-11-2019 15:00:00 6.55 C 6.77 g/m*3 6.55 C 0.93333 km/h
2608 19-11-2019 16:00:00 5.54167 C 6.53 g/m*3 5.54 C 2.53333 km/h
2609 19-11-2019 17:00:00 4.175 C 6.03 g/m*3 4.18 C 1.33333 km/h
2610 19-11-2019 18:00:00 3.325 C 5.77 g/m*3 3.33 C 0.26667 km/h
2611 19-11-2019 19:00:00 2.74167 C 5.56 g/m*3 2.74 C 0.13333 km/h
2612 19-11-2019 20:00:00 2.3 C 5.45 g/m*3 2.3 C 0.4 km/h
2613 19-11-2019 21:00:00 2.80833 C 5.67 g/m*3 2.81 C 2.14167 km/h
2614 19-11-2019 22:00:00 2.45 C 5.51 g/m*3 2.45 C 0.4 km/h
2615 19-11-2019 23:00:00 1.10833 C 5.02 g/m*3 1.11 C 0 km/h
2616 20-11-2019 00:00:00 0.60833 C 4.85 g/m*3 0.61 C 0.13333 km/h
2617 20-11-2019 01:00:00 0.23333 C 4.73 g/m*3 0.23 C 0 km/h
2618 20-11-2019 02:00:00 0.35833 C 4.82 g/m*3 0.36 C 0 km/h
2619 20-11-2019 03:00:00 0.55833 C 4.88 g/m*3 0.56 C 2.14167 km/h
2620 20-11-2019 04:00:00 0.39167 C 4.83 g/m*3 0.39 C 2.80833 km/h
2621 20-11-2019 05:00:00 0.675 C 4.92 g/m*3 0.68 C 2.66667 km/h
2622 20-11-2019 06:00:00 0.75833 C 4.95 g/m*3 0.76 C 0.13333 km/h
2623 20-11-2019 07:00:00 1.01667 C 5.04 g/m*3 1.02 C 0.26667 km/h
2624 20-11-2019 08:00:00 1.275 C 5.15 g/m*3 1.27 C 0 km/h
2625 20-11-2019 09:00:00 1.85 C 5.39 g/m*3 1.85 C 0.26667 km/h
Sensor: Nr:Datum:Temp:Abs-Feuchte:Windchill:Wind:
Aussen-T/F 2626 20-11-2019 10:00:00 2.61667 C 5.68 g/m*3 2.62 C 0.26667 km/h
2627 20-11-2019 11:00:00 3.025 C 5.82 g/m*3 3.03 C 1.46667 km/h
2628 20-11-2019 12:00:00 4.16667 C 6.22 g/m*3 4.17 C 4.54167 km/h
2629 20-11-2019 13:00:00 4.9 C 6.09 g/m*3 2.97 C 8.19167 km/h
2630 20-11-2019 14:00:00 5.275 C 5.97 g/m*3 5.28 C 4.15 km/h
2631 20-11-2019 15:00:00 5.225 C 5.87 g/m*3 5.23 C 1.33333 km/h
2632 20-11-2019 16:00:00 3.54167 C 5.45 g/m*3 3.54 C 0.26667 km/h
2633 20-11-2019 17:00:00 2.34167 C 5.25 g/m*3 2.34 C 0 km/h
2634 20-11-2019 18:00:00 1.31667 C 4.96 g/m*3 1.32 C 0.13333 km/h
2635 20-11-2019 19:00:00 0.4 C 4.7 g/m*3 0.4 C 0 km/h
2636 20-11-2019 20:00:00 -0.19167 C 4.54 g/m*3 -0.19 C 0 km/h
2637 20-11-2019 21:00:00 -0.59167 C 4.45 g/m*3 -0.59 C 0 km/h
2638 20-11-2019 22:00:00 -0.85 C 4.39 g/m*3 -0.85 C 0.26667 km/h
2639 20-11-2019 23:00:00 -0.6 C 4.47 g/m*3 -0.6 C 0 km/h
2640 21-11-2019 00:00:00 -0.6 C 4.48 g/m*3 -0.6 C 0 km/h
2641 21-11-2019 01:00:00 -1.19167 C 4.28 g/m*3 -1.19 C 0 km/h
2642 21-11-2019 02:00:00 -1.4 C 4.22 g/m*3 -1.4 C 0 km/h
2643 21-11-2019 03:00:00 -1.23333 C 4.31 g/m*3 -1.23 C 0 km/h
2644 21-11-2019 04:00:00 -0.40833 C 4.57 g/m*3 -0.41 C 0 km/h
2645 21-11-2019 05:00:00 0.16667 C 4.75 g/m*3 0.17 C 0 km/h
2646 21-11-2019 06:00:00 0.65 C 4.92 g/m*3 0.65 C 0.13333 km/h
2647 21-11-2019 07:00:00 0.775 C 4.96 g/m*3 0.78 C 0 km/h
2648 21-11-2019 08:00:00 0.85 C 4.98 g/m*3 0.85 C 0.4 km/h
2649 21-11-2019 09:00:00 1.225 C 5.11 g/m*3 1.23 C 0.26667 km/h
2650 21-11-2019 10:00:00 1.775 C 5.31 g/m*3 1.78 C 0 km/h
Sensor: Nr:Datum:Temp:Abs-Feuchte:Windchill:Wind:
Aussen-T/F 2651 21-11-2019 11:00:00 2.53333 C 5.59 g/m*3 2.53 C 0.53333 km/h
2652 21-11-2019 12:00:00 2.925 C 5.68 g/m*3 2.93 C 1.6 km/h
2653 21-11-2019 13:00:00 3.6 C 5.92 g/m*3 3.6 C 1.6 km/h
2654 21-11-2019 14:00:00 4.33333 C 6.13 g/m*3 4.33 C 0.53333 km/h
2655 21-11-2019 15:00:00 4.78333 C 6.29 g/m*3 4.78 C 0 km/h
2656 21-11-2019 16:00:00 4.975 C 6.38 g/m*3 4.97 C 0 km/h
2657 21-11-2019 17:00:00 4.48333 C 6.23 g/m*3 4.48 C 0 km/h
2658 21-11-2019 18:00:00 4.18333 C 6.12 g/m*3 4.18 C 0 km/h
2659 21-11-2019 19:00:00 3.975 C 6.06 g/m*3 3.98 C 0 km/h
2660 21-11-2019 20:00:00 3.10833 C 5.7 g/m*3 3.11 C 0.4 km/h
2661 21-11-2019 21:00:00 2.35 C 5.46 g/m*3 2.35 C 0.4 km/h
2662 21-11-2019 22:00:00 1.89167 C 5.3 g/m*3 1.89 C 0.13333 km/h
2663 21-11-2019 23:00:00 2.05 C 5.41 g/m*3 2.05 C 0.13333 km/h
2664 22-11-2019 00:00:00 2.24167 C 5.48 g/m*3 2.24 C 0.13333 km/h
2665 22-11-2019 01:00:00 2 C 5.39 g/m*3 2 C 0.13333 km/h
2666 22-11-2019 02:00:00 1.6 C 5.24 g/m*3 1.6 C 0.26667 km/h
2667 22-11-2019 03:00:00 1.725 C 5.29 g/m*3 1.73 C 0.13333 km/h
2668 22-11-2019 04:00:00 2.11667 C 5.43 g/m*3 2.12 C 0 km/h
2669 22-11-2019 05:00:00 2.69167 C 5.68 g/m*3 2.69 C 0.13333 km/h
2670 22-11-2019 06:00:00 3.55833 C 6.05 g/m*3 3.56 C 0 km/h
2671 22-11-2019 07:00:00 3.99167 C 6.23 g/m*3 3.99 C 0.13333 km/h
2672 22-11-2019 08:00:00 4.55833 C 6.47 g/m*3 4.56 C 3.06667 km/h
2673 22-11-2019 09:00:00 4.65833 C 6.48 g/m*3 4.66 C 3.88333 km/h
2674 22-11-2019 10:00:00 4.50833 C 6.39 g/m*3 4.51 C 2.26667 km/h
2675 22-11-2019 11:00:00 5.18333 C 6.68 g/m*3 5.18 C 4.93333 km/h
Sensor: Nr:Datum:Temp:Abs-Feuchte:Windchill:Wind:
Aussen-T/F 2676 22-11-2019 12:00:00 5.7 C 6.86 g/m*3 4.39 C 6.45 km/h
2677 22-11-2019 13:00:00 5.88333 C 6.79 g/m*3 4.82 C 5.75 km/h
2678 22-11-2019 14:00:00 6.06667 C 6.78 g/m*3 4.41 C 7.91667 km/h
2679 22-11-2019 15:00:00 6.16667 C 6.75 g/m*3 6.17 C 4.00833 km/h
2680 22-11-2019 16:00:00 5.90833 C 6.66 g/m*3 5.91 C 1.73333 km/h
2681 22-11-2019 17:00:00 5.73333 C 6.66 g/m*3 5.73 C 1.46667 km/h
2682 22-11-2019 18:00:00 5.63333 C 6.64 g/m*3 5.63 C 1.46667 km/h
2683 22-11-2019 19:00:00 5.49167 C 6.55 g/m*3 5.49 C 2.26667 km/h
2684 22-11-2019 20:00:00 5.275 C 6.43 g/m*3 5.28 C 3.48333 km/h
2685 22-11-2019 21:00:00 5.08333 C 6.35 g/m*3 5.08 C 1.33333 km/h
2686 22-11-2019 22:00:00 4.88333 C 6.25 g/m*3 4.88 C 2.26667 km/h
2687 22-11-2019 23:00:00 4.725 C 6.16 g/m*3 4.72 C 2.13333 km/h
2688 23-11-2019 00:00:00 4.725 C 6.16 g/m*3 4.72 C 2.53333 km/h
2689 23-11-2019 01:00:00 4.83333 C 6.15 g/m*3 4.83 C 3.88333 km/h
2690 23-11-2019 02:00:00 4.775 C 6.13 g/m*3 4.78 C 1.06667 km/h
2691 23-11-2019 03:00:00 4.425 C 6.08 g/m*3 4.43 C 1.86667 km/h
2692 23-11-2019 04:00:00 4 C 5.96 g/m*3 4 C 0.26667 km/h
2693 23-11-2019 05:00:00 3.69167 C 5.9 g/m*3 3.69 C 0.8 km/h
2694 23-11-2019 06:00:00 3.68333 C 5.94 g/m*3 3.68 C 0.4 km/h
2695 23-11-2019 07:00:00 3.94167 C 6.08 g/m*3 3.94 C 0.53333 km/h
2696 23-11-2019 08:00:00 4.15 C 6.17 g/m*3 4.15 C 1.60833 km/h
2697 23-11-2019 09:00:00 5.00833 C 6.52 g/m*3 5.01 C 1.86667 km/h
2698 23-11-2019 10:00:00 6.15833 C 6.75 g/m*3 6.16 C 3.74167 km/h
2699 23-11-2019 11:00:00 7.225 C 6.91 g/m*3 7.23 C 4.14167 km/h
2700 23-11-2019 12:00:00 7.35833 C 7.14 g/m*3 7.36 C 1.33333 km/h
Sensor: Nr:Datum:Temp:Abs-Feuchte:Windchill:Wind:
Aussen-T/F 2701 23-11-2019 13:00:00 7.65 C 7.27 g/m*3 7.65 C 2 km/h
2702 23-11-2019 14:00:00 7.53333 C 7.39 g/m*3 7.53 C 2.53333 km/h
2703 23-11-2019 15:00:00 8.36667 C 7.53 g/m*3 7.83 C 5.225 km/h
2704 23-11-2019 16:00:00 7.625 C 7.15 g/m*3 7.63 C 2.275 km/h
2705 23-11-2019 17:00:00 6.25833 C 6.81 g/m*3 6.26 C 2.53333 km/h
2706 23-11-2019 18:00:00 5.76667 C 6.7 g/m*3 5.77 C 0.8 km/h
2707 23-11-2019 19:00:00 5.56667 C 6.69 g/m*3 5.57 C 1.46667 km/h
2708 23-11-2019 20:00:00 5.00833 C 6.46 g/m*3 5.01 C 0.26667 km/h
2709 23-11-2019 21:00:00 4.41667 C 6.22 g/m*3 4.42 C 0.13333 km/h
2710 23-11-2019 22:00:00 3.85833 C 6.04 g/m*3 3.86 C 0.4 km/h
2711 23-11-2019 23:00:00 3.28333 C 5.82 g/m*3 3.28 C 0.13333 km/h
2712 24-11-2019 00:00:00 2.8 C 5.63 g/m*3 2.8 C 0.13333 km/h
2713 24-11-2019 01:00:00 2.38333 C 5.49 g/m*3 2.38 C 0 km/h
2714 24-11-2019 02:00:00 2.16667 C 5.45 g/m*3 2.17 C 0 km/h
2715 24-11-2019 03:00:00 2.1 C 5.43 g/m*3 2.1 C 0 km/h
2716 24-11-2019 04:00:00 1.7 C 5.28 g/m*3 1.7 C 0 km/h
2717 24-11-2019 05:00:00 1.825 C 5.33 g/m*3 1.83 C 0.26667 km/h
2718 24-11-2019 06:00:00 1.48333 C 5.2 g/m*3 1.48 C 0 km/h
2719 24-11-2019 07:00:00 1.14167 C 5.08 g/m*3 1.14 C 0.13333 km/h
2720 24-11-2019 08:00:00 1.15 C 5.09 g/m*3 1.15 C 0 km/h
2721 24-11-2019 09:00:00 1.525 C 5.23 g/m*3 1.53 C 0.26667 km/h
2722 24-11-2019 10:00:00 2.25833 C 5.54 g/m*3 2.26 C 0.53333 km/h
2723 24-11-2019 11:00:00 3.01667 C 5.83 g/m*3 3.02 C 0.13333 km/h
2724 24-11-2019 12:00:00 3.81667 C 6.15 g/m*3 3.82 C 0 km/h
2725 24-11-2019 13:00:00 4.81667 C 6.58 g/m*3 4.82 C 0 km/h
Sensor: Nr:Datum:Temp:Abs-Feuchte:Windchill:Wind:
Aussen-T/F 2726 24-11-2019 14:00:00 5.39167 C 6.83 g/m*3 5.39 C 0 km/h
2727 24-11-2019 15:00:00 5.39167 C 6.83 g/m*3 5.39 C 0 km/h
2728 24-11-2019 16:00:00 4.71667 C 6.47 g/m*3 4.72 C 0 km/h
2729 24-11-2019 17:00:00 3.95 C 6.15 g/m*3 3.95 C 0 km/h
2730 24-11-2019 18:00:00 3.625 C 6.01 g/m*3 3.63 C 0 km/h
2731 24-11-2019 19:00:00 3.55 C 5.98 g/m*3 3.55 C 0 km/h
2732 24-11-2019 20:00:00 3.21667 C 5.85 g/m*3 3.22 C 0 km/h
2733 24-11-2019 21:00:00 3 C 5.77 g/m*3 3 C 0 km/h
2734 24-11-2019 22:00:00 2.48333 C 5.57 g/m*3 2.48 C 0 km/h
2735 24-11-2019 23:00:00 2.11667 C 5.44 g/m*3 2.12 C 0 km/h
2736 25-11-2019 00:00:00 2.06667 C 5.43 g/m*3 2.07 C 0 km/h
2737 25-11-2019 01:00:00 2.41667 C 5.6 g/m*3 2.42 C 0 km/h
2738 25-11-2019 02:00:00 2.26667 C 5.54 g/m*3 2.27 C 0 km/h
2739 25-11-2019 03:00:00 2.40833 C 5.6 g/m*3 2.41 C 0 km/h
2740 25-11-2019 04:00:00 2.7 C 5.71 g/m*3 2.7 C 0 km/h
2741 25-11-2019 05:00:00 3.06667 C 5.85 g/m*3 3.07 C 0 km/h
2742 25-11-2019 06:00:00 3.31667 C 5.95 g/m*3 3.32 C 0 km/h
2743 25-11-2019 07:00:00 3.575 C 6.06 g/m*3 3.58 C 0 km/h
2744 25-11-2019 08:00:00 3.80833 C 6.15 g/m*3 3.81 C 0 km/h
2745 25-11-2019 09:00:00 4.26667 C 6.34 g/m*3 4.27 C 0 km/h
2746 25-11-2019 10:00:00 4.73333 C 6.54 g/m*3 4.73 C 0 km/h
2747 25-11-2019 11:00:00 5.41667 C 6.85 g/m*3 5.42 C 0.13333 km/h
2748 25-11-2019 12:00:00 6.05 C 7.13 g/m*3 6.05 C 0.13333 km/h
2749 25-11-2019 13:00:00 6.675 C 7.35 g/m*3 6.68 C 0 km/h
2750 25-11-2019 14:00:00 7.08333 C 7.48 g/m*3 7.08 C 0.26667 km/h
Sensor: Nr:Datum:Temp:Abs-Feuchte:Windchill:Wind:
Aussen-T/F 2751 25-11-2019 15:00:00 7.225 C 7.48 g/m*3 7.23 C 0 km/h
2752 25-11-2019 16:00:00 7.15833 C 7.49 g/m*3 7.16 C 0 km/h
2753 25-11-2019 17:00:00 6.8 C 7.34 g/m*3 6.8 C 0 km/h
2754 25-11-2019 18:00:00 6.68333 C 7.29 g/m*3 6.68 C 0 km/h
2755 25-11-2019 19:00:00 6.19167 C 7.06 g/m*3 6.19 C 0 km/h
2756 25-11-2019 20:00:00 6.125 C 7.1 g/m*3 6.13 C 0.13333 km/h
2757 25-11-2019 21:00:00 5.86667 C 6.94 g/m*3 5.87 C 0 km/h
2758 25-11-2019 22:00:00 5.21667 C 6.63 g/m*3 5.22 C 0 km/h
2759 25-11-2019 23:00:00 4.28333 C 6.22 g/m*3 4.28 C 0 km/h
2760 26-11-2019 00:00:00 3.66667 C 6.02 g/m*3 3.67 C 0 km/h
2761 26-11-2019 01:00:00 4.225 C 6.26 g/m*3 4.22 C 0 km/h
2762 26-11-2019 02:00:00 4.71667 C 6.5 g/m*3 4.72 C 0.13333 km/h
2763 26-11-2019 03:00:00 5.25833 C 6.76 g/m*3 5.26 C 0.13333 km/h
2764 26-11-2019 04:00:00 5.88333 C 7.06 g/m*3 5.88 C 0 km/h
2765 26-11-2019 05:00:00 6.50833 C 7.35 g/m*3 6.51 C 0 km/h
2766 26-11-2019 06:00:00 6.75833 C 7.47 g/m*3 6.76 C 0.4 km/h
2767 26-11-2019 07:00:00 7.25 C 7.72 g/m*3 7.25 C 0.26667 km/h
2768 26-11-2019 08:00:00 7.45833 C 7.82 g/m*3 7.46 C 1.2 km/h
2769 26-11-2019 09:00:00 8.05833 C 8.13 g/m*3 8.06 C 2.66667 km/h
2770 26-11-2019 10:00:00 9.175 C 8.62 g/m*3 9.18 C 1.73333 km/h
2771 26-11-2019 11:00:00 10.38333 C 8.91 g/m*3 10.38 C 3.61667 km/h
2772 26-11-2019 12:00:00 10.98333 C 9.07 g/m*3 10.98 C 1.2 km/h
2773 26-11-2019 13:00:00 11.175 C 9.13 g/m*3 11.18 C 1.875 km/h
2774 26-11-2019 14:00:00 11.10833 C 9.19 g/m*3 11.11 C 0.66667 km/h
2775 26-11-2019 15:00:00 11.24167 C 9.17 g/m*3 11.24 C 1.2 km/h
Sensor: Nr:Datum:Temp:Abs-Feuchte:Windchill:Wind:
Aussen-T/F 2776 26-11-2019 16:00:00 10.69167 C 8.97 g/m*3 10.69 C 0.53333 km/h
2777 26-11-2019 17:00:00 10.01667 C 8.69 g/m*3 10.02 C 0.13333 km/h
2778 26-11-2019 18:00:00 9.73333 C 8.67 g/m*3 9.73 C 2 km/h
2779 26-11-2019 19:00:00 10.16667 C 8.78 g/m*3 10.17 C 2.93333 km/h
2780 26-11-2019 20:00:00 9.75 C 8.48 g/m*3 9.75 C 0.53333 km/h
2781 26-11-2019 21:00:00 9.15 C 8.43 g/m*3 9.15 C 0 km/h
2782 26-11-2019 22:00:00 9.225 C 8.43 g/m*3 9.23 C 0.4 km/h
2783 26-11-2019 23:00:00 8.66667 C 8.19 g/m*3 8.67 C 0.13333 km/h
2784 27-11-2019 00:00:00 8.46667 C 8.14 g/m*3 8.47 C 0.53333 km/h
2785 27-11-2019 01:00:00 8.38333 C 8.12 g/m*3 8.38 C 0.4 km/h
2786 27-11-2019 02:00:00 8.73333 C 8.36 g/m*3 8.73 C 0 km/h
2787 27-11-2019 03:00:00 8.21667 C 8.06 g/m*3 8.22 C 0 km/h
2788 27-11-2019 04:00:00 8.25833 C 8.15 g/m*3 8.26 C 3.06667 km/h
2789 27-11-2019 05:00:00 8.39167 C 8.15 g/m*3 7.82 C 5.34167 km/h
2790 27-11-2019 06:00:00 8.64167 C 8.21 g/m*3 8.64 C 1.46667 km/h
2791 27-11-2019 07:00:00 8.725 C 8.28 g/m*3 8.73 C 3.74167 km/h
2792 27-11-2019 08:00:00 9.13333 C 8.45 g/m*3 9.13 C 2.66667 km/h
2793 27-11-2019 09:00:00 9.60833 C 8.71 g/m*3 9.61 C 1.33333 km/h
2794 27-11-2019 10:00:00 10.00833 C 8.91 g/m*3 10.01 C 2.40833 km/h
2795 27-11-2019 11:00:00 11.66667 C 8.92 g/m*3 11.67 C 6.15833 km/h
2796 27-11-2019 12:00:00 12.65 C 8.78 g/m*3 12.65 C 12.625 km/h
2797 27-11-2019 13:00:00 12.775 C 8.66 g/m*3 12.78 C 10.61667 km/h
2798 27-11-2019 14:00:00 12.96667 C 8.63 g/m*3 12.97 C 7.375 km/h
2799 27-11-2019 15:00:00 12.8 C 8.56 g/m*3 12.8 C 12.21667 km/h
2800 27-11-2019 16:00:00 11.73333 C 8.77 g/m*3 11.73 C 4.95 km/h
Sensor: Nr:Datum:Temp:Abs-Feuchte:Windchill:Wind:
Aussen-T/F 2801 27-11-2019 17:00:00 10.73333 C 8.89 g/m*3 10.73 C 4.275 km/h
2802 27-11-2019 18:00:00 10.70833 C 8.97 g/m*3 10.49 C 5.225 km/h
2803 27-11-2019 19:00:00 10.75 C 9.05 g/m*3 9.96 C 7.65 km/h
2804 27-11-2019 20:00:00 11.26667 C 8.94 g/m*3 11.27 C 8.99167 km/h
2805 27-11-2019 21:00:00 10.76667 C 9.02 g/m*3 9.7 C 9.125 km/h
2806 27-11-2019 22:00:00 11.29167 C 8.86 g/m*3 11.29 C 16.375 km/h
2807 27-11-2019 23:00:00 11.6 C 8.61 g/m*3 11.6 C 17.175 km/h
2808 28-11-2019 00:00:00 11.575 C 8.47 g/m*3 11.58 C 19.7 km/h
2809 28-11-2019 01:00:00 11.61667 C 8.43 g/m*3 11.62 C 23.46667 km/h
2810 28-11-2019 02:00:00 11.20833 C 8.36 g/m*3 11.21 C 21.19167 km/h
2811 28-11-2019 03:00:00 11.05 C 8.04 g/m*3 11.05 C 19.70833 km/h
2812 28-11-2019 04:00:00 10.96667 C 7.93 g/m*3 8.7 C 18.9 km/h
2813 28-11-2019 05:00:00 10.66667 C 7.96 g/m*3 8.31 C 19.04167 km/h
2814 28-11-2019 06:00:00 10.66667 C 8.14 g/m*3 8.57 C 16.5 km/h
2815 28-11-2019 07:00:00 10.60833 C 7.98 g/m*3 8.38 C 17.56667 km/h
2816 28-11-2019 08:00:00 10.58333 C 7.94 g/m*3 8.28 C 18.24167 km/h
2817 28-11-2019 09:00:00 11.025 C 8.03 g/m*3 11.03 C 16.23333 km/h
2818 28-11-2019 10:00:00 11.58333 C 8.06 g/m*3 11.58 C 17.7 km/h
2819 28-11-2019 11:00:00 11.95833 C 8.23 g/m*3 11.96 C 20.76667 km/h
2820 28-11-2019 12:00:00 11.49167 C 8.53 g/m*3 11.49 C 19.16667 km/h
2821 28-11-2019 13:00:00 11.7 C 8.66 g/m*3 11.7 C 17.7 km/h
2822 28-11-2019 14:00:00 11.45 C 8.57 g/m*3 11.45 C 15.03333 km/h
2823 28-11-2019 15:00:00 11.16667 C 8.46 g/m*3 11.17 C 15.03333 km/h
2824 28-11-2019 16:00:00 10.83333 C 8.42 g/m*3 8.89 C 15.44167 km/h
2825 28-11-2019 17:00:00 10.41667 C 8.55 g/m*3 8.64 C 13.3 km/h
Sensor: Nr:Datum:Temp:Abs-Feuchte:Windchill:Wind:
Aussen-T/F 2826 28-11-2019 18:00:00 10.43333 C 8.46 g/m*3 8.56 C 14.1 km/h
2827 28-11-2019 19:00:00 10.41667 C 8.44 g/m*3 8.92 C 11.29167 km/h
2828 28-11-2019 20:00:00 10.31667 C 8.51 g/m*3 8.84 C 11.03333 km/h
2829 28-11-2019 21:00:00 10.33333 C 8.49 g/m*3 8.69 C 12.23333 km/h
2830 28-11-2019 22:00:00 10.19167 C 8.54 g/m*3 8.63 C 11.425 km/h
2831 28-11-2019 23:00:00 10.00833 C 8.53 g/m*3 9.12 C 7.50833 km/h
2832 29-11-2019 00:00:00 9.44167 C 8.49 g/m*3 8.86 C 5.89167 km/h
2833 29-11-2019 01:00:00 9.05 C 8.36 g/m*3 9.05 C 2.93333 km/h
2834 29-11-2019 02:00:00 8.825 C 8.3 g/m*3 8.82 C 0 km/h
2835 29-11-2019 03:00:00 8.58333 C 8.23 g/m*3 8.58 C 0.26667 km/h
2836 29-11-2019 04:00:00 8.21667 C 8.04 g/m*3 8.22 C 2.15 km/h
2837 29-11-2019 05:00:00 7.15 C 7.34 g/m*3 7.15 C 4.55 km/h
2838 29-11-2019 06:00:00 6.79167 C 7.26 g/m*3 6.79 C 2.80833 km/h
2839 29-11-2019 07:00:00 6.38333 C 7.01 g/m*3 6.38 C 2.00833 km/h
2840 29-11-2019 08:00:00 5.95833 C 6.88 g/m*3 5.96 C 0.4 km/h
2841 29-11-2019 09:00:00 5.525 C 6.68 g/m*3 5.53 C 1.73333 km/h
2842 29-11-2019 10:00:00 5.73333 C 6.69 g/m*3 5.73 C 3.06667 km/h
2843 29-11-2019 11:00:00 6.45833 C 6.76 g/m*3 6.46 C 4.00833 km/h
2844 29-11-2019 12:00:00 7.34167 C 6.65 g/m*3 5.26 C 11.01667 km/h
2845 29-11-2019 13:00:00 6.99167 C 6.45 g/m*3 6 C 6.04167 km/h
2846 29-11-2019 14:00:00 7.49167 C 6.11 g/m*3 6.08 C 7.925 km/h
2847 29-11-2019 15:00:00 7.675 C 5.92 g/m*3 5.94 C 9.55 km/h
2848 29-11-2019 16:00:00 6.63333 C 5.89 g/m*3 6.63 C 4.00833 km/h
2849 29-11-2019 17:00:00 4.95833 C 5.73 g/m*3 4.96 C 3.33333 km/h
2850 29-11-2019 18:00:00 4.88333 C 5.86 g/m*3 4.88 C 1.46667 km/h
Sensor: Nr:Datum:Temp:Abs-Feuchte:Windchill:Wind:
Aussen-T/F 2851 29-11-2019 19:00:00 5.13333 C 5.83 g/m*3 5.13 C 2.53333 km/h
2852 29-11-2019 20:00:00 4.80833 C 5.8 g/m*3 4.81 C 3.46667 km/h
2853 29-11-2019 21:00:00 4.55833 C 5.8 g/m*3 4.56 C 2.8 km/h
2854 29-11-2019 22:00:00 3.55 C 5.55 g/m*3 3.55 C 0.93333 km/h
2855 29-11-2019 23:00:00 2.56667 C 5.34 g/m*3 2.57 C 1.2 km/h
2856 30-11-2019 00:00:00 2.60833 C 5.44 g/m*3 2.61 C 1.33333 km/h
2857 30-11-2019 01:00:00 1.975 C 5.21 g/m*3 1.98 C 0.66667 km/h
2858 30-11-2019 02:00:00 1.725 C 5.18 g/m*3 1.73 C 0.4 km/h
2859 30-11-2019 03:00:00 1.51667 C 5.11 g/m*3 1.52 C 0.93333 km/h
2860 30-11-2019 04:00:00 1.93333 C 5.29 g/m*3 1.93 C 2.93333 km/h
2861 30-11-2019 05:00:00 1.35 C 5.05 g/m*3 1.35 C 0.93333 km/h
2862 30-11-2019 06:00:00 0.18333 C 4.66 g/m*3 0.18 C 0.13333 km/h
2863 30-11-2019 07:00:00 -0.19167 C 4.57 g/m*3 -0.19 C 0.26667 km/h
2864 30-11-2019 08:00:00 0.14167 C 4.7 g/m*3 0.14 C 0 km/h
2865 30-11-2019 09:00:00 0.18333 C 4.71 g/m*3 0.18 C 0.53333 km/h
2866 30-11-2019 10:00:00 0.55 C 4.88 g/m*3 0.55 C 1.6 km/h
2867 30-11-2019 11:00:00 0.89167 C 5 g/m*3 0.89 C 2.26667 km/h
2868 30-11-2019 12:00:00 1.35 C 5.16 g/m*3 1.35 C 0.66667 km/h
2869 30-11-2019 13:00:00 2.11667 C 5.43 g/m*3 2.12 C 0.93333 km/h
2870 30-11-2019 14:00:00 2.26667 C 5.49 g/m*3 2.27 C 2.13333 km/h
2871 30-11-2019 15:00:00 2.19167 C 5.46 g/m*3 2.19 C 1.2 km/h
2872 30-11-2019 16:00:00 1.99167 C 5.39 g/m*3 1.99 C 0 km/h
2873 30-11-2019 17:00:00 1.525 C 5.22 g/m*3 1.53 C 0 km/h
2874 30-11-2019 18:00:00 1.05833 C 5.05 g/m*3 1.06 C 0 km/h
2875 30-11-2019 19:00:00 0.79167 C 4.96 g/m*3 0.79 C 0 km/h
Sensor: Nr:Datum:Temp:Abs-Feuchte:Windchill:Wind:
Aussen-T/F 2876 30-11-2019 20:00:00 0.65 C 4.92 g/m*3 0.65 C 0 km/h
2877 30-11-2019 21:00:00 0.58333 C 4.89 g/m*3 0.58 C 0.26667 km/h
2878 30-11-2019 22:00:00 0.66667 C 4.92 g/m*3 0.67 C 0.53333 km/h
2879 30-11-2019 23:00:00 0.63333 C 4.91 g/m*3 0.63 C 1.2 km/h
2880 01-12-2019 00:00:00 0.6 C 4.91 g/m*3 0.6 C 0.26667 km/h
2881 01-12-2019 01:00:00 0.75833 C 5 g/m*3 0.76 C 0.26667 km/h
2882 01-12-2019 02:00:00 0.63333 C 4.95 g/m*3 0.63 C 0.53333 km/h
2883 01-12-2019 03:00:00 0.5 C 4.86 g/m*3 0.5 C 0.93333 km/h
2884 01-12-2019 04:00:00 0.10833 C 4.76 g/m*3 0.11 C 0 km/h
2885 01-12-2019 05:00:00 0.1 C 4.78 g/m*3 0.1 C 0.13333 km/h
2886 01-12-2019 06:00:00 -0.025 C 4.71 g/m*3 -0.03 C 0.4 km/h
2887 01-12-2019 07:00:00 0.35 C 4.86 g/m*3 0.35 C 2.53333 km/h
2888 01-12-2019 08:00:00 0.70833 C 4.99 g/m*3 0.71 C 1.06667 km/h
2889 01-12-2019 09:00:00 0.84167 C 5.03 g/m*3 0.84 C 0.26667 km/h
2890 01-12-2019 10:00:00 1.275 C 5.18 g/m*3 1.27 C 0.13333 km/h
2891 01-12-2019 11:00:00 2.1 C 5.48 g/m*3 2.1 C 3.075 km/h
2892 01-12-2019 12:00:00 2.975 C 5.48 g/m*3 1.69 C 5.23333 km/h
2893 01-12-2019 13:00:00 3.75833 C 5.24 g/m*3 3.76 C 2.13333 km/h
2894 01-12-2019 14:00:00 4.20833 C 5.11 g/m*3 4.21 C 0.93333 km/h
2895 01-12-2019 15:00:00 3.98333 C 5.33 g/m*3 3.98 C 0 km/h
2896 01-12-2019 16:00:00 3.16667 C 5.21 g/m*3 3.17 C 0 km/h
2897 01-12-2019 17:00:00 2.81667 C 5.2 g/m*3 2.82 C 0 km/h
2898 01-12-2019 18:00:00 2.8 C 5.19 g/m*3 2.8 C 0 km/h
2899 01-12-2019 19:00:00 2.86667 C 5.2 g/m*3 2.87 C 0 km/h
2900 01-12-2019 20:00:00 2.725 C 5.14 g/m*3 2.73 C 0 km/h
Sensor: Nr:Datum:Temp:Abs-Feuchte:Windchill:Wind:
Aussen-T/F 2901 01-12-2019 21:00:00 2.45 C 5.06 g/m*3 2.45 C 0.13333 km/h
2902 01-12-2019 22:00:00 1.99167 C 4.95 g/m*3 1.99 C 0 km/h
2903 01-12-2019 23:00:00 1.33333 C 4.8 g/m*3 1.33 C 0.26667 km/h
2904 02-12-2019 00:00:00 0.775 C 4.7 g/m*3 0.78 C 0.66667 km/h
2905 02-12-2019 01:00:00 0.63333 C 4.71 g/m*3 0.63 C 0.4 km/h
2906 02-12-2019 02:00:00 0.09167 C 4.53 g/m*3 0.09 C 1.6 km/h
2907 02-12-2019 03:00:00 -0.36667 C 4.41 g/m*3 -0.37 C 2.13333 km/h
2908 02-12-2019 04:00:00 -0.44167 C 4.44 g/m*3 -0.44 C 0.53333 km/h
2909 02-12-2019 05:00:00 -0.35 C 4.48 g/m*3 -0.35 C 0.26667 km/h
2910 02-12-2019 06:00:00 -0.6 C 4.42 g/m*3 -0.6 C 1.06667 km/h
2911 02-12-2019 07:00:00 -1.15833 C 4.24 g/m*3 -1.16 C 0.26667 km/h
2912 02-12-2019 08:00:00 -0.65 C 4.43 g/m*3 -0.65 C 1.06667 km/h
2913 02-12-2019 09:00:00 0.26667 C 4.71 g/m*3 0.27 C 4.26667 km/h
2914 02-12-2019 10:00:00 0.85 C 4.84 g/m*3 -0.66 C 5.08333 km/h
2915 02-12-2019 11:00:00 1.58333 C 4.99 g/m*3 1.58 C 4.41667 km/h
2916 02-12-2019 12:00:00 2.78333 C 5.31 g/m*3 2.78 C 4.69167 km/h
2917 02-12-2019 13:00:00 3.95 C 5.54 g/m*3 2.76 C 5.34167 km/h
2918 02-12-2019 14:00:00 4.725 C 5.91 g/m*3 4.72 C 4.55 km/h
2919 02-12-2019 15:00:00 5.19167 C 6.12 g/m*3 5.19 C 1.2 km/h
2920 02-12-2019 16:00:00 4.675 C 6.12 g/m*3 4.68 C 2.8 km/h
2921 02-12-2019 17:00:00 4.20833 C 6 g/m*3 4.21 C 1.6 km/h
2922 02-12-2019 18:00:00 3.875 C 5.88 g/m*3 3.88 C 0.53333 km/h
2923 02-12-2019 19:00:00 3.425 C 5.78 g/m*3 3.43 C 0.93333 km/h
2924 02-12-2019 20:00:00 3.7 C 5.92 g/m*3 3.7 C 1.73333 km/h
2925 02-12-2019 21:00:00 3.63333 C 5.89 g/m*3 3.63 C 4.825 km/h
Sensor: Nr:Datum:Temp:Abs-Feuchte:Windchill:Wind:
Aussen-T/F 2926 02-12-2019 22:00:00 3.475 C 5.89 g/m*3 3.48 C 4.40833 km/h
2927 02-12-2019 23:00:00 3.4 C 5.86 g/m*3 3.4 C 3.475 km/h
2928 03-12-2019 00:00:00 3.40833 C 5.87 g/m*3 1.52 C 7.11667 km/h
2929 03-12-2019 01:00:00 3.55833 C 5.93 g/m*3 3.56 C 4.80833 km/h
2930 03-12-2019 02:00:00 3.71667 C 5.99 g/m*3 3.72 C 2.00833 km/h
2931 03-12-2019 03:00:00 3.8 C 6.04 g/m*3 2.63 C 5.21667 km/h
2932 03-12-2019 04:00:00 3.89167 C 6.11 g/m*3 2.26 C 6.56667 km/h
2933 03-12-2019 05:00:00 4.01667 C 6.17 g/m*3 4.02 C 4.275 km/h
2934 03-12-2019 06:00:00 4.1 C 6.21 g/m*3 4.1 C 1.73333 km/h
2935 03-12-2019 07:00:00 4.19167 C 6.25 g/m*3 4.19 C 4.00833 km/h
2936 03-12-2019 08:00:00 4.23333 C 6.26 g/m*3 2.97 C 5.625 km/h
2937 03-12-2019 09:00:00 4.35 C 6.31 g/m*3 4.35 C 4.94167 km/h
2938 03-12-2019 10:00:00 4.61667 C 6.43 g/m*3 3.46 C 5.49167 km/h
2939 03-12-2019 11:00:00 5.11667 C 6.64 g/m*3 5.12 C 3.2 km/h
2940 03-12-2019 12:00:00 5.6 C 6.86 g/m*3 5.6 C 3.46667 km/h
2941 03-12-2019 13:00:00 6.06667 C 7 g/m*3 6.07 C 4.26667 km/h
2942 03-12-2019 14:00:00 6.51667 C 7.13 g/m*3 6.52 C 1.06667 km/h
2943 03-12-2019 15:00:00 6.675 C 7.13 g/m*3 6.68 C 0 km/h
2944 03-12-2019 16:00:00 6.46667 C 7.07 g/m*3 6.47 C 0 km/h
2945 03-12-2019 17:00:00 5.98333 C 6.89 g/m*3 5.98 C 0 km/h
2946 03-12-2019 18:00:00 5.56667 C 6.71 g/m*3 5.57 C 0 km/h
2947 03-12-2019 19:00:00 5.29167 C 6.62 g/m*3 5.29 C 0.66667 km/h
2948 03-12-2019 20:00:00 4.93333 C 6.48 g/m*3 4.93 C 0 km/h
2949 03-12-2019 21:00:00 4.6 C 6.34 g/m*3 4.6 C 0 km/h
2950 03-12-2019 22:00:00 4.00833 C 6.09 g/m*3 4.01 C 2.4 km/h
Sensor: Nr:Datum:Temp:Abs-Feuchte:Windchill:Wind:
Aussen-T/F 2951 03-12-2019 23:00:00 3.46667 C 5.87 g/m*3 3.47 C 2.93333 km/h
2952 04-12-2019 00:00:00 2.41667 C 5.43 g/m*3 2.42 C 0.4 km/h
2953 04-12-2019 01:00:00 1.24167 C 5.04 g/m*3 1.24 C 0 km/h
2954 04-12-2019 02:00:00 0.90833 C 4.95 g/m*3 0.91 C 0 km/h
2955 04-12-2019 03:00:00 1.64167 C 5.26 g/m*3 1.64 C 0 km/h
2956 04-12-2019 04:00:00 1.74167 C 5.3 g/m*3 1.74 C 0 km/h
2957 04-12-2019 05:00:00 1.74167 C 5.3 g/m*3 1.74 C 0 km/h
2958 04-12-2019 06:00:00 1.93333 C 5.37 g/m*3 1.93 C 0.26667 km/h
2959 04-12-2019 07:00:00 1.81667 C 5.32 g/m*3 1.82 C 0.26667 km/h
2960 04-12-2019 08:00:00 1.725 C 5.29 g/m*3 1.73 C 0.13333 km/h
2961 04-12-2019 09:00:00 1.8 C 5.32 g/m*3 1.8 C 1.06667 km/h
2962 04-12-2019 10:00:00 1.83333 C 5.33 g/m*3 1.83 C 1.33333 km/h
2963 04-12-2019 11:00:00 1.83333 C 5.32 g/m*3 1.83 C 0 km/h
2964 04-12-2019 12:00:00 2.15 C 5.45 g/m*3 2.15 C 0.4 km/h
2965 04-12-2019 13:00:00 2.51667 C 5.58 g/m*3 2.52 C 1.46667 km/h
2966 04-12-2019 14:00:00 2.825 C 5.68 g/m*3 2.83 C 2.26667 km/h
2967 04-12-2019 15:00:00 2.58333 C 5.55 g/m*3 2.58 C 0 km/h
2968 04-12-2019 16:00:00 2.025 C 5.32 g/m*3 2.03 C 1.06667 km/h
2969 04-12-2019 17:00:00 1.43333 C 5.12 g/m*3 1.43 C 0 km/h
2970 04-12-2019 18:00:00 1.10833 C 5.01 g/m*3 1.11 C 0 km/h
2971 04-12-2019 19:00:00 0.41667 C 4.77 g/m*3 0.42 C 0 km/h
2972 04-12-2019 20:00:00 -0.08333 C 4.62 g/m*3 -0.08 C 0.4 km/h
2973 04-12-2019 21:00:00 -0.58333 C 4.47 g/m*3 -0.58 C 0.26667 km/h
2974 04-12-2019 22:00:00 -1.23333 C 4.27 g/m*3 -1.23 C 0 km/h
2975 04-12-2019 23:00:00 -1.54167 C 4.18 g/m*3 -1.54 C 0 km/h
Sensor: Nr:Datum:Temp:Abs-Feuchte:Windchill:Wind:
Aussen-T/F 2976 05-12-2019 00:00:00 -1.775 C 4.11 g/m*3 -1.78 C 0.13333 km/h
2977 05-12-2019 01:00:00 -1.78333 C 4.13 g/m*3 -1.78 C 0.13333 km/h
2978 05-12-2019 02:00:00 -1.86667 C 4.12 g/m*3 -1.87 C 0 km/h
2979 05-12-2019 03:00:00 -2.225 C 4 g/m*3 -2.23 C 0.66667 km/h
2980 05-12-2019 04:00:00 -1.84167 C 4.13 g/m*3 -1.84 C 1.06667 km/h
2981 05-12-2019 05:00:00 -1.75833 C 4.16 g/m*3 -1.76 C 0.4 km/h
2982 05-12-2019 06:00:00 -1.83333 C 4.14 g/m*3 -1.83 C 0.13333 km/h
2983 05-12-2019 07:00:00 -2.03333 C 4.08 g/m*3 -2.03 C 0.26667 km/h
2984 05-12-2019 08:00:00 -2.075 C 4.07 g/m*3 -2.08 C 0.13333 km/h
2985 05-12-2019 09:00:00 -1.81667 C 4.14 g/m*3 -1.82 C 1.2 km/h
2986 05-12-2019 10:00:00 -1.575 C 4.21 g/m*3 -1.58 C 1.06667 km/h
2987 05-12-2019 11:00:00 -0.94167 C 4.4 g/m*3 -0.94 C 2.13333 km/h
2988 05-12-2019 12:00:00 -0.44167 C 4.56 g/m*3 -0.44 C 1.46667 km/h
2989 05-12-2019 13:00:00 0 C 4.7 g/m*3 0 C 3.06667 km/h
2990 05-12-2019 14:00:00 0.6 C 4.9 g/m*3 0.6 C 2.4 km/h
2991 05-12-2019 15:00:00 0.675 C 4.92 g/m*3 0.68 C 1.6 km/h
2992 05-12-2019 16:00:00 0.29167 C 4.8 g/m*3 0.29 C 0 km/h
2993 05-12-2019 17:00:00 -0.225 C 4.63 g/m*3 -0.23 C 0 km/h
2994 05-12-2019 18:00:00 -0.825 C 4.44 g/m*3 -0.83 C 0.26667 km/h
2995 05-12-2019 19:00:00 -1.25833 C 4.31 g/m*3 -1.26 C 1.46667 km/h
2996 05-12-2019 20:00:00 -0.65833 C 4.5 g/m*3 -0.66 C 3.75 km/h
2997 05-12-2019 21:00:00 -1.16667 C 4.33 g/m*3 -1.17 C 1.86667 km/h
2998 05-12-2019 22:00:00 -1.39167 C 4.27 g/m*3 -1.39 C 1.73333 km/h
2999 05-12-2019 23:00:00 -1.825 C 4.14 g/m*3 -1.83 C 0.8 km/h
3000 06-12-2019 00:00:00 -2.28333 C 4.01 g/m*3 -2.28 C 0.8 km/h
Sensor: Nr:Datum:Temp:Abs-Feuchte:Windchill:Wind:
Aussen-T/F 3001 06-12-2019 01:00:00 -1.125 C 4.36 g/m*3 -1.13 C 2.66667 km/h
3002 06-12-2019 02:00:00 -0.575 C 4.52 g/m*3 -2.41 C 5.35833 km/h
3003 06-12-2019 03:00:00 -0.225 C 4.6 g/m*3 -1.89 C 5.09167 km/h
3004 06-12-2019 04:00:00 -0.10833 C 4.6 g/m*3 -0.11 C 3.75 km/h
3005 06-12-2019 05:00:00 0.13333 C 4.65 g/m*3 0.13 C 3.475 km/h
3006 06-12-2019 06:00:00 0.36667 C 4.7 g/m*3 0.37 C 3.48333 km/h
3007 06-12-2019 07:00:00 0.725 C 4.79 g/m*3 0.73 C 4.41667 km/h
3008 06-12-2019 08:00:00 1.31667 C 4.89 g/m*3 1.32 C 4.3 km/h
3009 06-12-2019 09:00:00 1.89167 C 5.11 g/m*3 0.3 C 5.625 km/h
3010 06-12-2019 10:00:00 2.65 C 5.43 g/m*3 2.65 C 2 km/h
3011 06-12-2019 11:00:00 3.86667 C 5.92 g/m*3 2.55 C 5.63333 km/h
3012 06-12-2019 12:00:00 4.7 C 6.23 g/m*3 3.32 C 6.16667 km/h
3013 06-12-2019 13:00:00 4.95833 C 6.44 g/m*3 3.49 C 6.56667 km/h
3014 06-12-2019 14:00:00 5.25833 C 6.57 g/m*3 5.26 C 2.53333 km/h
3015 06-12-2019 15:00:00 5.44167 C 6.65 g/m*3 4.4 C 5.5 km/h
3016 06-12-2019 16:00:00 5.95833 C 6.77 g/m*3 3.76 C 10.20833 km/h
3017 06-12-2019 17:00:00 6.225 C 6.7 g/m*3 4.59 C 7.925 km/h
3018 06-12-2019 18:00:00 6.65 C 6.82 g/m*3 4.51 C 10.61667 km/h
3019 06-12-2019 19:00:00 6.91667 C 6.95 g/m*3 4.01 C 15.7 km/h
3020 06-12-2019 20:00:00 7.28333 C 7.02 g/m*3 3.97 C 19.84167 km/h
3021 06-12-2019 21:00:00 7.19167 C 7.02 g/m*3 3.73 C 20.90833 km/h
3022 06-12-2019 22:00:00 7.25 C 7.03 g/m*3 4.03 C 18.91667 km/h
3023 06-12-2019 23:00:00 7.44167 C 7.12 g/m*3 5.18 C 12.23333 km/h
3024 07-12-2019 00:00:00 7.65 C 7.27 g/m*3 4.92 C 15.70833 km/h
3025 07-12-2019 01:00:00 8.09167 C 7.49 g/m*3 6.03 C 11.83333 km/h
Sensor: Nr:Datum:Temp:Abs-Feuchte:Windchill:Wind:
Aussen-T/F 3026 07-12-2019 02:00:00 8.14167 C 7.7 g/m*3 6.81 C 8.05833 km/h
3027 07-12-2019 03:00:00 8.68333 C 7.9 g/m*3 6.68 C 12.225 km/h
3028 07-12-2019 04:00:00 8.85833 C 7.8 g/m*3 7.65 C 8.05833 km/h
3029 07-12-2019 05:00:00 8.40833 C 7.74 g/m*3 7.41 C 6.85833 km/h
3030 07-12-2019 06:00:00 8.46667 C 7.51 g/m*3 6.89 C 9.53333 km/h
3031 07-12-2019 07:00:00 7.675 C 7.26 g/m*3 6.6 C 6.69167 km/h
3032 07-12-2019 08:00:00 8.35 C 7.6 g/m*3 7.15 C 7.65833 km/h
3033 07-12-2019 09:00:00 8.70833 C 7.77 g/m*3 8.71 C 3.75 km/h
3034 07-12-2019 10:00:00 9.19167 C 7.85 g/m*3 7.93 C 8.6 km/h
3035 07-12-2019 11:00:00 9.38333 C 8.12 g/m*3 8.95 C 5.35 km/h
3036 07-12-2019 12:00:00 9.5 C 7.87 g/m*3 8.21 C 9.025 km/h
3037 07-12-2019 13:00:00 10.025 C 7.76 g/m*3 8.65 C 10.08333 km/h
3038 07-12-2019 14:00:00 10.15 C 7.79 g/m*3 9.44 C 6.84167 km/h
3039 07-12-2019 15:00:00 10.06667 C 7.83 g/m*3 10.07 C 4.00833 km/h
3040 07-12-2019 16:00:00 9.39167 C 7.74 g/m*3 9.39 C 1.33333 km/h
3041 07-12-2019 17:00:00 8.74167 C 7.68 g/m*3 8.74 C 1.2 km/h
3042 07-12-2019 18:00:00 8.40833 C 7.58 g/m*3 8.41 C 1.46667 km/h
3043 07-12-2019 19:00:00 8.25 C 7.65 g/m*3 8.25 C 1.33333 km/h
3044 07-12-2019 20:00:00 8.01667 C 7.53 g/m*3 8.02 C 0.53333 km/h
3045 07-12-2019 21:00:00 8.26667 C 7.6 g/m*3 8.27 C 4.00833 km/h
3046 07-12-2019 22:00:00 8.39167 C 7.63 g/m*3 8.39 C 1.34167 km/h
3047 07-12-2019 23:00:00 8.2 C 7.65 g/m*3 8.2 C 2.54167 km/h
3048 08-12-2019 00:00:00 8.9 C 7.51 g/m*3 7.7 C 8.05 km/h
3049 08-12-2019 01:00:00 9.15833 C 7.55 g/m*3 8.35 C 6.575 km/h
3050 08-12-2019 02:00:00 9.44167 C 7.31 g/m*3 8.12 C 9.13333 km/h
Sensor: Nr:Datum:Temp:Abs-Feuchte:Windchill:Wind:
Aussen-T/F 3051 08-12-2019 03:00:00 9.55 C 7.36 g/m*3 7.9 C 11.14167 km/h
3052 08-12-2019 04:00:00 9.91667 C 7.7 g/m*3 7.68 C 16.1 km/h
3053 08-12-2019 05:00:00 9.89167 C 7.88 g/m*3 7.67 C 15.96667 km/h
3054 08-12-2019 06:00:00 10.08333 C 8.01 g/m*3 7.37 C 21.18333 km/h
3055 08-12-2019 07:00:00 10.425 C 8.05 g/m*3 8.22 C 16.9 km/h
3056 08-12-2019 08:00:00 10.56667 C 8.15 g/m*3 8 C 21.05 km/h
3057 08-12-2019 09:00:00 10.65 C 8.27 g/m*3 7.65 C 26.69167 km/h
3058 08-12-2019 10:00:00 10.75833 C 8.45 g/m*3 7.76 C 27.06667 km/h
3059 08-12-2019 11:00:00 11.01667 C 8.55 g/m*3 11.02 C 22.39167 km/h
3060 08-12-2019 12:00:00 11.54167 C 8.79 g/m*3 11.54 C 21.975 km/h
3061 08-12-2019 13:00:00 11.70833 C 9.05 g/m*3 11.71 C 18.375 km/h
3062 08-12-2019 14:00:00 11.9 C 9.21 g/m*3 11.9 C 16.23333 km/h
3063 08-12-2019 15:00:00 12.09167 C 9.32 g/m*3 12.09 C 15.03333 km/h
3064 08-12-2019 16:00:00 11.79167 C 9.27 g/m*3 11.79 C 15.16667 km/h
3065 08-12-2019 17:00:00 9.35 C 8.27 g/m*3 8.51 C 6.84167 km/h
3066 08-12-2019 18:00:00 8.775 C 8.05 g/m*3 7.78 C 7.09167 km/h
3067 08-12-2019 19:00:00 8.75 C 7.87 g/m*3 7.88 C 6.575 km/h
3068 08-12-2019 20:00:00 8.48333 C 7.78 g/m*3 7.04 C 8.85833 km/h
3069 08-12-2019 21:00:00 8.83333 C 7.59 g/m*3 7.01 C 11.3 km/h
3070 08-12-2019 22:00:00 8.80833 C 7.59 g/m*3 6.49 C 14.625 km/h
3071 08-12-2019 23:00:00 9.025 C 7.48 g/m*3 6.51 C 16.63333 km/h
3072 09-12-2019 00:00:00 8.75833 C 7.16 g/m*3 6.23 C 16.23333 km/h
3073 09-12-2019 01:00:00 8.575 C 6.96 g/m*3 5.58 C 19.96667 km/h
3074 09-12-2019 02:00:00 7.975 C 6.84 g/m*3 5.34 C 15.56667 km/h
3075 09-12-2019 03:00:00 7.95833 C 6.8 g/m*3 5.27 C 15.96667 km/h
Sensor: Nr:Datum:Temp:Abs-Feuchte:Windchill:Wind:
Aussen-T/F 3076 09-12-2019 04:00:00 8.15 C 6.91 g/m*3 5.06 C 19.85 km/h
3077 09-12-2019 05:00:00 7.85833 C 6.54 g/m*3 4.92 C 17.83333 km/h
3078 09-12-2019 06:00:00 7.99167 C 6.62 g/m*3 5.07 C 17.96667 km/h
3079 09-12-2019 07:00:00 8.04167 C 6.83 g/m*3 5.31 C 16.49167 km/h
3080 09-12-2019 08:00:00 8.26667 C 6.83 g/m*3 5.41 C 17.96667 km/h
3081 09-12-2019 09:00:00 8.20833 C 7 g/m*3 5.34 C 17.96667 km/h
3082 09-12-2019 10:00:00 8.30833 C 7.11 g/m*3 5.86 C 14.76667 km/h
3083 09-12-2019 11:00:00 8.54167 C 7.08 g/m*3 6.2 C 14.36667 km/h
3084 09-12-2019 12:00:00 8.5 C 7.09 g/m*3 6.53 C 11.825 km/h
3085 09-12-2019 13:00:00 8.63333 C 7.17 g/m*3 6.42 C 13.56667 km/h
3086 09-12-2019 14:00:00 8.85 C 7.11 g/m*3 6.95 C 11.83333 km/h
3087 09-12-2019 15:00:00 8.15 C 7.08 g/m*3 6.94 C 7.525 km/h
3088 09-12-2019 16:00:00 7.75833 C 6.76 g/m*3 6.24 C 8.60833 km/h
3089 09-12-2019 17:00:00 7.425 C 6.89 g/m*3 7.43 C 4.80833 km/h
3090 09-12-2019 18:00:00 6.84167 C 6.97 g/m*3 5.91 C 5.76667 km/h
3091 09-12-2019 19:00:00 6.58333 C 6.98 g/m*3 4.76 C 8.99167 km/h
3092 09-12-2019 20:00:00 6.575 C 6.88 g/m*3 3.76 C 14.5 km/h
3093 09-12-2019 21:00:00 6.24167 C 6.67 g/m*3 4.07 C 10.35 km/h
3094 09-12-2019 22:00:00 5.75 C 6.35 g/m*3 3.43 C 10.61667 km/h
3095 09-12-2019 23:00:00 5.39167 C 6.13 g/m*3 3.26 C 9.40833 km/h
3096 10-12-2019 00:00:00 4.79167 C 5.85 g/m*3 3.43 C 6.16667 km/h
3097 10-12-2019 01:00:00 3.8 C 5.61 g/m*3 3.8 C 3.33333 km/h
3098 10-12-2019 02:00:00 3.38333 C 5.49 g/m*3 3.38 C 3.60833 km/h
3099 10-12-2019 03:00:00 2.64167 C 5.37 g/m*3 2.64 C 2 km/h
3100 10-12-2019 04:00:00 2.025 C 5.21 g/m*3 2.03 C 1.33333 km/h
Sensor: Nr:Datum:Temp:Abs-Feuchte:Windchill:Wind:
Aussen-T/F 3101 10-12-2019 05:00:00 2.275 C 5.35 g/m*3 2.28 C 2.8 km/h
3102 10-12-2019 06:00:00 2.05833 C 5.24 g/m*3 2.06 C 2.93333 km/h
3103 10-12-2019 07:00:00 2.075 C 5.28 g/m*3 2.08 C 2.66667 km/h
3104 10-12-2019 08:00:00 1.56667 C 5.1 g/m*3 1.57 C 2.4 km/h
3105 10-12-2019 09:00:00 1.95833 C 5.26 g/m*3 1.96 C 2.66667 km/h
3106 10-12-2019 10:00:00 3.13333 C 5.62 g/m*3 3.13 C 2.40833 km/h
3107 10-12-2019 11:00:00 3.35833 C 5.66 g/m*3 2.02 C 5.49167 km/h
3108 10-12-2019 12:00:00 4.475 C 5.89 g/m*3 1.84 C 10.88333 km/h
3109 10-12-2019 13:00:00 5.21667 C 6.04 g/m*3 3.7 C 6.85833 km/h
3110 10-12-2019 14:00:00 5.00833 C 5.93 g/m*3 5.01 C 3.60833 km/h
3111 10-12-2019 15:00:00 4.13333 C 5.71 g/m*3 4.13 C 3.2 km/h
3112 10-12-2019 16:00:00 3.84167 C 5.58 g/m*3 3.84 C 3.88333 km/h
3113 10-12-2019 17:00:00 3.675 C 5.35 g/m*3 3.68 C 4.95 km/h
3114 10-12-2019 18:00:00 2.98333 C 5.26 g/m*3 2.98 C 0.4 km/h
3115 10-12-2019 19:00:00 2.44167 C 5.23 g/m*3 2.44 C 0.26667 km/h
3116 10-12-2019 20:00:00 3.10833 C 5.41 g/m*3 3.11 C 2.94167 km/h
3117 10-12-2019 21:00:00 3.18333 C 5.42 g/m*3 3.18 C 0.66667 km/h
3118 10-12-2019 22:00:00 3.08333 C 5.46 g/m*3 3.08 C 1.73333 km/h
3119 10-12-2019 23:00:00 3.725 C 5.63 g/m*3 3.73 C 1.06667 km/h
3120 11-12-2019 00:00:00 4.05833 C 5.66 g/m*3 4.06 C 1.2 km/h
3121 11-12-2019 01:00:00 4.275 C 5.66 g/m*3 4.28 C 0.93333 km/h
3122 11-12-2019 02:00:00 4.08333 C 5.73 g/m*3 4.08 C 1.33333 km/h
3123 11-12-2019 03:00:00 4.08333 C 5.77 g/m*3 4.08 C 1.33333 km/h
3124 11-12-2019 04:00:00 3.81667 C 5.78 g/m*3 3.82 C 0.93333 km/h
3125 11-12-2019 05:00:00 3.69167 C 5.83 g/m*3 3.69 C 0 km/h
Sensor: Nr:Datum:Temp:Abs-Feuchte:Windchill:Wind:
Aussen-T/F 3126 11-12-2019 06:00:00 3.425 C 5.81 g/m*3 3.43 C 0 km/h
3127 11-12-2019 07:00:00 3.33333 C 5.78 g/m*3 3.33 C 0 km/h
3128 11-12-2019 08:00:00 3.25833 C 5.79 g/m*3 3.26 C 0 km/h
3129 11-12-2019 09:00:00 3.26667 C 5.81 g/m*3 3.27 C 0 km/h
3130 11-12-2019 10:00:00 3.54167 C 5.92 g/m*3 3.54 C 0 km/h
3131 11-12-2019 11:00:00 3.75833 C 6.01 g/m*3 3.76 C 0 km/h
3132 11-12-2019 12:00:00 3.9 C 6.06 g/m*3 3.9 C 0 km/h
3133 11-12-2019 13:00:00 3.93333 C 6.08 g/m*3 3.93 C 0 km/h
3134 11-12-2019 14:00:00 4.09167 C 6.14 g/m*3 4.09 C 0 km/h
3135 11-12-2019 15:00:00 4.2 C 6.19 g/m*3 4.2 C 0 km/h
3136 11-12-2019 16:00:00 4.11667 C 6.16 g/m*3 4.12 C 0 km/h
3137 11-12-2019 17:00:00 3.91667 C 6.07 g/m*3 3.92 C 0.26667 km/h
3138 11-12-2019 18:00:00 4.13333 C 6.22 g/m*3 4.13 C 0 km/h
3139 11-12-2019 19:00:00 4.35 C 6.31 g/m*3 4.35 C 0 km/h
3140 11-12-2019 20:00:00 4.60833 C 6.42 g/m*3 4.61 C 2.15 km/h
3141 11-12-2019 21:00:00 4.75833 C 6.49 g/m*3 2.41 C 9.81667 km/h
3142 11-12-2019 22:00:00 4.525 C 6.35 g/m*3 2.67 C 7.65 km/h
3143 11-12-2019 23:00:00 4.225 C 6.21 g/m*3